<?xml version="1.0" encoding="UTF-8" standalone="no" ?>
<gpx xmlns="http://www.topografix.com/GPX/1/1" xmlns:xsi="http://www.w3.org/2001/XMLSchema-instance" xsi:schemaLocation="http://www.topografix.com/GPX/1/1 http://www.topografix.com/GPX/1/1/gpx.xsd" version="1.1" creator="VisuGPX - https://www.visugpx.com">
  <metadata>
    <name>Lachamp Raphaël Ray-Pic N4 DEB</name>
    <desc><![CDATA[File with points/tracks from Locus Map Classic/3.63.0]]></desc>
  </metadata>
  <trk>
    <name><![CDATA[Lachamp Raphaël Ray-Pic N4 DEB]]></name>
    <extensions>
      <line xmlns="http://www.topografix.com/GPX/gpx_style/0/2">
        <color>0000FF</color>
        <opacity>0.59</opacity>
        <width>6.0</width>
      </line>
    </extensions>
    <trkseg>
      <trkpt lat="44.80966" lon="4.29071">
        <ele>1323.55</ele>
        <time>2022-10-13T07:13:39.999Z</time>
      </trkpt>
      <trkpt lat="44.80975" lon="4.29068">
        <ele>1323.86</ele>
        <time>2022-10-13T07:15:53.999Z</time>
      </trkpt>
      <trkpt lat="44.8098" lon="4.29057">
        <ele>1324.28</ele>
        <time>2022-10-13T07:17:31.999Z</time>
      </trkpt>
      <trkpt lat="44.80987" lon="4.29048">
        <ele>1324.7</ele>
        <time>2022-10-13T07:18:20.999Z</time>
      </trkpt>
      <trkpt lat="44.80992" lon="4.29031">
        <ele>1325.28</ele>
        <time>2022-10-13T07:18:30.999Z</time>
      </trkpt>
      <trkpt lat="44.80998" lon="4.2902">
        <ele>1325.71</ele>
        <time>2022-10-13T07:18:42.999Z</time>
      </trkpt>
      <trkpt lat="44.81008" lon="4.29012">
        <ele>1326.16</ele>
        <time>2022-10-13T07:18:52.143Z</time>
      </trkpt>
      <trkpt lat="44.81017" lon="4.29001">
        <ele>1326.56</ele>
        <time>2022-10-13T07:19:02.093Z</time>
      </trkpt>
      <trkpt lat="44.81024" lon="4.28993">
        <ele>1326.8</ele>
        <time>2022-10-13T07:19:11.551Z</time>
      </trkpt>
      <trkpt lat="44.81035" lon="4.28987">
        <ele>1327.09</ele>
        <time>2022-10-13T07:19:20.932Z</time>
      </trkpt>
      <trkpt lat="44.81044" lon="4.28972">
        <ele>1327.38</ele>
        <time>2022-10-13T07:19:29.999Z</time>
      </trkpt>
      <trkpt lat="44.81052" lon="4.28958">
        <ele>1327.61</ele>
        <time>2022-10-13T07:19:39.389Z</time>
      </trkpt>
      <trkpt lat="44.8106" lon="4.28949">
        <ele>1327.8</ele>
        <time>2022-10-13T07:19:48.547Z</time>
      </trkpt>
      <trkpt lat="44.8107" lon="4.28943">
        <ele>1328.02</ele>
        <time>2022-10-13T07:19:58.306Z</time>
      </trkpt>
      <trkpt lat="44.81079" lon="4.28935">
        <ele>1328.2</ele>
        <time>2022-10-13T07:20:07.624Z</time>
      </trkpt>
      <trkpt lat="44.81088" lon="4.28927">
        <ele>1328.35</ele>
        <time>2022-10-13T07:20:16.785Z</time>
      </trkpt>
      <trkpt lat="44.81098" lon="4.28916">
        <ele>1328.43</ele>
        <time>2022-10-13T07:20:25.864Z</time>
      </trkpt>
      <trkpt lat="44.81108" lon="4.28904">
        <ele>1328.32</ele>
        <time>2022-10-13T07:20:35.382Z</time>
      </trkpt>
      <trkpt lat="44.81117" lon="4.28889">
        <ele>1327.96</ele>
        <time>2022-10-13T07:20:44.830Z</time>
      </trkpt>
      <trkpt lat="44.81127" lon="4.28877">
        <ele>1327.48</ele>
        <time>2022-10-13T07:20:54.292Z</time>
      </trkpt>
      <trkpt lat="44.81137" lon="4.28868">
        <ele>1327.08</ele>
        <time>2022-10-13T07:21:03.698Z</time>
      </trkpt>
      <trkpt lat="44.81146" lon="4.2886">
        <ele>1326.62</ele>
        <time>2022-10-13T07:21:13.087Z</time>
      </trkpt>
      <trkpt lat="44.8116" lon="4.28854">
        <ele>1326.36</ele>
        <time>2022-10-13T07:21:23.047Z</time>
      </trkpt>
      <trkpt lat="44.81172" lon="4.28851">
        <ele>1326.35</ele>
        <time>2022-10-13T07:21:32.084Z</time>
      </trkpt>
      <trkpt lat="44.81184" lon="4.28847">
        <ele>1326.26</ele>
        <time>2022-10-13T07:21:41.483Z</time>
      </trkpt>
      <trkpt lat="44.81195" lon="4.2884">
        <ele>1325.98</ele>
        <time>2022-10-13T07:21:50.841Z</time>
      </trkpt>
      <trkpt lat="44.81206" lon="4.28833">
        <ele>1325.74</ele>
        <time>2022-10-13T07:22:00.270Z</time>
      </trkpt>
      <trkpt lat="44.81218" lon="4.28824">
        <ele>1325.49</ele>
        <time>2022-10-13T07:22:10.191Z</time>
      </trkpt>
      <trkpt lat="44.81229" lon="4.28816">
        <ele>1325.26</ele>
        <time>2022-10-13T07:22:19.210Z</time>
      </trkpt>
      <trkpt lat="44.81241" lon="4.28806">
        <ele>1325.06</ele>
        <time>2022-10-13T07:22:29.108Z</time>
      </trkpt>
      <trkpt lat="44.81251" lon="4.28796">
        <ele>1324.89</ele>
        <time>2022-10-13T07:22:38.569Z</time>
      </trkpt>
      <trkpt lat="44.81261" lon="4.28786">
        <ele>1324.8</ele>
        <time>2022-10-13T07:22:47.585Z</time>
      </trkpt>
      <trkpt lat="44.81272" lon="4.28776">
        <ele>1324.97</ele>
        <time>2022-10-13T07:22:57.066Z</time>
      </trkpt>
      <trkpt lat="44.81282" lon="4.28762">
        <ele>1325.02</ele>
        <time>2022-10-13T07:23:06.522Z</time>
      </trkpt>
      <trkpt lat="44.81291" lon="4.28751">
        <ele>1325.36</ele>
        <time>2022-10-13T07:23:15.943Z</time>
      </trkpt>
      <trkpt lat="44.81301" lon="4.28738">
        <ele>1325.81</ele>
        <time>2022-10-13T07:23:25.361Z</time>
      </trkpt>
      <trkpt lat="44.81311" lon="4.28726">
        <ele>1326.46</ele>
        <time>2022-10-13T07:23:34.872Z</time>
      </trkpt>
      <trkpt lat="44.81318" lon="4.2871">
        <ele>1326.89</ele>
        <time>2022-10-13T07:23:44.252Z</time>
      </trkpt>
      <trkpt lat="44.81325" lon="4.28696">
        <ele>1327.47</ele>
        <time>2022-10-13T07:23:53.669Z</time>
      </trkpt>
      <trkpt lat="44.81331" lon="4.28679">
        <ele>1327.85</ele>
        <time>2022-10-13T07:24:03.187Z</time>
      </trkpt>
      <trkpt lat="44.81336" lon="4.28662">
        <ele>1328.26</ele>
        <time>2022-10-13T07:24:13.187Z</time>
      </trkpt>
      <trkpt lat="44.81341" lon="4.28646">
        <ele>1328.68</ele>
        <time>2022-10-13T07:24:22.288Z</time>
      </trkpt>
      <trkpt lat="44.81345" lon="4.28629">
        <ele>1329.1</ele>
        <time>2022-10-13T07:24:31.845Z</time>
      </trkpt>
      <trkpt lat="44.81348" lon="4.28612">
        <ele>1329.3</ele>
        <time>2022-10-13T07:24:40.923Z</time>
      </trkpt>
      <trkpt lat="44.81351" lon="4.28595">
        <ele>1329.6</ele>
        <time>2022-10-13T07:24:50.191Z</time>
      </trkpt>
      <trkpt lat="44.81356" lon="4.28582">
        <ele>1330.37</ele>
        <time>2022-10-13T07:24:59.430Z</time>
      </trkpt>
      <trkpt lat="44.81362" lon="4.2857">
        <ele>1331.24</ele>
        <time>2022-10-13T07:25:08.652Z</time>
      </trkpt>
      <trkpt lat="44.81365" lon="4.28555">
        <ele>1331.73</ele>
        <time>2022-10-13T07:25:17.811Z</time>
      </trkpt>
      <trkpt lat="44.81366" lon="4.2854">
        <ele>1331.97</ele>
        <time>2022-10-13T07:25:27.190Z</time>
      </trkpt>
      <trkpt lat="44.81367" lon="4.28525">
        <ele>1332.15</ele>
        <time>2022-10-13T07:25:36.273Z</time>
      </trkpt>
      <trkpt lat="44.8137" lon="4.28508">
        <ele>1332.7</ele>
        <time>2022-10-13T07:25:46.367Z</time>
      </trkpt>
      <trkpt lat="44.81374" lon="4.28492">
        <ele>1333.62</ele>
        <time>2022-10-13T07:25:55.866Z</time>
      </trkpt>
      <trkpt lat="44.81377" lon="4.28477">
        <ele>1334.3</ele>
        <time>2022-10-13T07:26:05.065Z</time>
      </trkpt>
      <trkpt lat="44.81378" lon="4.28463">
        <ele>1334.68</ele>
        <time>2022-10-13T07:26:14.193Z</time>
      </trkpt>
      <trkpt lat="44.81384" lon="4.28451">
        <ele>1336.03</ele>
        <time>2022-10-13T07:26:24.125Z</time>
      </trkpt>
      <trkpt lat="44.81382" lon="4.28436">
        <ele>1335.88</ele>
        <time>2022-10-13T07:26:33.781Z</time>
      </trkpt>
      <trkpt lat="44.81384" lon="4.28417">
        <ele>1336.4</ele>
        <time>2022-10-13T07:26:43.210Z</time>
      </trkpt>
      <trkpt lat="44.8138" lon="4.28402">
        <ele>1335.85</ele>
        <time>2022-10-13T07:26:52.290Z</time>
      </trkpt>
      <trkpt lat="44.81383" lon="4.28386">
        <ele>1336.4</ele>
        <time>2022-10-13T07:27:01.308Z</time>
      </trkpt>
      <trkpt lat="44.81385" lon="4.2837">
        <ele>1336.85</ele>
        <time>2022-10-13T07:27:10.429Z</time>
      </trkpt>
      <trkpt lat="44.81385" lon="4.28353">
        <ele>1336.9</ele>
        <time>2022-10-13T07:27:19.626Z</time>
      </trkpt>
      <trkpt lat="44.81381" lon="4.28336">
        <ele>1336.44</ele>
        <time>2022-10-13T07:27:29.052Z</time>
      </trkpt>
      <trkpt lat="44.8138" lon="4.2832">
        <ele>1336.32</ele>
        <time>2022-10-13T07:27:38.226Z</time>
      </trkpt>
      <trkpt lat="44.81376" lon="4.28306">
        <ele>1335.98</ele>
        <time>2022-10-13T07:27:47.606Z</time>
      </trkpt>
      <trkpt lat="44.81373" lon="4.28291">
        <ele>1335.85</ele>
        <time>2022-10-13T07:27:56.869Z</time>
      </trkpt>
      <trkpt lat="44.8137" lon="4.28274">
        <ele>1335.95</ele>
        <time>2022-10-13T07:28:06.122Z</time>
      </trkpt>
      <trkpt lat="44.81368" lon="4.28257">
        <ele>1336.45</ele>
        <time>2022-10-13T07:28:15.352Z</time>
      </trkpt>
      <trkpt lat="44.81369" lon="4.2824">
        <ele>1337.46</ele>
        <time>2022-10-13T07:28:24.691Z</time>
      </trkpt>
      <trkpt lat="44.81371" lon="4.28223">
        <ele>1338.74</ele>
        <time>2022-10-13T07:28:34.029Z</time>
      </trkpt>
      <trkpt lat="44.81378" lon="4.28209">
        <ele>1340.16</ele>
        <time>2022-10-13T07:28:43.428Z</time>
      </trkpt>
      <trkpt lat="44.81388" lon="4.28198">
        <ele>1341.27</ele>
        <time>2022-10-13T07:28:52.886Z</time>
      </trkpt>
      <trkpt lat="44.81398" lon="4.28189">
        <ele>1341.91</ele>
        <time>2022-10-13T07:29:02.106Z</time>
      </trkpt>
      <trkpt lat="44.81406" lon="4.28175">
        <ele>1342.73</ele>
        <time>2022-10-13T07:29:11.403Z</time>
      </trkpt>
      <trkpt lat="44.8141" lon="4.28158">
        <ele>1344.04</ele>
        <time>2022-10-13T07:29:20.623Z</time>
      </trkpt>
      <trkpt lat="44.81418" lon="4.28144">
        <ele>1344.59</ele>
        <time>2022-10-13T07:29:29.926Z</time>
      </trkpt>
      <trkpt lat="44.81428" lon="4.28135">
        <ele>1343.44</ele>
        <time>2022-10-13T07:29:39.441Z</time>
      </trkpt>
      <trkpt lat="44.81437" lon="4.28126">
        <ele>1341.91</ele>
        <time>2022-10-13T07:29:48.582Z</time>
      </trkpt>
      <trkpt lat="44.81443" lon="4.28112">
        <ele>1341.94</ele>
        <time>2022-10-13T07:29:57.811Z</time>
      </trkpt>
      <trkpt lat="44.81444" lon="4.28097">
        <ele>1343.84</ele>
        <time>2022-10-13T07:30:06.970Z</time>
      </trkpt>
      <trkpt lat="44.81443" lon="4.28081">
        <ele>1346.41</ele>
        <time>2022-10-13T07:30:16.391Z</time>
      </trkpt>
      <trkpt lat="44.81438" lon="4.2807">
        <ele>1349.52</ele>
        <time>2022-10-13T07:30:26.229Z</time>
      </trkpt>
      <trkpt lat="44.81441" lon="4.28058">
        <ele>1350.45</ele>
        <time>2022-10-13T07:30:35.645Z</time>
      </trkpt>
      <trkpt lat="44.81438" lon="4.28045">
        <ele>1352.95</ele>
        <time>2022-10-13T07:30:45.365Z</time>
      </trkpt>
      <trkpt lat="44.81434" lon="4.28032">
        <ele>1355.71</ele>
        <time>2022-10-13T07:30:58.185Z</time>
      </trkpt>
      <trkpt lat="44.81432" lon="4.2802">
        <ele>1357.98</ele>
        <time>2022-10-13T07:31:08.903Z</time>
      </trkpt>
      <trkpt lat="44.81428" lon="4.28008">
        <ele>1360.19</ele>
        <time>2022-10-13T07:31:18.932Z</time>
      </trkpt>
      <trkpt lat="44.81423" lon="4.27995">
        <ele>1362.43</ele>
        <time>2022-10-13T07:31:28.303Z</time>
      </trkpt>
      <trkpt lat="44.81418" lon="4.27982">
        <ele>1364.41</ele>
        <time>2022-10-13T07:31:38.112Z</time>
      </trkpt>
      <trkpt lat="44.81417" lon="4.27967">
        <ele>1365.59</ele>
        <time>2022-10-13T07:31:48.103Z</time>
      </trkpt>
      <trkpt lat="44.81419" lon="4.27952">
        <ele>1366.2</ele>
        <time>2022-10-13T07:31:57.309Z</time>
      </trkpt>
      <trkpt lat="44.81424" lon="4.27941">
        <ele>1366.23</ele>
        <time>2022-10-13T07:32:07.072Z</time>
      </trkpt>
      <trkpt lat="44.81424" lon="4.27925">
        <ele>1367.25</ele>
        <time>2022-10-13T07:32:16.290Z</time>
      </trkpt>
      <trkpt lat="44.8142" lon="4.27913">
        <ele>1368.79</ele>
        <time>2022-10-13T07:35:21.806Z</time>
      </trkpt>
      <trkpt lat="44.81422" lon="4.279">
        <ele>1369.53</ele>
        <time>2022-10-13T07:35:31.928Z</time>
      </trkpt>
      <trkpt lat="44.81427" lon="4.27886">
        <ele>1369.94</ele>
        <time>2022-10-13T07:35:41.025Z</time>
      </trkpt>
      <trkpt lat="44.81431" lon="4.2787">
        <ele>1370.42</ele>
        <time>2022-10-13T07:35:50.440Z</time>
      </trkpt>
      <trkpt lat="44.81437" lon="4.27857">
        <ele>1370.52</ele>
        <time>2022-10-13T07:35:59.780Z</time>
      </trkpt>
      <trkpt lat="44.8144" lon="4.27843">
        <ele>1371.4</ele>
        <time>2022-10-13T07:36:09.066Z</time>
      </trkpt>
      <trkpt lat="44.81434" lon="4.27832">
        <ele>1373.44</ele>
        <time>2022-10-13T07:36:18.643Z</time>
      </trkpt>
      <trkpt lat="44.81424" lon="4.27838">
        <ele>1374.42</ele>
        <time>2022-10-13T07:36:28.102Z</time>
      </trkpt>
      <trkpt lat="44.81414" lon="4.27841">
        <ele>1375.67</ele>
        <time>2022-10-13T07:36:37.999Z</time>
      </trkpt>
      <trkpt lat="44.81412" lon="4.27828">
        <ele>1377.14</ele>
        <time>2022-10-13T07:36:51.651Z</time>
      </trkpt>
      <trkpt lat="44.81408" lon="4.27813">
        <ele>1379.24</ele>
        <time>2022-10-13T07:37:00.869Z</time>
      </trkpt>
      <trkpt lat="44.81398" lon="4.27808">
        <ele>1380.89</ele>
        <time>2022-10-13T07:37:10.052Z</time>
      </trkpt>
      <trkpt lat="44.81387" lon="4.27809">
        <ele>1381.94</ele>
        <time>2022-10-13T07:37:19.666Z</time>
      </trkpt>
      <trkpt lat="44.81379" lon="4.27801">
        <ele>1383.3</ele>
        <time>2022-10-13T07:37:28.706Z</time>
      </trkpt>
      <trkpt lat="44.81367" lon="4.278">
        <ele>1384.12</ele>
        <time>2022-10-13T07:37:38.063Z</time>
      </trkpt>
      <trkpt lat="44.81358" lon="4.27797">
        <ele>1384.94</ele>
        <time>2022-10-13T07:37:47.450Z</time>
      </trkpt>
      <trkpt lat="44.8135" lon="4.27786">
        <ele>1385.89</ele>
        <time>2022-10-13T07:37:56.707Z</time>
      </trkpt>
      <trkpt lat="44.81347" lon="4.2777">
        <ele>1386.63</ele>
        <time>2022-10-13T07:38:06.193Z</time>
      </trkpt>
      <trkpt lat="44.81351" lon="4.27752">
        <ele>1387.05</ele>
        <time>2022-10-13T07:38:15.410Z</time>
      </trkpt>
      <trkpt lat="44.81351" lon="4.27735">
        <ele>1387.05</ele>
        <time>2022-10-13T07:38:24.628Z</time>
      </trkpt>
      <trkpt lat="44.81355" lon="4.2772">
        <ele>1386.78</ele>
        <time>2022-10-13T07:38:33.710Z</time>
      </trkpt>
      <trkpt lat="44.81355" lon="4.27702">
        <ele>1386.13</ele>
        <time>2022-10-13T07:38:42.865Z</time>
      </trkpt>
      <trkpt lat="44.81357" lon="4.27683">
        <ele>1385.5</ele>
        <time>2022-10-13T07:38:51.886Z</time>
      </trkpt>
      <trkpt lat="44.81357" lon="4.27667">
        <ele>1385.07</ele>
        <time>2022-10-13T07:39:00.985Z</time>
      </trkpt>
      <trkpt lat="44.81361" lon="4.2765">
        <ele>1385.07</ele>
        <time>2022-10-13T07:39:10.065Z</time>
      </trkpt>
      <trkpt lat="44.81362" lon="4.27634">
        <ele>1385.02</ele>
        <time>2022-10-13T07:39:19.285Z</time>
      </trkpt>
      <trkpt lat="44.81359" lon="4.27618">
        <ele>1384.42</ele>
        <time>2022-10-13T07:39:28.352Z</time>
      </trkpt>
      <trkpt lat="44.8136" lon="4.27598">
        <ele>1384.29</ele>
        <time>2022-10-13T07:39:37.929Z</time>
      </trkpt>
      <trkpt lat="44.81362" lon="4.27579">
        <ele>1384.48</ele>
        <time>2022-10-13T07:39:47.228Z</time>
      </trkpt>
      <trkpt lat="44.81361" lon="4.27563">
        <ele>1384.44</ele>
        <time>2022-10-13T07:39:56.771Z</time>
      </trkpt>
      <trkpt lat="44.81362" lon="4.27545">
        <ele>1384.76</ele>
        <time>2022-10-13T07:40:05.825Z</time>
      </trkpt>
      <trkpt lat="44.81362" lon="4.27527">
        <ele>1384.96</ele>
        <time>2022-10-13T07:40:15.125Z</time>
      </trkpt>
      <trkpt lat="44.8136" lon="4.2751">
        <ele>1385</ele>
        <time>2022-10-13T07:40:25.042Z</time>
      </trkpt>
      <trkpt lat="44.81359" lon="4.27493">
        <ele>1385.16</ele>
        <time>2022-10-13T07:40:34.294Z</time>
      </trkpt>
      <trkpt lat="44.81361" lon="4.27474">
        <ele>1385.58</ele>
        <time>2022-10-13T07:40:43.610Z</time>
      </trkpt>
      <trkpt lat="44.8136" lon="4.27457">
        <ele>1385.7</ele>
        <time>2022-10-13T07:40:52.808Z</time>
      </trkpt>
      <trkpt lat="44.81358" lon="4.2744">
        <ele>1385.87</ele>
        <time>2022-10-13T07:41:01.968Z</time>
      </trkpt>
      <trkpt lat="44.81358" lon="4.27425">
        <ele>1386.13</ele>
        <time>2022-10-13T07:41:11.305Z</time>
      </trkpt>
      <trkpt lat="44.81356" lon="4.27405">
        <ele>1386.37</ele>
        <time>2022-10-13T07:41:20.807Z</time>
      </trkpt>
      <trkpt lat="44.81355" lon="4.27388">
        <ele>1386.62</ele>
        <time>2022-10-13T07:41:29.885Z</time>
      </trkpt>
      <trkpt lat="44.81355" lon="4.27371">
        <ele>1386.95</ele>
        <time>2022-10-13T07:41:39.024Z</time>
      </trkpt>
      <trkpt lat="44.81353" lon="4.27352">
        <ele>1387.25</ele>
        <time>2022-10-13T07:41:48.781Z</time>
      </trkpt>
      <trkpt lat="44.81352" lon="4.27334">
        <ele>1387.57</ele>
        <time>2022-10-13T07:41:57.971Z</time>
      </trkpt>
      <trkpt lat="44.81351" lon="4.27317">
        <ele>1387.92</ele>
        <time>2022-10-13T07:42:07.000Z</time>
      </trkpt>
      <trkpt lat="44.81348" lon="4.273">
        <ele>1388.23</ele>
        <time>2022-10-13T07:42:16.470Z</time>
      </trkpt>
      <trkpt lat="44.81345" lon="4.27283">
        <ele>1388.39</ele>
        <time>2022-10-13T07:42:25.782Z</time>
      </trkpt>
      <trkpt lat="44.8134" lon="4.27268">
        <ele>1388.26</ele>
        <time>2022-10-13T07:42:35.008Z</time>
      </trkpt>
      <trkpt lat="44.81337" lon="4.27251">
        <ele>1388.34</ele>
        <time>2022-10-13T07:42:44.247Z</time>
      </trkpt>
      <trkpt lat="44.81337" lon="4.27234">
        <ele>1388.74</ele>
        <time>2022-10-13T07:42:53.567Z</time>
      </trkpt>
      <trkpt lat="44.8134" lon="4.27218">
        <ele>1389.38</ele>
        <time>2022-10-13T07:43:02.906Z</time>
      </trkpt>
      <trkpt lat="44.81344" lon="4.27201">
        <ele>1390.24</ele>
        <time>2022-10-13T07:43:12.000Z</time>
      </trkpt>
      <trkpt lat="44.81347" lon="4.27184">
        <ele>1390.73</ele>
        <time>2022-10-13T07:43:21.063Z</time>
      </trkpt>
      <trkpt lat="44.81353" lon="4.27167">
        <ele>1391.46</ele>
        <time>2022-10-13T07:43:30.891Z</time>
      </trkpt>
      <trkpt lat="44.81359" lon="4.27152">
        <ele>1391.91</ele>
        <time>2022-10-13T07:43:40.332Z</time>
      </trkpt>
      <trkpt lat="44.81365" lon="4.27137">
        <ele>1392.08</ele>
        <time>2022-10-13T07:43:49.350Z</time>
      </trkpt>
      <trkpt lat="44.8137" lon="4.2712">
        <ele>1391.92</ele>
        <time>2022-10-13T07:43:58.849Z</time>
      </trkpt>
      <trkpt lat="44.81377" lon="4.27105">
        <ele>1391.85</ele>
        <time>2022-10-13T07:44:07.908Z</time>
      </trkpt>
      <trkpt lat="44.8138" lon="4.27088">
        <ele>1391.07</ele>
        <time>2022-10-13T07:44:17.028Z</time>
      </trkpt>
      <trkpt lat="44.81383" lon="4.2707">
        <ele>1390.04</ele>
        <time>2022-10-13T07:44:27.067Z</time>
      </trkpt>
      <trkpt lat="44.81389" lon="4.27055">
        <ele>1389.54</ele>
        <time>2022-10-13T07:44:36.188Z</time>
      </trkpt>
      <trkpt lat="44.81391" lon="4.27037">
        <ele>1388.41</ele>
        <time>2022-10-13T07:44:46.066Z</time>
      </trkpt>
      <trkpt lat="44.81391" lon="4.27018">
        <ele>1386.7</ele>
        <time>2022-10-13T07:44:55.466Z</time>
      </trkpt>
      <trkpt lat="44.81399" lon="4.27003">
        <ele>1386.13</ele>
        <time>2022-10-13T07:45:04.865Z</time>
      </trkpt>
      <trkpt lat="44.81406" lon="4.26987">
        <ele>1385</ele>
        <time>2022-10-13T07:45:14.252Z</time>
      </trkpt>
      <trkpt lat="44.81411" lon="4.26971">
        <ele>1382.94</ele>
        <time>2022-10-13T07:45:23.292Z</time>
      </trkpt>
      <trkpt lat="44.81417" lon="4.26955">
        <ele>1380.55</ele>
        <time>2022-10-13T07:45:33.250Z</time>
      </trkpt>
      <trkpt lat="44.81426" lon="4.26941">
        <ele>1378.75</ele>
        <time>2022-10-13T07:45:43.029Z</time>
      </trkpt>
      <trkpt lat="44.81439" lon="4.26932">
        <ele>1378.01</ele>
        <time>2022-10-13T07:45:52.393Z</time>
      </trkpt>
      <trkpt lat="44.81449" lon="4.26925">
        <ele>1377.48</ele>
        <time>2022-10-13T07:46:01.805Z</time>
      </trkpt>
      <trkpt lat="44.81461" lon="4.26923">
        <ele>1377.76</ele>
        <time>2022-10-13T07:46:10.891Z</time>
      </trkpt>
      <trkpt lat="44.81473" lon="4.26919">
        <ele>1377.71</ele>
        <time>2022-10-13T07:46:19.966Z</time>
      </trkpt>
      <trkpt lat="44.81485" lon="4.26914">
        <ele>1377.41</ele>
        <time>2022-10-13T07:46:28.982Z</time>
      </trkpt>
      <trkpt lat="44.81499" lon="4.26913">
        <ele>1377.6</ele>
        <time>2022-10-13T07:46:39.052Z</time>
      </trkpt>
      <trkpt lat="44.81511" lon="4.26909">
        <ele>1377.15</ele>
        <time>2022-10-13T07:46:48.092Z</time>
      </trkpt>
      <trkpt lat="44.81524" lon="4.26904">
        <ele>1376.74</ele>
        <time>2022-10-13T07:46:58.150Z</time>
      </trkpt>
      <trkpt lat="44.81535" lon="4.26894">
        <ele>1375.87</ele>
        <time>2022-10-13T07:47:07.229Z</time>
      </trkpt>
      <trkpt lat="44.81546" lon="4.26885">
        <ele>1375.42</ele>
        <time>2022-10-13T07:47:16.607Z</time>
      </trkpt>
      <trkpt lat="44.81558" lon="4.26876">
        <ele>1375.19</ele>
        <time>2022-10-13T07:47:25.946Z</time>
      </trkpt>
      <trkpt lat="44.81568" lon="4.26866">
        <ele>1375.06</ele>
        <time>2022-10-13T07:47:35.904Z</time>
      </trkpt>
      <trkpt lat="44.81578" lon="4.2685">
        <ele>1375.02</ele>
        <time>2022-10-13T07:47:45.944Z</time>
      </trkpt>
      <trkpt lat="44.81585" lon="4.26835">
        <ele>1375.03</ele>
        <time>2022-10-13T07:47:55.325Z</time>
      </trkpt>
      <trkpt lat="44.8159" lon="4.2682">
        <ele>1375.07</ele>
        <time>2022-10-13T07:48:04.343Z</time>
      </trkpt>
      <trkpt lat="44.81593" lon="4.26803">
        <ele>1375.14</ele>
        <time>2022-10-13T07:48:13.924Z</time>
      </trkpt>
      <trkpt lat="44.81592" lon="4.26785">
        <ele>1374.96</ele>
        <time>2022-10-13T07:48:22.999Z</time>
      </trkpt>
      <trkpt lat="44.81591" lon="4.26769">
        <ele>1374.49</ele>
        <time>2022-10-13T07:48:32.374Z</time>
      </trkpt>
      <trkpt lat="44.81591" lon="4.2675">
        <ele>1373.99</ele>
        <time>2022-10-13T07:48:41.830Z</time>
      </trkpt>
      <trkpt lat="44.8159" lon="4.26733">
        <ele>1373.22</ele>
        <time>2022-10-13T07:48:51.290Z</time>
      </trkpt>
      <trkpt lat="44.8159" lon="4.26714">
        <ele>1372.36</ele>
        <time>2022-10-13T07:49:00.889Z</time>
      </trkpt>
      <trkpt lat="44.8159" lon="4.26697">
        <ele>1371.39</ele>
        <time>2022-10-13T07:49:10.391Z</time>
      </trkpt>
      <trkpt lat="44.81587" lon="4.26681">
        <ele>1370.21</ele>
        <time>2022-10-13T07:49:19.948Z</time>
      </trkpt>
      <trkpt lat="44.81588" lon="4.26665">
        <ele>1369.45</ele>
        <time>2022-10-13T07:49:29.966Z</time>
      </trkpt>
      <trkpt lat="44.81585" lon="4.26648">
        <ele>1368.26</ele>
        <time>2022-10-13T07:49:39.046Z</time>
      </trkpt>
      <trkpt lat="44.81587" lon="4.26634">
        <ele>1367.63</ele>
        <time>2022-10-13T07:49:50.143Z</time>
      </trkpt>
      <trkpt lat="44.81586" lon="4.26614">
        <ele>1366.44</ele>
        <time>2022-10-13T07:49:59.999Z</time>
      </trkpt>
      <trkpt lat="44.81585" lon="4.26597">
        <ele>1365.57</ele>
        <time>2022-10-13T07:50:09.430Z</time>
      </trkpt>
      <trkpt lat="44.81586" lon="4.26578">
        <ele>1364.93</ele>
        <time>2022-10-13T07:50:18.970Z</time>
      </trkpt>
      <trkpt lat="44.81582" lon="4.26561">
        <ele>1364.36</ele>
        <time>2022-10-13T07:50:28.390Z</time>
      </trkpt>
      <trkpt lat="44.81576" lon="4.26549">
        <ele>1363.93</ele>
        <time>2022-10-13T07:50:37.929Z</time>
      </trkpt>
      <trkpt lat="44.81568" lon="4.26536">
        <ele>1363.53</ele>
        <time>2022-10-13T07:50:46.999Z</time>
      </trkpt>
      <trkpt lat="44.81567" lon="4.26524">
        <ele>1363.51</ele>
        <time>2022-10-13T07:51:00.746Z</time>
      </trkpt>
      <trkpt lat="44.81565" lon="4.26508">
        <ele>1363.68</ele>
        <time>2022-10-13T07:51:10.066Z</time>
      </trkpt>
      <trkpt lat="44.81556" lon="4.26496">
        <ele>1363.7</ele>
        <time>2022-10-13T07:51:19.483Z</time>
      </trkpt>
      <trkpt lat="44.81548" lon="4.26483">
        <ele>1364</ele>
        <time>2022-10-13T07:51:28.999Z</time>
      </trkpt>
      <trkpt lat="44.81538" lon="4.26473">
        <ele>1364.11</ele>
        <time>2022-10-13T07:51:38.325Z</time>
      </trkpt>
      <trkpt lat="44.81529" lon="4.26462">
        <ele>1364.37</ele>
        <time>2022-10-13T07:51:47.623Z</time>
      </trkpt>
      <trkpt lat="44.81519" lon="4.26453">
        <ele>1364.52</ele>
        <time>2022-10-13T07:51:56.832Z</time>
      </trkpt>
      <trkpt lat="44.8151" lon="4.26444">
        <ele>1364.81</ele>
        <time>2022-10-13T07:52:05.852Z</time>
      </trkpt>
      <trkpt lat="44.81503" lon="4.26432">
        <ele>1365.4</ele>
        <time>2022-10-13T07:52:14.931Z</time>
      </trkpt>
      <trkpt lat="44.81496" lon="4.26421">
        <ele>1366.04</ele>
        <time>2022-10-13T07:52:23.990Z</time>
      </trkpt>
      <trkpt lat="44.8149" lon="4.26409">
        <ele>1366.66</ele>
        <time>2022-10-13T07:52:33.248Z</time>
      </trkpt>
      <trkpt lat="44.81483" lon="4.26398">
        <ele>1367.1</ele>
        <time>2022-10-13T07:52:42.546Z</time>
      </trkpt>
      <trkpt lat="44.81477" lon="4.26387">
        <ele>1367.68</ele>
        <time>2022-10-13T07:52:51.685Z</time>
      </trkpt>
      <trkpt lat="44.81468" lon="4.26379">
        <ele>1367.35</ele>
        <time>2022-10-13T07:53:00.786Z</time>
      </trkpt>
      <trkpt lat="44.81465" lon="4.26364">
        <ele>1368.93</ele>
        <time>2022-10-13T07:53:09.843Z</time>
      </trkpt>
      <trkpt lat="44.81458" lon="4.2635">
        <ele>1369.51</ele>
        <time>2022-10-13T07:53:18.866Z</time>
      </trkpt>
      <trkpt lat="44.81453" lon="4.26336">
        <ele>1370.1</ele>
        <time>2022-10-13T07:53:28.042Z</time>
      </trkpt>
      <trkpt lat="44.81454" lon="4.26317">
        <ele>1371.44</ele>
        <time>2022-10-13T07:53:37.289Z</time>
      </trkpt>
      <trkpt lat="44.81454" lon="4.26299">
        <ele>1371.91</ele>
        <time>2022-10-13T07:53:47.053Z</time>
      </trkpt>
      <trkpt lat="44.8146" lon="4.26282">
        <ele>1372.89</ele>
        <time>2022-10-13T07:53:56.449Z</time>
      </trkpt>
      <trkpt lat="44.81467" lon="4.26266">
        <ele>1373.7</ele>
        <time>2022-10-13T07:54:05.848Z</time>
      </trkpt>
      <trkpt lat="44.81475" lon="4.26255">
        <ele>1374.75</ele>
        <time>2022-10-13T07:54:15.130Z</time>
      </trkpt>
      <trkpt lat="44.81482" lon="4.2624">
        <ele>1375.16</ele>
        <time>2022-10-13T07:54:24.247Z</time>
      </trkpt>
      <trkpt lat="44.81486" lon="4.26225">
        <ele>1374.88</ele>
        <time>2022-10-13T07:54:33.346Z</time>
      </trkpt>
      <trkpt lat="44.81492" lon="4.26211">
        <ele>1374.42</ele>
        <time>2022-10-13T07:54:43.204Z</time>
      </trkpt>
      <trkpt lat="44.81499" lon="4.26195">
        <ele>1373.87</ele>
        <time>2022-10-13T07:54:53.173Z</time>
      </trkpt>
      <trkpt lat="44.81505" lon="4.26179">
        <ele>1373.38</ele>
        <time>2022-10-13T07:55:02.629Z</time>
      </trkpt>
      <trkpt lat="44.81514" lon="4.26166">
        <ele>1373.98</ele>
        <time>2022-10-13T07:55:11.868Z</time>
      </trkpt>
      <trkpt lat="44.81523" lon="4.26155">
        <ele>1374.85</ele>
        <time>2022-10-13T07:55:21.279Z</time>
      </trkpt>
      <trkpt lat="44.81532" lon="4.26144">
        <ele>1375.82</ele>
        <time>2022-10-13T07:55:31.047Z</time>
      </trkpt>
      <trkpt lat="44.81539" lon="4.26133">
        <ele>1376.58</ele>
        <time>2022-10-13T07:55:40.207Z</time>
      </trkpt>
      <trkpt lat="44.81546" lon="4.26124">
        <ele>1377.44</ele>
        <time>2022-10-13T07:55:49.225Z</time>
      </trkpt>
      <trkpt lat="44.81554" lon="4.26121">
        <ele>1378.73</ele>
        <time>2022-10-13T07:55:58.363Z</time>
      </trkpt>
      <trkpt lat="44.81564" lon="4.2612">
        <ele>1380.2</ele>
        <time>2022-10-13T07:56:08.770Z</time>
      </trkpt>
      <trkpt lat="44.81573" lon="4.26123">
        <ele>1381.71</ele>
        <time>2022-10-13T07:56:20.912Z</time>
      </trkpt>
      <trkpt lat="44.8158" lon="4.26115">
        <ele>1382.69</ele>
        <time>2022-10-13T07:56:31.529Z</time>
      </trkpt>
      <trkpt lat="44.81586" lon="4.26098">
        <ele>1383.46</ele>
        <time>2022-10-13T07:56:40.990Z</time>
      </trkpt>
      <trkpt lat="44.81591" lon="4.26082">
        <ele>1384.44</ele>
        <time>2022-10-13T07:56:50.370Z</time>
      </trkpt>
      <trkpt lat="44.81596" lon="4.26067">
        <ele>1385.79</ele>
        <time>2022-10-13T07:56:59.909Z</time>
      </trkpt>
      <trkpt lat="44.81603" lon="4.26056">
        <ele>1387.46</ele>
        <time>2022-10-13T07:57:08.969Z</time>
      </trkpt>
      <trkpt lat="44.8161" lon="4.26042">
        <ele>1389.23</ele>
        <time>2022-10-13T07:57:18.389Z</time>
      </trkpt>
      <trkpt lat="44.81615" lon="4.26027">
        <ele>1390.63</ele>
        <time>2022-10-13T07:57:27.409Z</time>
      </trkpt>
      <trkpt lat="44.81621" lon="4.26014">
        <ele>1392.19</ele>
        <time>2022-10-13T07:57:36.794Z</time>
      </trkpt>
      <trkpt lat="44.81625" lon="4.25997">
        <ele>1392.87</ele>
        <time>2022-10-13T07:57:46.344Z</time>
      </trkpt>
      <trkpt lat="44.81627" lon="4.2598">
        <ele>1393.15</ele>
        <time>2022-10-13T07:57:55.350Z</time>
      </trkpt>
      <trkpt lat="44.81626" lon="4.25964">
        <ele>1392.76</ele>
        <time>2022-10-13T07:58:04.391Z</time>
      </trkpt>
      <trkpt lat="44.81626" lon="4.25947">
        <ele>1392.44</ele>
        <time>2022-10-13T07:58:13.909Z</time>
      </trkpt>
      <trkpt lat="44.81633" lon="4.2593">
        <ele>1393.28</ele>
        <time>2022-10-13T07:58:23.949Z</time>
      </trkpt>
      <trkpt lat="44.81639" lon="4.25912">
        <ele>1393.71</ele>
        <time>2022-10-13T07:58:34.066Z</time>
      </trkpt>
      <trkpt lat="44.81646" lon="4.25895">
        <ele>1394.11</ele>
        <time>2022-10-13T07:58:44.086Z</time>
      </trkpt>
      <trkpt lat="44.81652" lon="4.2588">
        <ele>1394.15</ele>
        <time>2022-10-13T07:58:53.233Z</time>
      </trkpt>
      <trkpt lat="44.81658" lon="4.25864">
        <ele>1394.02</ele>
        <time>2022-10-13T07:59:02.792Z</time>
      </trkpt>
      <trkpt lat="44.81665" lon="4.25849">
        <ele>1394.02</ele>
        <time>2022-10-13T07:59:12.350Z</time>
      </trkpt>
      <trkpt lat="44.8167" lon="4.25831">
        <ele>1393.44</ele>
        <time>2022-10-13T07:59:21.890Z</time>
      </trkpt>
      <trkpt lat="44.81676" lon="4.25815">
        <ele>1393.23</ele>
        <time>2022-10-13T07:59:31.228Z</time>
      </trkpt>
      <trkpt lat="44.81682" lon="4.25796">
        <ele>1392.7</ele>
        <time>2022-10-13T07:59:41.128Z</time>
      </trkpt>
      <trkpt lat="44.81689" lon="4.25783">
        <ele>1392.74</ele>
        <time>2022-10-13T07:59:50.146Z</time>
      </trkpt>
      <trkpt lat="44.81695" lon="4.25769">
        <ele>1392.38</ele>
        <time>2022-10-13T07:59:59.683Z</time>
      </trkpt>
      <trkpt lat="44.81701" lon="4.25753">
        <ele>1392.09</ele>
        <time>2022-10-13T08:00:09.265Z</time>
      </trkpt>
      <trkpt lat="44.81707" lon="4.25737">
        <ele>1391.63</ele>
        <time>2022-10-13T08:00:18.792Z</time>
      </trkpt>
      <trkpt lat="44.81713" lon="4.2572">
        <ele>1391.04</ele>
        <time>2022-10-13T08:00:28.409Z</time>
      </trkpt>
      <trkpt lat="44.8172" lon="4.25704">
        <ele>1390.93</ele>
        <time>2022-10-13T08:00:37.869Z</time>
      </trkpt>
      <trkpt lat="44.81728" lon="4.25689">
        <ele>1391.16</ele>
        <time>2022-10-13T08:00:47.049Z</time>
      </trkpt>
      <trkpt lat="44.81735" lon="4.25676">
        <ele>1391.67</ele>
        <time>2022-10-13T08:00:57.000Z</time>
      </trkpt>
      <trkpt lat="44.81741" lon="4.2566">
        <ele>1391.81</ele>
        <time>2022-10-13T08:01:07.089Z</time>
      </trkpt>
      <trkpt lat="44.81744" lon="4.25645">
        <ele>1391.6</ele>
        <time>2022-10-13T08:01:16.187Z</time>
      </trkpt>
      <trkpt lat="44.81746" lon="4.25627">
        <ele>1391.28</ele>
        <time>2022-10-13T08:01:25.247Z</time>
      </trkpt>
      <trkpt lat="44.81748" lon="4.2561">
        <ele>1391.11</ele>
        <time>2022-10-13T08:01:35.205Z</time>
      </trkpt>
      <trkpt lat="44.81753" lon="4.25596">
        <ele>1391.91</ele>
        <time>2022-10-13T08:01:44.286Z</time>
      </trkpt>
      <trkpt lat="44.81757" lon="4.25578">
        <ele>1392.66</ele>
        <time>2022-10-13T08:01:53.802Z</time>
      </trkpt>
      <trkpt lat="44.81757" lon="4.25561">
        <ele>1392.5</ele>
        <time>2022-10-13T08:02:02.810Z</time>
      </trkpt>
      <trkpt lat="44.8176" lon="4.25547">
        <ele>1393.23</ele>
        <time>2022-10-13T08:02:11.850Z</time>
      </trkpt>
      <trkpt lat="44.81764" lon="4.25532">
        <ele>1394.35</ele>
        <time>2022-10-13T08:02:20.910Z</time>
      </trkpt>
      <trkpt lat="44.81767" lon="4.25514">
        <ele>1395.17</ele>
        <time>2022-10-13T08:02:30.887Z</time>
      </trkpt>
      <trkpt lat="44.81769" lon="4.25497">
        <ele>1396.08</ele>
        <time>2022-10-13T08:02:40.308Z</time>
      </trkpt>
      <trkpt lat="44.81772" lon="4.25484">
        <ele>1397.34</ele>
        <time>2022-10-13T08:02:49.385Z</time>
      </trkpt>
      <trkpt lat="44.81772" lon="4.25466">
        <ele>1397.71</ele>
        <time>2022-10-13T08:02:58.705Z</time>
      </trkpt>
      <trkpt lat="44.81771" lon="4.25449">
        <ele>1398.28</ele>
        <time>2022-10-13T08:03:07.965Z</time>
      </trkpt>
      <trkpt lat="44.81773" lon="4.25433">
        <ele>1399.18</ele>
        <time>2022-10-13T08:03:17.004Z</time>
      </trkpt>
      <trkpt lat="44.81772" lon="4.25419">
        <ele>1399.39</ele>
        <time>2022-10-13T08:03:26.023Z</time>
      </trkpt>
      <trkpt lat="44.81773" lon="4.25403">
        <ele>1400.1</ele>
        <time>2022-10-13T08:03:35.311Z</time>
      </trkpt>
      <trkpt lat="44.81771" lon="4.25387">
        <ele>1399.71</ele>
        <time>2022-10-13T08:03:44.510Z</time>
      </trkpt>
      <trkpt lat="44.81773" lon="4.25373">
        <ele>1400.54</ele>
        <time>2022-10-13T08:03:54.075Z</time>
      </trkpt>
      <trkpt lat="44.81778" lon="4.2536">
        <ele>1401.75</ele>
        <time>2022-10-13T08:04:03.590Z</time>
      </trkpt>
      <trkpt lat="44.81773" lon="4.25348">
        <ele>1400.79</ele>
        <time>2022-10-13T08:04:12.672Z</time>
      </trkpt>
      <trkpt lat="44.81769" lon="4.25333">
        <ele>1400.29</ele>
        <time>2022-10-13T08:04:22.088Z</time>
      </trkpt>
      <trkpt lat="44.81773" lon="4.25312">
        <ele>1402</ele>
        <time>2022-10-13T08:04:31.290Z</time>
      </trkpt>
      <trkpt lat="44.8177" lon="4.25293">
        <ele>1402.06</ele>
        <time>2022-10-13T08:04:40.776Z</time>
      </trkpt>
      <trkpt lat="44.81768" lon="4.25277">
        <ele>1402.42</ele>
        <time>2022-10-13T08:04:49.986Z</time>
      </trkpt>
      <trkpt lat="44.81766" lon="4.25259">
        <ele>1402.96</ele>
        <time>2022-10-13T08:05:00.004Z</time>
      </trkpt>
      <trkpt lat="44.81764" lon="4.25242">
        <ele>1403.36</ele>
        <time>2022-10-13T08:05:09.383Z</time>
      </trkpt>
      <trkpt lat="44.81765" lon="4.25223">
        <ele>1404.91</ele>
        <time>2022-10-13T08:05:18.932Z</time>
      </trkpt>
      <trkpt lat="44.81761" lon="4.25205">
        <ele>1405.37</ele>
        <time>2022-10-13T08:05:28.291Z</time>
      </trkpt>
      <trkpt lat="44.81757" lon="4.25192">
        <ele>1405.73</ele>
        <time>2022-10-13T08:05:37.629Z</time>
      </trkpt>
      <trkpt lat="44.81748" lon="4.25183">
        <ele>1404.46</ele>
        <time>2022-10-13T08:05:46.768Z</time>
      </trkpt>
      <trkpt lat="44.81741" lon="4.25168">
        <ele>1403.9</ele>
        <time>2022-10-13T08:05:56.087Z</time>
      </trkpt>
      <trkpt lat="44.81734" lon="4.25157">
        <ele>1403.04</ele>
        <time>2022-10-13T08:06:05.276Z</time>
      </trkpt>
      <trkpt lat="44.81726" lon="4.25149">
        <ele>1401.83</ele>
        <time>2022-10-13T08:06:14.867Z</time>
      </trkpt>
      <trkpt lat="44.81716" lon="4.25143">
        <ele>1400.02</ele>
        <time>2022-10-13T08:06:24.305Z</time>
      </trkpt>
      <trkpt lat="44.81709" lon="4.25126">
        <ele>1399.86</ele>
        <time>2022-10-13T08:06:33.462Z</time>
      </trkpt>
      <trkpt lat="44.81705" lon="4.25108">
        <ele>1400.56</ele>
        <time>2022-10-13T08:06:43.163Z</time>
      </trkpt>
      <trkpt lat="44.8171" lon="4.25088">
        <ele>1403</ele>
        <time>2022-10-13T08:06:52.449Z</time>
      </trkpt>
      <trkpt lat="44.81717" lon="4.25071">
        <ele>1405.41</ele>
        <time>2022-10-13T08:07:01.868Z</time>
      </trkpt>
      <trkpt lat="44.81722" lon="4.25054">
        <ele>1407.03</ele>
        <time>2022-10-13T08:07:11.368Z</time>
      </trkpt>
      <trkpt lat="44.81723" lon="4.25036">
        <ele>1407.68</ele>
        <time>2022-10-13T08:07:20.688Z</time>
      </trkpt>
      <trkpt lat="44.81724" lon="4.2502">
        <ele>1408.44</ele>
        <time>2022-10-13T08:07:30.065Z</time>
      </trkpt>
      <trkpt lat="44.8173" lon="4.25006">
        <ele>1410.45</ele>
        <time>2022-10-13T08:07:39.425Z</time>
      </trkpt>
      <trkpt lat="44.81737" lon="4.24993">
        <ele>1412.64</ele>
        <time>2022-10-13T08:07:49.166Z</time>
      </trkpt>
      <trkpt lat="44.81742" lon="4.24979">
        <ele>1414.87</ele>
        <time>2022-10-13T08:07:58.345Z</time>
      </trkpt>
      <trkpt lat="44.81746" lon="4.24967">
        <ele>1416.72</ele>
        <time>2022-10-13T08:08:10.999Z</time>
      </trkpt>
      <trkpt lat="44.81736" lon="4.24953">
        <ele>1416.53</ele>
        <time>2022-10-13T08:08:20.145Z</time>
      </trkpt>
      <trkpt lat="44.81729" lon="4.24942">
        <ele>1416.94</ele>
        <time>2022-10-13T08:08:29.943Z</time>
      </trkpt>
      <trkpt lat="44.81724" lon="4.24929">
        <ele>1418.08</ele>
        <time>2022-10-13T08:08:38.944Z</time>
      </trkpt>
      <trkpt lat="44.81722" lon="4.24914">
        <ele>1419.72</ele>
        <time>2022-10-13T08:08:48.173Z</time>
      </trkpt>
      <trkpt lat="44.8171" lon="4.24904">
        <ele>1419.82</ele>
        <time>2022-10-13T08:08:57.971Z</time>
      </trkpt>
      <trkpt lat="44.817" lon="4.249">
        <ele>1419.49</ele>
        <time>2022-10-13T08:09:07.310Z</time>
      </trkpt>
      <trkpt lat="44.81691" lon="4.24893">
        <ele>1419.3</ele>
        <time>2022-10-13T08:09:16.547Z</time>
      </trkpt>
      <trkpt lat="44.81683" lon="4.2488">
        <ele>1419.63</ele>
        <time>2022-10-13T08:09:26.006Z</time>
      </trkpt>
      <trkpt lat="44.8168" lon="4.2486">
        <ele>1420.87</ele>
        <time>2022-10-13T08:09:35.791Z</time>
      </trkpt>
      <trkpt lat="44.81678" lon="4.24842">
        <ele>1421.44</ele>
        <time>2022-10-13T08:09:45.246Z</time>
      </trkpt>
      <trkpt lat="44.81673" lon="4.24824">
        <ele>1421.17</ele>
        <time>2022-10-13T08:09:54.824Z</time>
      </trkpt>
      <trkpt lat="44.8167" lon="4.24808">
        <ele>1420.7</ele>
        <time>2022-10-13T08:10:04.052Z</time>
      </trkpt>
      <trkpt lat="44.81665" lon="4.2479">
        <ele>1419.52</ele>
        <time>2022-10-13T08:10:14.091Z</time>
      </trkpt>
      <trkpt lat="44.8166" lon="4.24771">
        <ele>1418.05</ele>
        <time>2022-10-13T08:10:24.000Z</time>
      </trkpt>
      <trkpt lat="44.81656" lon="4.24755">
        <ele>1416.77</ele>
        <time>2022-10-13T08:10:33.273Z</time>
      </trkpt>
      <trkpt lat="44.81653" lon="4.24736">
        <ele>1415.72</ele>
        <time>2022-10-13T08:10:42.771Z</time>
      </trkpt>
      <trkpt lat="44.8165" lon="4.24722">
        <ele>1414.72</ele>
        <time>2022-10-13T08:10:51.968Z</time>
      </trkpt>
      <trkpt lat="44.81645" lon="4.2471">
        <ele>1413.66</ele>
        <time>2022-10-13T08:11:01.965Z</time>
      </trkpt>
      <trkpt lat="44.81638" lon="4.24696">
        <ele>1412.61</ele>
        <time>2022-10-13T08:11:11.946Z</time>
      </trkpt>
      <trkpt lat="44.81629" lon="4.24685">
        <ele>1411.93</ele>
        <time>2022-10-13T08:11:20.984Z</time>
      </trkpt>
      <trkpt lat="44.8162" lon="4.24681">
        <ele>1411.5</ele>
        <time>2022-10-13T08:11:31.000Z</time>
      </trkpt>
      <trkpt lat="44.8163" lon="4.24683">
        <ele>1411.94</ele>
        <time>2022-10-13T08:13:06.285Z</time>
      </trkpt>
      <trkpt lat="44.81634" lon="4.24671">
        <ele>1411.85</ele>
        <time>2022-10-13T08:13:15.484Z</time>
      </trkpt>
      <trkpt lat="44.81644" lon="4.24665">
        <ele>1411.74</ele>
        <time>2022-10-13T08:13:29.851Z</time>
      </trkpt>
      <trkpt lat="44.81649" lon="4.24649">
        <ele>1411.07</ele>
        <time>2022-10-13T08:13:39.031Z</time>
      </trkpt>
      <trkpt lat="44.81656" lon="4.24635">
        <ele>1410.13</ele>
        <time>2022-10-13T08:13:48.783Z</time>
      </trkpt>
      <trkpt lat="44.81663" lon="4.24624">
        <ele>1409.16</ele>
        <time>2022-10-13T08:13:57.870Z</time>
      </trkpt>
      <trkpt lat="44.81669" lon="4.24609">
        <ele>1407.78</ele>
        <time>2022-10-13T08:14:07.069Z</time>
      </trkpt>
      <trkpt lat="44.81673" lon="4.24594">
        <ele>1406.29</ele>
        <time>2022-10-13T08:14:16.706Z</time>
      </trkpt>
      <trkpt lat="44.81681" lon="4.24582">
        <ele>1404.65</ele>
        <time>2022-10-13T08:14:25.785Z</time>
      </trkpt>
      <trkpt lat="44.81689" lon="4.24573">
        <ele>1403.07</ele>
        <time>2022-10-13T08:14:35.006Z</time>
      </trkpt>
      <trkpt lat="44.81697" lon="4.24559">
        <ele>1400.82</ele>
        <time>2022-10-13T08:14:45.000Z</time>
      </trkpt>
      <trkpt lat="44.81704" lon="4.24546">
        <ele>1398.69</ele>
        <time>2022-10-13T08:14:54.902Z</time>
      </trkpt>
      <trkpt lat="44.81709" lon="4.24529">
        <ele>1396.54</ele>
        <time>2022-10-13T08:15:03.962Z</time>
      </trkpt>
      <trkpt lat="44.81717" lon="4.24521">
        <ele>1394.71</ele>
        <time>2022-10-13T08:15:13.074Z</time>
      </trkpt>
      <trkpt lat="44.81725" lon="4.24514">
        <ele>1393.02</ele>
        <time>2022-10-13T08:15:23.000Z</time>
      </trkpt>
      <trkpt lat="44.81729" lon="4.24502">
        <ele>1391.32</ele>
        <time>2022-10-13T08:15:37.330Z</time>
      </trkpt>
      <trkpt lat="44.81731" lon="4.24488">
        <ele>1389.71</ele>
        <time>2022-10-13T08:15:47.031Z</time>
      </trkpt>
      <trkpt lat="44.81735" lon="4.24475">
        <ele>1388.15</ele>
        <time>2022-10-13T08:15:57.429Z</time>
      </trkpt>
      <trkpt lat="44.81739" lon="4.24463">
        <ele>1386.57</ele>
        <time>2022-10-13T08:16:07.129Z</time>
      </trkpt>
      <trkpt lat="44.81741" lon="4.24447">
        <ele>1385.02</ele>
        <time>2022-10-13T08:16:16.326Z</time>
      </trkpt>
      <trkpt lat="44.8174" lon="4.24429">
        <ele>1383.68</ele>
        <time>2022-10-13T08:16:26.271Z</time>
      </trkpt>
      <trkpt lat="44.8174" lon="4.24411">
        <ele>1382.4</ele>
        <time>2022-10-13T08:16:35.363Z</time>
      </trkpt>
      <trkpt lat="44.81737" lon="4.24395">
        <ele>1381.48</ele>
        <time>2022-10-13T08:16:44.790Z</time>
      </trkpt>
      <trkpt lat="44.81734" lon="4.24383">
        <ele>1380.8</ele>
        <time>2022-10-13T08:16:54.000Z</time>
      </trkpt>
      <trkpt lat="44.81743" lon="4.2438">
        <ele>1380.05</ele>
        <time>2022-10-13T08:17:05.291Z</time>
      </trkpt>
      <trkpt lat="44.81756" lon="4.24379">
        <ele>1379.32</ele>
        <time>2022-10-13T08:17:14.930Z</time>
      </trkpt>
      <trkpt lat="44.81768" lon="4.24377">
        <ele>1378.67</ele>
        <time>2022-10-13T08:17:24.528Z</time>
      </trkpt>
      <trkpt lat="44.81777" lon="4.24374">
        <ele>1378.19</ele>
        <time>2022-10-13T08:17:33.669Z</time>
      </trkpt>
      <trkpt lat="44.81788" lon="4.24371">
        <ele>1377.68</ele>
        <time>2022-10-13T08:17:42.928Z</time>
      </trkpt>
      <trkpt lat="44.81797" lon="4.24374">
        <ele>1377.49</ele>
        <time>2022-10-13T08:17:52.327Z</time>
      </trkpt>
      <trkpt lat="44.81806" lon="4.2438">
        <ele>1377.46</ele>
        <time>2022-10-13T08:18:01.406Z</time>
      </trkpt>
      <trkpt lat="44.81812" lon="4.24392">
        <ele>1377.67</ele>
        <time>2022-10-13T08:18:10.434Z</time>
      </trkpt>
      <trkpt lat="44.81816" lon="4.24398">
        <ele>1377.79</ele>
        <time>2022-10-13T08:18:21.999Z</time>
      </trkpt>
      <trkpt lat="44.81815" lon="4.24379">
        <ele>1377.07</ele>
        <time>2022-10-13T08:44:02.329Z</time>
      </trkpt>
      <trkpt lat="44.81822" lon="4.24362">
        <ele>1376.32</ele>
        <time>2022-10-13T08:44:11.638Z</time>
      </trkpt>
      <trkpt lat="44.8183" lon="4.24351">
        <ele>1375.72</ele>
        <time>2022-10-13T08:44:21.028Z</time>
      </trkpt>
      <trkpt lat="44.81839" lon="4.24342">
        <ele>1375.08</ele>
        <time>2022-10-13T08:44:30.745Z</time>
      </trkpt>
      <trkpt lat="44.81848" lon="4.2433">
        <ele>1374.3</ele>
        <time>2022-10-13T08:44:40.744Z</time>
      </trkpt>
      <trkpt lat="44.81856" lon="4.24319">
        <ele>1373.56</ele>
        <time>2022-10-13T08:44:50.021Z</time>
      </trkpt>
      <trkpt lat="44.81867" lon="4.24314">
        <ele>1372.79</ele>
        <time>2022-10-13T08:44:59.760Z</time>
      </trkpt>
      <trkpt lat="44.81875" lon="4.24303">
        <ele>1371.93</ele>
        <time>2022-10-13T08:45:08.819Z</time>
      </trkpt>
      <trkpt lat="44.81881" lon="4.2429">
        <ele>1371.09</ele>
        <time>2022-10-13T08:45:17.918Z</time>
      </trkpt>
      <trkpt lat="44.81887" lon="4.24275">
        <ele>1370.19</ele>
        <time>2022-10-13T08:45:27.907Z</time>
      </trkpt>
      <trkpt lat="44.81893" lon="4.24263">
        <ele>1369.41</ele>
        <time>2022-10-13T08:45:37.013Z</time>
      </trkpt>
      <trkpt lat="44.819" lon="4.24248">
        <ele>1368.8</ele>
        <time>2022-10-13T08:45:46.066Z</time>
      </trkpt>
      <trkpt lat="44.819" lon="4.24233">
        <ele>1368.79</ele>
        <time>2022-10-13T08:45:55.324Z</time>
      </trkpt>
      <trkpt lat="44.81893" lon="4.24222">
        <ele>1369.21</ele>
        <time>2022-10-13T08:46:04.442Z</time>
      </trkpt>
      <trkpt lat="44.81902" lon="4.24208">
        <ele>1369.24</ele>
        <time>2022-10-13T08:46:13.465Z</time>
      </trkpt>
      <trkpt lat="44.81907" lon="4.24193">
        <ele>1369.56</ele>
        <time>2022-10-13T08:46:23.007Z</time>
      </trkpt>
      <trkpt lat="44.81914" lon="4.24177">
        <ele>1369.89</ele>
        <time>2022-10-13T08:46:32.939Z</time>
      </trkpt>
      <trkpt lat="44.81921" lon="4.24164">
        <ele>1370.06</ele>
        <time>2022-10-13T08:46:42.147Z</time>
      </trkpt>
      <trkpt lat="44.81929" lon="4.24152">
        <ele>1370.14</ele>
        <time>2022-10-13T08:46:51.747Z</time>
      </trkpt>
      <trkpt lat="44.81938" lon="4.24141">
        <ele>1370.2</ele>
        <time>2022-10-13T08:47:00.807Z</time>
      </trkpt>
      <trkpt lat="44.81947" lon="4.24131">
        <ele>1370.3</ele>
        <time>2022-10-13T08:47:09.907Z</time>
      </trkpt>
      <trkpt lat="44.81956" lon="4.24121">
        <ele>1370.37</ele>
        <time>2022-10-13T08:47:19.003Z</time>
      </trkpt>
      <trkpt lat="44.81965" lon="4.2411">
        <ele>1370.41</ele>
        <time>2022-10-13T08:47:28.043Z</time>
      </trkpt>
      <trkpt lat="44.81976" lon="4.24101">
        <ele>1370.58</ele>
        <time>2022-10-13T08:47:37.582Z</time>
      </trkpt>
      <trkpt lat="44.81987" lon="4.24093">
        <ele>1370.77</ele>
        <time>2022-10-13T08:47:47.103Z</time>
      </trkpt>
      <trkpt lat="44.81996" lon="4.24083">
        <ele>1370.92</ele>
        <time>2022-10-13T08:47:56.621Z</time>
      </trkpt>
      <trkpt lat="44.82006" lon="4.24072">
        <ele>1371.12</ele>
        <time>2022-10-13T08:48:06.029Z</time>
      </trkpt>
      <trkpt lat="44.82015" lon="4.2406">
        <ele>1371.34</ele>
        <time>2022-10-13T08:48:15.407Z</time>
      </trkpt>
      <trkpt lat="44.82026" lon="4.24048">
        <ele>1371.6</ele>
        <time>2022-10-13T08:48:24.726Z</time>
      </trkpt>
      <trkpt lat="44.82035" lon="4.24035">
        <ele>1371.89</ele>
        <time>2022-10-13T08:48:34.063Z</time>
      </trkpt>
      <trkpt lat="44.82045" lon="4.24022">
        <ele>1372.17</ele>
        <time>2022-10-13T08:48:43.502Z</time>
      </trkpt>
      <trkpt lat="44.82054" lon="4.24011">
        <ele>1372.46</ele>
        <time>2022-10-13T08:48:53.011Z</time>
      </trkpt>
      <trkpt lat="44.82063" lon="4.23998">
        <ele>1372.75</ele>
        <time>2022-10-13T08:49:02.919Z</time>
      </trkpt>
      <trkpt lat="44.82073" lon="4.23985">
        <ele>1373.07</ele>
        <time>2022-10-13T08:49:12.918Z</time>
      </trkpt>
      <trkpt lat="44.82083" lon="4.23972">
        <ele>1373.43</ele>
        <time>2022-10-13T08:49:22.309Z</time>
      </trkpt>
      <trkpt lat="44.8209" lon="4.23959">
        <ele>1373.78</ele>
        <time>2022-10-13T08:49:31.869Z</time>
      </trkpt>
      <trkpt lat="44.82098" lon="4.23945">
        <ele>1374.16</ele>
        <time>2022-10-13T08:49:41.244Z</time>
      </trkpt>
      <trkpt lat="44.82106" lon="4.23932">
        <ele>1374.55</ele>
        <time>2022-10-13T08:49:50.724Z</time>
      </trkpt>
      <trkpt lat="44.82114" lon="4.23916">
        <ele>1375</ele>
        <time>2022-10-13T08:50:00.641Z</time>
      </trkpt>
      <trkpt lat="44.82123" lon="4.23902">
        <ele>1375.42</ele>
        <time>2022-10-13T08:50:10.642Z</time>
      </trkpt>
      <trkpt lat="44.8213" lon="4.23887">
        <ele>1375.85</ele>
        <time>2022-10-13T08:50:20.020Z</time>
      </trkpt>
      <trkpt lat="44.82138" lon="4.23872">
        <ele>1376.3</ele>
        <time>2022-10-13T08:50:29.519Z</time>
      </trkpt>
      <trkpt lat="44.82146" lon="4.23858">
        <ele>1376.82</ele>
        <time>2022-10-13T08:50:39.964Z</time>
      </trkpt>
      <trkpt lat="44.82154" lon="4.23843">
        <ele>1377.36</ele>
        <time>2022-10-13T08:50:48.999Z</time>
      </trkpt>
      <trkpt lat="44.8216" lon="4.23827">
        <ele>1377.83</ele>
        <time>2022-10-13T08:50:58.706Z</time>
      </trkpt>
      <trkpt lat="44.82166" lon="4.23813">
        <ele>1378.25</ele>
        <time>2022-10-13T08:51:07.865Z</time>
      </trkpt>
      <trkpt lat="44.82173" lon="4.238">
        <ele>1378.69</ele>
        <time>2022-10-13T08:51:17.102Z</time>
      </trkpt>
      <trkpt lat="44.82178" lon="4.23784">
        <ele>1379.06</ele>
        <time>2022-10-13T08:51:26.641Z</time>
      </trkpt>
      <trkpt lat="44.82183" lon="4.23769">
        <ele>1379.49</ele>
        <time>2022-10-13T08:51:35.662Z</time>
      </trkpt>
      <trkpt lat="44.82188" lon="4.23754">
        <ele>1379.96</ele>
        <time>2022-10-13T08:51:44.806Z</time>
      </trkpt>
      <trkpt lat="44.82195" lon="4.23738">
        <ele>1380.62</ele>
        <time>2022-10-13T08:51:54.340Z</time>
      </trkpt>
      <trkpt lat="44.822" lon="4.23722">
        <ele>1381.29</ele>
        <time>2022-10-13T08:52:03.480Z</time>
      </trkpt>
      <trkpt lat="44.82204" lon="4.23706">
        <ele>1381.93</ele>
        <time>2022-10-13T08:52:12.729Z</time>
      </trkpt>
      <trkpt lat="44.82209" lon="4.23691">
        <ele>1382.59</ele>
        <time>2022-10-13T08:52:21.868Z</time>
      </trkpt>
      <trkpt lat="44.82213" lon="4.23675">
        <ele>1383.31</ele>
        <time>2022-10-13T08:52:31.045Z</time>
      </trkpt>
      <trkpt lat="44.82218" lon="4.23658">
        <ele>1384.15</ele>
        <time>2022-10-13T08:52:40.625Z</time>
      </trkpt>
      <trkpt lat="44.82222" lon="4.23643">
        <ele>1384.93</ele>
        <time>2022-10-13T08:52:49.665Z</time>
      </trkpt>
      <trkpt lat="44.82226" lon="4.23626">
        <ele>1385.88</ele>
        <time>2022-10-13T08:52:58.804Z</time>
      </trkpt>
      <trkpt lat="44.82231" lon="4.23611">
        <ele>1386.87</ele>
        <time>2022-10-13T08:53:07.943Z</time>
      </trkpt>
      <trkpt lat="44.82236" lon="4.23596">
        <ele>1387.95</ele>
        <time>2022-10-13T08:53:17.199Z</time>
      </trkpt>
      <trkpt lat="44.8224" lon="4.2358">
        <ele>1389.03</ele>
        <time>2022-10-13T08:53:26.383Z</time>
      </trkpt>
      <trkpt lat="44.82244" lon="4.23564">
        <ele>1390.29</ele>
        <time>2022-10-13T08:53:35.581Z</time>
      </trkpt>
      <trkpt lat="44.82248" lon="4.23549">
        <ele>1391.45</ele>
        <time>2022-10-13T08:53:44.819Z</time>
      </trkpt>
      <trkpt lat="44.82252" lon="4.23533">
        <ele>1392.77</ele>
        <time>2022-10-13T08:53:54.039Z</time>
      </trkpt>
      <trkpt lat="44.82257" lon="4.23518">
        <ele>1394.07</ele>
        <time>2022-10-13T08:54:03.318Z</time>
      </trkpt>
      <trkpt lat="44.82263" lon="4.23503">
        <ele>1395.42</ele>
        <time>2022-10-13T08:54:12.548Z</time>
      </trkpt>
      <trkpt lat="44.82269" lon="4.2349">
        <ele>1396.73</ele>
        <time>2022-10-13T08:54:21.945Z</time>
      </trkpt>
      <trkpt lat="44.82268" lon="4.23475">
        <ele>1397.18</ele>
        <time>2022-10-13T08:54:31.427Z</time>
      </trkpt>
      <trkpt lat="44.82275" lon="4.2346">
        <ele>1398.61</ele>
        <time>2022-10-13T08:54:40.645Z</time>
      </trkpt>
      <trkpt lat="44.82283" lon="4.23446">
        <ele>1400.08</ele>
        <time>2022-10-13T08:54:50.743Z</time>
      </trkpt>
      <trkpt lat="44.82286" lon="4.23433">
        <ele>1400.99</ele>
        <time>2022-10-13T08:54:59.825Z</time>
      </trkpt>
      <trkpt lat="44.82291" lon="4.23418">
        <ele>1402.17</ele>
        <time>2022-10-13T08:55:09.280Z</time>
      </trkpt>
      <trkpt lat="44.82294" lon="4.23402">
        <ele>1403.13</ele>
        <time>2022-10-13T08:55:18.662Z</time>
      </trkpt>
      <trkpt lat="44.82297" lon="4.23386">
        <ele>1404.05</ele>
        <time>2022-10-13T08:55:28.062Z</time>
      </trkpt>
      <trkpt lat="44.82298" lon="4.23369">
        <ele>1404.72</ele>
        <time>2022-10-13T08:55:37.401Z</time>
      </trkpt>
      <trkpt lat="44.82299" lon="4.23353">
        <ele>1405.46</ele>
        <time>2022-10-13T08:55:46.820Z</time>
      </trkpt>
      <trkpt lat="44.82301" lon="4.23335">
        <ele>1406.22</ele>
        <time>2022-10-13T08:55:56.363Z</time>
      </trkpt>
      <trkpt lat="44.82305" lon="4.2332">
        <ele>1407.2</ele>
        <time>2022-10-13T08:56:05.808Z</time>
      </trkpt>
      <trkpt lat="44.82306" lon="4.23302">
        <ele>1407.81</ele>
        <time>2022-10-13T08:56:15.267Z</time>
      </trkpt>
      <trkpt lat="44.82311" lon="4.23287">
        <ele>1408.69</ele>
        <time>2022-10-13T08:56:24.825Z</time>
      </trkpt>
      <trkpt lat="44.82314" lon="4.23271">
        <ele>1409.45</ele>
        <time>2022-10-13T08:56:34.363Z</time>
      </trkpt>
      <trkpt lat="44.82317" lon="4.23256">
        <ele>1410.13</ele>
        <time>2022-10-13T08:56:43.523Z</time>
      </trkpt>
      <trkpt lat="44.82319" lon="4.23241">
        <ele>1410.77</ele>
        <time>2022-10-13T08:56:53.020Z</time>
      </trkpt>
      <trkpt lat="44.82323" lon="4.23225">
        <ele>1411.49</ele>
        <time>2022-10-13T08:57:02.422Z</time>
      </trkpt>
      <trkpt lat="44.82326" lon="4.23208">
        <ele>1412.18</ele>
        <time>2022-10-13T08:57:11.859Z</time>
      </trkpt>
      <trkpt lat="44.82328" lon="4.23192">
        <ele>1412.74</ele>
        <time>2022-10-13T08:57:21.267Z</time>
      </trkpt>
      <trkpt lat="44.82331" lon="4.23175">
        <ele>1413.57</ele>
        <time>2022-10-13T08:57:30.625Z</time>
      </trkpt>
      <trkpt lat="44.82334" lon="4.23159">
        <ele>1414.28</ele>
        <time>2022-10-13T08:57:40.015Z</time>
      </trkpt>
      <trkpt lat="44.82337" lon="4.23142">
        <ele>1415.03</ele>
        <time>2022-10-13T08:57:49.445Z</time>
      </trkpt>
      <trkpt lat="44.82339" lon="4.23126">
        <ele>1415.82</ele>
        <time>2022-10-13T08:57:58.926Z</time>
      </trkpt>
      <trkpt lat="44.82342" lon="4.2311">
        <ele>1416.62</ele>
        <time>2022-10-13T08:58:08.363Z</time>
      </trkpt>
      <trkpt lat="44.82345" lon="4.23093">
        <ele>1417.53</ele>
        <time>2022-10-13T08:58:17.822Z</time>
      </trkpt>
      <trkpt lat="44.82348" lon="4.23076">
        <ele>1418.5</ele>
        <time>2022-10-13T08:58:27.341Z</time>
      </trkpt>
      <trkpt lat="44.82351" lon="4.23062">
        <ele>1419.47</ele>
        <time>2022-10-13T08:58:36.362Z</time>
      </trkpt>
      <trkpt lat="44.82354" lon="4.23046">
        <ele>1420.51</ele>
        <time>2022-10-13T08:58:45.421Z</time>
      </trkpt>
      <trkpt lat="44.82358" lon="4.23031">
        <ele>1421.61</ele>
        <time>2022-10-13T08:58:54.618Z</time>
      </trkpt>
      <trkpt lat="44.82364" lon="4.23017">
        <ele>1422.67</ele>
        <time>2022-10-13T08:59:03.806Z</time>
      </trkpt>
      <trkpt lat="44.8237" lon="4.23004">
        <ele>1423.61</ele>
        <time>2022-10-13T08:59:13.145Z</time>
      </trkpt>
      <trkpt lat="44.82379" lon="4.22996">
        <ele>1424.34</ele>
        <time>2022-10-13T08:59:22.245Z</time>
      </trkpt>
      <trkpt lat="44.82388" lon="4.22984">
        <ele>1425.18</ele>
        <time>2022-10-13T08:59:31.723Z</time>
      </trkpt>
      <trkpt lat="44.82398" lon="4.22973">
        <ele>1425.92</ele>
        <time>2022-10-13T08:59:41.201Z</time>
      </trkpt>
      <trkpt lat="44.82408" lon="4.22963">
        <ele>1426.57</ele>
        <time>2022-10-13T08:59:50.542Z</time>
      </trkpt>
      <trkpt lat="44.82419" lon="4.22954">
        <ele>1427.18</ele>
        <time>2022-10-13T09:00:00.010Z</time>
      </trkpt>
      <trkpt lat="44.8243" lon="4.22948">
        <ele>1427.64</ele>
        <time>2022-10-13T09:00:09.019Z</time>
      </trkpt>
      <trkpt lat="44.82431" lon="4.22935">
        <ele>1427.93</ele>
        <time>2022-10-13T09:00:24.719Z</time>
      </trkpt>
      <trkpt lat="44.82425" lon="4.22923">
        <ele>1428.05</ele>
        <time>2022-10-13T09:00:34.616Z</time>
      </trkpt>
      <trkpt lat="44.82419" lon="4.22912">
        <ele>1428.15</ele>
        <time>2022-10-13T09:00:43.749Z</time>
      </trkpt>
      <trkpt lat="44.82417" lon="4.22896">
        <ele>1428.49</ele>
        <time>2022-10-13T09:00:53.025Z</time>
      </trkpt>
      <trkpt lat="44.82419" lon="4.22881">
        <ele>1428.9</ele>
        <time>2022-10-13T09:01:02.126Z</time>
      </trkpt>
      <trkpt lat="44.82412" lon="4.2287">
        <ele>1429.03</ele>
        <time>2022-10-13T09:01:11.727Z</time>
      </trkpt>
      <trkpt lat="44.82402" lon="4.22867">
        <ele>1428.91</ele>
        <time>2022-10-13T09:01:20.844Z</time>
      </trkpt>
      <trkpt lat="44.8239" lon="4.22862">
        <ele>1428.76</ele>
        <time>2022-10-13T09:01:30.743Z</time>
      </trkpt>
      <trkpt lat="44.82379" lon="4.22855">
        <ele>1428.66</ele>
        <time>2022-10-13T09:01:40.008Z</time>
      </trkpt>
      <trkpt lat="44.82368" lon="4.22849">
        <ele>1428.47</ele>
        <time>2022-10-13T09:01:49.240Z</time>
      </trkpt>
      <trkpt lat="44.82356" lon="4.22844">
        <ele>1428.24</ele>
        <time>2022-10-13T09:01:59.098Z</time>
      </trkpt>
      <trkpt lat="44.82345" lon="4.22835">
        <ele>1428.21</ele>
        <time>2022-10-13T09:02:08.289Z</time>
      </trkpt>
      <trkpt lat="44.82332" lon="4.22829">
        <ele>1428.1</ele>
        <time>2022-10-13T09:02:18.747Z</time>
      </trkpt>
      <trkpt lat="44.82322" lon="4.22824">
        <ele>1428.11</ele>
        <time>2022-10-13T09:02:27.945Z</time>
      </trkpt>
      <trkpt lat="44.82311" lon="4.22815">
        <ele>1428.24</ele>
        <time>2022-10-13T09:02:37.263Z</time>
      </trkpt>
      <trkpt lat="44.823" lon="4.22806">
        <ele>1428.45</ele>
        <time>2022-10-13T09:02:46.526Z</time>
      </trkpt>
      <trkpt lat="44.82291" lon="4.22799">
        <ele>1428.61</ele>
        <time>2022-10-13T09:02:55.662Z</time>
      </trkpt>
      <trkpt lat="44.82278" lon="4.22797">
        <ele>1428.63</ele>
        <time>2022-10-13T09:03:05.181Z</time>
      </trkpt>
      <trkpt lat="44.82267" lon="4.2279">
        <ele>1428.83</ele>
        <time>2022-10-13T09:03:14.459Z</time>
      </trkpt>
      <trkpt lat="44.82256" lon="4.22785">
        <ele>1429.04</ele>
        <time>2022-10-13T09:03:23.758Z</time>
      </trkpt>
      <trkpt lat="44.82245" lon="4.22777">
        <ele>1429.49</ele>
        <time>2022-10-13T09:03:33.147Z</time>
      </trkpt>
      <trkpt lat="44.82236" lon="4.2277">
        <ele>1429.98</ele>
        <time>2022-10-13T09:03:42.547Z</time>
      </trkpt>
      <trkpt lat="44.82222" lon="4.22766">
        <ele>1430.46</ele>
        <time>2022-10-13T09:03:52.566Z</time>
      </trkpt>
      <trkpt lat="44.8221" lon="4.2276">
        <ele>1431.14</ele>
        <time>2022-10-13T09:04:01.885Z</time>
      </trkpt>
      <trkpt lat="44.82199" lon="4.22755">
        <ele>1431.8</ele>
        <time>2022-10-13T09:04:11.262Z</time>
      </trkpt>
      <trkpt lat="44.82188" lon="4.22753">
        <ele>1432.22</ele>
        <time>2022-10-13T09:04:20.662Z</time>
      </trkpt>
      <trkpt lat="44.82175" lon="4.22748">
        <ele>1432.97</ele>
        <time>2022-10-13T09:04:30.061Z</time>
      </trkpt>
      <trkpt lat="44.82165" lon="4.22744">
        <ele>1433.54</ele>
        <time>2022-10-13T09:04:39.680Z</time>
      </trkpt>
      <trkpt lat="44.82155" lon="4.22741">
        <ele>1434.02</ele>
        <time>2022-10-13T09:04:49.131Z</time>
      </trkpt>
      <trkpt lat="44.82145" lon="4.22737">
        <ele>1434.61</ele>
        <time>2022-10-13T09:04:58.648Z</time>
      </trkpt>
      <trkpt lat="44.82133" lon="4.22731">
        <ele>1435.37</ele>
        <time>2022-10-13T09:05:07.787Z</time>
      </trkpt>
      <trkpt lat="44.82121" lon="4.22729">
        <ele>1435.75</ele>
        <time>2022-10-13T09:05:17.305Z</time>
      </trkpt>
      <trkpt lat="44.82111" lon="4.2273">
        <ele>1435.68</ele>
        <time>2022-10-13T09:05:27.023Z</time>
      </trkpt>
      <trkpt lat="44.82102" lon="4.22727">
        <ele>1436.13</ele>
        <time>2022-10-13T09:05:36.122Z</time>
      </trkpt>
      <trkpt lat="44.82092" lon="4.22723">
        <ele>1436.53</ele>
        <time>2022-10-13T09:05:45.822Z</time>
      </trkpt>
      <trkpt lat="44.82081" lon="4.2272">
        <ele>1436.91</ele>
        <time>2022-10-13T09:05:55.861Z</time>
      </trkpt>
      <trkpt lat="44.82071" lon="4.22718">
        <ele>1437.17</ele>
        <time>2022-10-13T09:06:05.461Z</time>
      </trkpt>
      <trkpt lat="44.8206" lon="4.22712">
        <ele>1437.83</ele>
        <time>2022-10-13T09:06:15.077Z</time>
      </trkpt>
      <trkpt lat="44.82049" lon="4.22708">
        <ele>1438.23</ele>
        <time>2022-10-13T09:06:24.507Z</time>
      </trkpt>
      <trkpt lat="44.82037" lon="4.22707">
        <ele>1438.35</ele>
        <time>2022-10-13T09:06:33.826Z</time>
      </trkpt>
      <trkpt lat="44.82025" lon="4.22703">
        <ele>1438.7</ele>
        <time>2022-10-13T09:06:43.104Z</time>
      </trkpt>
      <trkpt lat="44.82013" lon="4.22699">
        <ele>1439.04</ele>
        <time>2022-10-13T09:06:52.403Z</time>
      </trkpt>
      <trkpt lat="44.82001" lon="4.22697">
        <ele>1439.13</ele>
        <time>2022-10-13T09:07:01.761Z</time>
      </trkpt>
      <trkpt lat="44.8199" lon="4.22691">
        <ele>1439.55</ele>
        <time>2022-10-13T09:07:11.240Z</time>
      </trkpt>
      <trkpt lat="44.81979" lon="4.22687">
        <ele>1439.87</ele>
        <time>2022-10-13T09:07:20.461Z</time>
      </trkpt>
      <trkpt lat="44.81967" lon="4.22686">
        <ele>1439.88</ele>
        <time>2022-10-13T09:07:29.841Z</time>
      </trkpt>
      <trkpt lat="44.81955" lon="4.22682">
        <ele>1440.17</ele>
        <time>2022-10-13T09:07:39.859Z</time>
      </trkpt>
      <trkpt lat="44.81942" lon="4.22682">
        <ele>1440.07</ele>
        <time>2022-10-13T09:07:49.408Z</time>
      </trkpt>
      <trkpt lat="44.8193" lon="4.22677">
        <ele>1440.33</ele>
        <time>2022-10-13T09:07:58.767Z</time>
      </trkpt>
      <trkpt lat="44.81919" lon="4.22672">
        <ele>1440.53</ele>
        <time>2022-10-13T09:08:08.087Z</time>
      </trkpt>
      <trkpt lat="44.81907" lon="4.22666">
        <ele>1440.7</ele>
        <time>2022-10-13T09:08:17.725Z</time>
      </trkpt>
      <trkpt lat="44.81896" lon="4.2266">
        <ele>1440.65</ele>
        <time>2022-10-13T09:08:26.886Z</time>
      </trkpt>
      <trkpt lat="44.81885" lon="4.22657">
        <ele>1440.25</ele>
        <time>2022-10-13T09:08:36.284Z</time>
      </trkpt>
      <trkpt lat="44.81873" lon="4.22651">
        <ele>1440.04</ele>
        <time>2022-10-13T09:08:45.445Z</time>
      </trkpt>
      <trkpt lat="44.81861" lon="4.22647">
        <ele>1439.54</ele>
        <time>2022-10-13T09:08:54.781Z</time>
      </trkpt>
      <trkpt lat="44.81851" lon="4.22641">
        <ele>1439.34</ele>
        <time>2022-10-13T09:09:03.842Z</time>
      </trkpt>
      <trkpt lat="44.81842" lon="4.2263">
        <ele>1439.74</ele>
        <time>2022-10-13T09:09:13.643Z</time>
      </trkpt>
      <trkpt lat="44.81831" lon="4.22621">
        <ele>1439.93</ele>
        <time>2022-10-13T09:09:24.122Z</time>
      </trkpt>
      <trkpt lat="44.81819" lon="4.22614">
        <ele>1440.03</ele>
        <time>2022-10-13T09:09:33.361Z</time>
      </trkpt>
      <trkpt lat="44.81808" lon="4.22613">
        <ele>1439.67</ele>
        <time>2022-10-13T09:09:42.900Z</time>
      </trkpt>
      <trkpt lat="44.81798" lon="4.22611">
        <ele>1439.47</ele>
        <time>2022-10-13T09:09:52.165Z</time>
      </trkpt>
      <trkpt lat="44.81789" lon="4.2261">
        <ele>1439.2</ele>
        <time>2022-10-13T09:10:01.881Z</time>
      </trkpt>
      <trkpt lat="44.81779" lon="4.22609">
        <ele>1438.9</ele>
        <time>2022-10-13T09:10:12.719Z</time>
      </trkpt>
      <trkpt lat="44.8177" lon="4.22604">
        <ele>1438.97</ele>
        <time>2022-10-13T09:10:22.727Z</time>
      </trkpt>
      <trkpt lat="44.81762" lon="4.22598">
        <ele>1439.17</ele>
        <time>2022-10-13T09:10:33.727Z</time>
      </trkpt>
      <trkpt lat="44.81752" lon="4.22597">
        <ele>1438.69</ele>
        <time>2022-10-13T09:11:07.643Z</time>
      </trkpt>
      <trkpt lat="44.81762" lon="4.22591">
        <ele>1439.86</ele>
        <time>2022-10-13T09:14:40.000Z</time>
      </trkpt>
      <trkpt lat="44.81766" lon="4.22578">
        <ele>1441.49</ele>
        <time>2022-10-13T09:14:50.000Z</time>
      </trkpt>
      <trkpt lat="44.81767" lon="4.22564">
        <ele>1443.1</ele>
        <time>2022-10-13T09:15:01.882Z</time>
      </trkpt>
      <trkpt lat="44.81767" lon="4.22548">
        <ele>1444.84</ele>
        <time>2022-10-13T09:15:10.997Z</time>
      </trkpt>
      <trkpt lat="44.81767" lon="4.22536">
        <ele>1446.34</ele>
        <time>2022-10-13T09:15:20.681Z</time>
      </trkpt>
      <trkpt lat="44.81758" lon="4.22528">
        <ele>1446.59</ele>
        <time>2022-10-13T09:15:30.998Z</time>
      </trkpt>
      <trkpt lat="44.8175" lon="4.22523">
        <ele>1446.62</ele>
        <time>2022-10-13T09:15:40.439Z</time>
      </trkpt>
      <trkpt lat="44.81745" lon="4.2251">
        <ele>1448.05</ele>
        <time>2022-10-13T09:15:49.829Z</time>
      </trkpt>
      <trkpt lat="44.8174" lon="4.22498">
        <ele>1449.47</ele>
        <time>2022-10-13T09:15:59.647Z</time>
      </trkpt>
      <trkpt lat="44.81734" lon="4.22489">
        <ele>1450.42</ele>
        <time>2022-10-13T09:16:08.806Z</time>
      </trkpt>
      <trkpt lat="44.81727" lon="4.22479">
        <ele>1451.45</ele>
        <time>2022-10-13T09:16:18.043Z</time>
      </trkpt>
      <trkpt lat="44.81722" lon="4.22467">
        <ele>1453.09</ele>
        <time>2022-10-13T09:16:27.692Z</time>
      </trkpt>
      <trkpt lat="44.81717" lon="4.22457">
        <ele>1454.46</ele>
        <time>2022-10-13T09:16:38.802Z</time>
      </trkpt>
      <trkpt lat="44.81714" lon="4.22444">
        <ele>1456.61</ele>
        <time>2022-10-13T09:16:58.100Z</time>
      </trkpt>
      <trkpt lat="44.8171" lon="4.22432">
        <ele>1458.61</ele>
        <time>2022-10-13T09:17:12.030Z</time>
      </trkpt>
      <trkpt lat="44.81707" lon="4.22419">
        <ele>1460.89</ele>
        <time>2022-10-13T09:17:23.007Z</time>
      </trkpt>
      <trkpt lat="44.81708" lon="4.22405">
        <ele>1464.02</ele>
        <time>2022-10-13T09:17:35.882Z</time>
      </trkpt>
      <trkpt lat="44.8171" lon="4.22392">
        <ele>1467.3</ele>
        <time>2022-10-13T09:17:49.562Z</time>
      </trkpt>
      <trkpt lat="44.81708" lon="4.2238">
        <ele>1469.87</ele>
        <time>2022-10-13T09:18:03.860Z</time>
      </trkpt>
      <trkpt lat="44.81708" lon="4.22367">
        <ele>1473.33</ele>
        <time>2022-10-13T09:18:16.537Z</time>
      </trkpt>
      <trkpt lat="44.81712" lon="4.22355">
        <ele>1477.05</ele>
        <time>2022-10-13T09:18:31.927Z</time>
      </trkpt>
      <trkpt lat="44.81715" lon="4.22342">
        <ele>1480.9</ele>
        <time>2022-10-13T09:18:55.464Z</time>
      </trkpt>
      <trkpt lat="44.81721" lon="4.22333">
        <ele>1484.53</ele>
        <time>2022-10-13T09:19:24.122Z</time>
      </trkpt>
      <trkpt lat="44.81727" lon="4.22323">
        <ele>1488.32</ele>
        <time>2022-10-13T09:19:43.700Z</time>
      </trkpt>
      <trkpt lat="44.8173" lon="4.22311">
        <ele>1492.35</ele>
        <time>2022-10-13T09:20:02.117Z</time>
      </trkpt>
      <trkpt lat="44.81738" lon="4.22303">
        <ele>1496.13</ele>
        <time>2022-10-13T09:20:22.059Z</time>
      </trkpt>
      <trkpt lat="44.81747" lon="4.22305">
        <ele>1497.69</ele>
        <time>2022-10-13T09:20:33.727Z</time>
      </trkpt>
      <trkpt lat="44.81756" lon="4.22299">
        <ele>1501.08</ele>
        <time>2022-10-13T09:20:48.999Z</time>
      </trkpt>
      <trkpt lat="44.81764" lon="4.22295">
        <ele>1504.26</ele>
        <time>2022-10-13T09:21:03.924Z</time>
      </trkpt>
      <trkpt lat="44.81773" lon="4.22289">
        <ele>1507.95</ele>
        <time>2022-10-13T09:21:17.999Z</time>
      </trkpt>
      <trkpt lat="44.81778" lon="4.22278">
        <ele>1512.45</ele>
        <time>2022-10-13T09:21:37.081Z</time>
      </trkpt>
      <trkpt lat="44.8178" lon="4.22265">
        <ele>1516.05</ele>
        <time>2022-10-13T09:21:52.100Z</time>
      </trkpt>
      <trkpt lat="44.81781" lon="4.22252">
        <ele>1519.27</ele>
        <time>2022-10-13T09:22:07.065Z</time>
      </trkpt>
      <trkpt lat="44.81786" lon="4.22239">
        <ele>1522.17</ele>
        <time>2022-10-13T09:22:18.925Z</time>
      </trkpt>
      <trkpt lat="44.81794" lon="4.22235">
        <ele>1524.54</ele>
        <time>2022-10-13T09:22:29.142Z</time>
      </trkpt>
      <trkpt lat="44.81803" lon="4.22235">
        <ele>1526.28</ele>
        <time>2022-10-13T09:22:42.744Z</time>
      </trkpt>
      <trkpt lat="44.81812" lon="4.22235">
        <ele>1527.68</ele>
        <time>2022-10-13T09:22:57.702Z</time>
      </trkpt>
      <trkpt lat="44.81822" lon="4.22235">
        <ele>1528.59</ele>
        <time>2022-10-13T09:23:10.400Z</time>
      </trkpt>
      <trkpt lat="44.8183" lon="4.22227">
        <ele>1529.66</ele>
        <time>2022-10-13T09:23:26.007Z</time>
      </trkpt>
      <trkpt lat="44.81838" lon="4.22231">
        <ele>1529.18</ele>
        <time>2022-10-13T09:23:44.827Z</time>
      </trkpt>
      <trkpt lat="44.81846" lon="4.2224">
        <ele>1527.55</ele>
        <time>2022-10-13T09:24:00.024Z</time>
      </trkpt>
      <trkpt lat="44.81838" lon="4.22232">
        <ele>1529.13</ele>
        <time>2022-10-13T09:30:32.560Z</time>
      </trkpt>
      <trkpt lat="44.81836" lon="4.22218">
        <ele>1530.15</ele>
        <time>2022-10-13T09:30:42.039Z</time>
      </trkpt>
      <trkpt lat="44.81839" lon="4.22202">
        <ele>1530.49</ele>
        <time>2022-10-13T09:30:51.669Z</time>
      </trkpt>
      <trkpt lat="44.81838" lon="4.22185">
        <ele>1530.71</ele>
        <time>2022-10-13T09:31:00.985Z</time>
      </trkpt>
      <trkpt lat="44.8183" lon="4.22175">
        <ele>1530.86</ele>
        <time>2022-10-13T09:31:10.172Z</time>
      </trkpt>
      <trkpt lat="44.81825" lon="4.22162">
        <ele>1530.87</ele>
        <time>2022-10-13T09:31:19.766Z</time>
      </trkpt>
      <trkpt lat="44.81817" lon="4.2215">
        <ele>1530.5</ele>
        <time>2022-10-13T09:31:29.085Z</time>
      </trkpt>
      <trkpt lat="44.8181" lon="4.22137">
        <ele>1530.03</ele>
        <time>2022-10-13T09:31:38.605Z</time>
      </trkpt>
      <trkpt lat="44.81802" lon="4.2213">
        <ele>1529.2</ele>
        <time>2022-10-13T09:31:48.103Z</time>
      </trkpt>
      <trkpt lat="44.81796" lon="4.22119">
        <ele>1528.68</ele>
        <time>2022-10-13T09:31:57.781Z</time>
      </trkpt>
      <trkpt lat="44.81787" lon="4.22111">
        <ele>1527.7</ele>
        <time>2022-10-13T09:32:07.321Z</time>
      </trkpt>
      <trkpt lat="44.81782" lon="4.22099">
        <ele>1527.45</ele>
        <time>2022-10-13T09:32:16.380Z</time>
      </trkpt>
      <trkpt lat="44.81777" lon="4.22086">
        <ele>1527.31</ele>
        <time>2022-10-13T09:32:25.461Z</time>
      </trkpt>
      <trkpt lat="44.8177" lon="4.22075">
        <ele>1526.87</ele>
        <time>2022-10-13T09:32:34.528Z</time>
      </trkpt>
      <trkpt lat="44.81763" lon="4.22065">
        <ele>1526.68</ele>
        <time>2022-10-13T09:32:43.749Z</time>
      </trkpt>
      <trkpt lat="44.81759" lon="4.22053">
        <ele>1527.02</ele>
        <time>2022-10-13T09:32:54.227Z</time>
      </trkpt>
      <trkpt lat="44.8175" lon="4.22051">
        <ele>1525.92</ele>
        <time>2022-10-13T09:33:03.904Z</time>
      </trkpt>
      <trkpt lat="44.81743" lon="4.22041">
        <ele>1525.71</ele>
        <time>2022-10-13T09:33:12.905Z</time>
      </trkpt>
      <trkpt lat="44.81739" lon="4.22028">
        <ele>1526.28</ele>
        <time>2022-10-13T09:33:22.923Z</time>
      </trkpt>
      <trkpt lat="44.8173" lon="4.22019">
        <ele>1525.37</ele>
        <time>2022-10-13T09:33:31.944Z</time>
      </trkpt>
      <trkpt lat="44.81723" lon="4.22009">
        <ele>1524.46</ele>
        <time>2022-10-13T09:33:42.801Z</time>
      </trkpt>
      <trkpt lat="44.81714" lon="4.22004">
        <ele>1522.8</ele>
        <time>2022-10-13T09:33:52.521Z</time>
      </trkpt>
      <trkpt lat="44.81705" lon="4.21998">
        <ele>1520.91</ele>
        <time>2022-10-13T09:34:01.800Z</time>
      </trkpt>
      <trkpt lat="44.81698" lon="4.21991">
        <ele>1518.78</ele>
        <time>2022-10-13T09:34:12.001Z</time>
      </trkpt>
      <trkpt lat="44.81688" lon="4.21988">
        <ele>1516.22</ele>
        <time>2022-10-13T09:34:21.759Z</time>
      </trkpt>
      <trkpt lat="44.81679" lon="4.21988">
        <ele>1513.57</ele>
        <time>2022-10-13T09:34:32.699Z</time>
      </trkpt>
      <trkpt lat="44.81669" lon="4.21989">
        <ele>1510.59</ele>
        <time>2022-10-13T09:34:47.046Z</time>
      </trkpt>
      <trkpt lat="44.81677" lon="4.21982">
        <ele>1512.53</ele>
        <time>2022-10-13T09:35:34.023Z</time>
      </trkpt>
      <trkpt lat="44.81687" lon="4.21978">
        <ele>1514.91</ele>
        <time>2022-10-13T09:35:52.999Z</time>
      </trkpt>
      <trkpt lat="44.81695" lon="4.21975">
        <ele>1516.7</ele>
        <time>2022-10-13T09:36:06.701Z</time>
      </trkpt>
      <trkpt lat="44.81705" lon="4.2197">
        <ele>1518.19</ele>
        <time>2022-10-13T09:36:17.680Z</time>
      </trkpt>
      <trkpt lat="44.81713" lon="4.21962">
        <ele>1518.54</ele>
        <time>2022-10-13T09:36:27.058Z</time>
      </trkpt>
      <trkpt lat="44.81722" lon="4.21958">
        <ele>1519.09</ele>
        <time>2022-10-13T09:36:36.626Z</time>
      </trkpt>
      <trkpt lat="44.81731" lon="4.21958">
        <ele>1520.45</ele>
        <time>2022-10-13T09:36:46.529Z</time>
      </trkpt>
      <trkpt lat="44.8174" lon="4.21954">
        <ele>1520.44</ele>
        <time>2022-10-13T09:36:56.010Z</time>
      </trkpt>
      <trkpt lat="44.81749" lon="4.21957">
        <ele>1521.78</ele>
        <time>2022-10-13T09:37:08.786Z</time>
      </trkpt>
      <trkpt lat="44.81759" lon="4.21958">
        <ele>1522.42</ele>
        <time>2022-10-13T09:37:18.364Z</time>
      </trkpt>
      <trkpt lat="44.81768" lon="4.2196">
        <ele>1522.82</ele>
        <time>2022-10-13T09:37:29.003Z</time>
      </trkpt>
      <trkpt lat="44.81776" lon="4.21967">
        <ele>1523.99</ele>
        <time>2022-10-13T09:37:39.261Z</time>
      </trkpt>
      <trkpt lat="44.81785" lon="4.21966">
        <ele>1523.33</ele>
        <time>2022-10-13T09:37:53.239Z</time>
      </trkpt>
      <trkpt lat="44.81794" lon="4.21971">
        <ele>1523.7</ele>
        <time>2022-10-13T09:38:03.132Z</time>
      </trkpt>
      <trkpt lat="44.81802" lon="4.21976">
        <ele>1524.22</ele>
        <time>2022-10-13T09:38:12.999Z</time>
      </trkpt>
      <trkpt lat="44.81809" lon="4.21985">
        <ele>1525.21</ele>
        <time>2022-10-13T09:38:26.446Z</time>
      </trkpt>
      <trkpt lat="44.81817" lon="4.21991">
        <ele>1525.61</ele>
        <time>2022-10-13T09:38:37.628Z</time>
      </trkpt>
      <trkpt lat="44.81825" lon="4.22">
        <ele>1526.14</ele>
        <time>2022-10-13T09:38:50.623Z</time>
      </trkpt>
      <trkpt lat="44.81832" lon="4.22009">
        <ele>1526.36</ele>
        <time>2022-10-13T09:39:00.823Z</time>
      </trkpt>
      <trkpt lat="44.8184" lon="4.22015">
        <ele>1525.78</ele>
        <time>2022-10-13T09:39:11.723Z</time>
      </trkpt>
      <trkpt lat="44.81848" lon="4.22021">
        <ele>1524.75</ele>
        <time>2022-10-13T09:39:23.602Z</time>
      </trkpt>
      <trkpt lat="44.81858" lon="4.22022">
        <ele>1522.72</ele>
        <time>2022-10-13T09:39:35.584Z</time>
      </trkpt>
      <trkpt lat="44.81863" lon="4.22033">
        <ele>1522.4</ele>
        <time>2022-10-13T09:39:44.661Z</time>
      </trkpt>
      <trkpt lat="44.8187" lon="4.22043">
        <ele>1521.83</ele>
        <time>2022-10-13T09:39:55.038Z</time>
      </trkpt>
      <trkpt lat="44.81877" lon="4.22052">
        <ele>1520.96</ele>
        <time>2022-10-13T09:40:04.887Z</time>
      </trkpt>
      <trkpt lat="44.8188" lon="4.22064">
        <ele>1521.36</ele>
        <time>2022-10-13T09:40:14.668Z</time>
      </trkpt>
      <trkpt lat="44.81883" lon="4.22076">
        <ele>1521.76</ele>
        <time>2022-10-13T09:40:24.668Z</time>
      </trkpt>
      <trkpt lat="44.8189" lon="4.22085">
        <ele>1520.89</ele>
        <time>2022-10-13T09:40:34.865Z</time>
      </trkpt>
      <trkpt lat="44.81899" lon="4.22089">
        <ele>1519.37</ele>
        <time>2022-10-13T09:40:47.385Z</time>
      </trkpt>
      <trkpt lat="44.81908" lon="4.22085">
        <ele>1517.46</ele>
        <time>2022-10-13T09:40:58.886Z</time>
      </trkpt>
      <trkpt lat="44.81915" lon="4.22075">
        <ele>1515.56</ele>
        <time>2022-10-13T09:41:22.941Z</time>
      </trkpt>
      <trkpt lat="44.81922" lon="4.22064">
        <ele>1513.39</ele>
        <time>2022-10-13T09:41:32.097Z</time>
      </trkpt>
      <trkpt lat="44.81928" lon="4.22055">
        <ele>1511.42</ele>
        <time>2022-10-13T09:41:42.499Z</time>
      </trkpt>
      <trkpt lat="44.81937" lon="4.22057">
        <ele>1510.68</ele>
        <time>2022-10-13T09:41:55.067Z</time>
      </trkpt>
      <trkpt lat="44.81945" lon="4.22048">
        <ele>1508.89</ele>
        <time>2022-10-13T09:42:08.020Z</time>
      </trkpt>
      <trkpt lat="44.81945" lon="4.22035">
        <ele>1507.05</ele>
        <time>2022-10-13T09:42:17.365Z</time>
      </trkpt>
      <trkpt lat="44.81947" lon="4.22018">
        <ele>1504.64</ele>
        <time>2022-10-13T09:42:26.842Z</time>
      </trkpt>
      <trkpt lat="44.81954" lon="4.22009">
        <ele>1503.23</ele>
        <time>2022-10-13T09:42:37.009Z</time>
      </trkpt>
      <trkpt lat="44.81961" lon="4.22">
        <ele>1502.05</ele>
        <time>2022-10-13T09:42:51.603Z</time>
      </trkpt>
      <trkpt lat="44.81965" lon="4.21988">
        <ele>1500.81</ele>
        <time>2022-10-13T09:43:06.699Z</time>
      </trkpt>
      <trkpt lat="44.81972" lon="4.21975">
        <ele>1499.48</ele>
        <time>2022-10-13T09:43:16.079Z</time>
      </trkpt>
      <trkpt lat="44.81975" lon="4.21963">
        <ele>1498.24</ele>
        <time>2022-10-13T09:43:28.546Z</time>
      </trkpt>
      <trkpt lat="44.81975" lon="4.2195">
        <ele>1496.94</ele>
        <time>2022-10-13T09:43:40.627Z</time>
      </trkpt>
      <trkpt lat="44.81971" lon="4.21936">
        <ele>1495.67</ele>
        <time>2022-10-13T09:43:53.444Z</time>
      </trkpt>
      <trkpt lat="44.81968" lon="4.21924">
        <ele>1494.37</ele>
        <time>2022-10-13T09:44:04.763Z</time>
      </trkpt>
      <trkpt lat="44.81961" lon="4.21912">
        <ele>1493.29</ele>
        <time>2022-10-13T09:44:15.005Z</time>
      </trkpt>
      <trkpt lat="44.8196" lon="4.21899">
        <ele>1491.79</ele>
        <time>2022-10-13T09:44:24.761Z</time>
      </trkpt>
      <trkpt lat="44.81958" lon="4.21885">
        <ele>1490.24</ele>
        <time>2022-10-13T09:44:36.000Z</time>
      </trkpt>
      <trkpt lat="44.81964" lon="4.21874">
        <ele>1488.55</ele>
        <time>2022-10-13T09:44:46.000Z</time>
      </trkpt>
      <trkpt lat="44.81973" lon="4.21872">
        <ele>1487.46</ele>
        <time>2022-10-13T09:44:56.024Z</time>
      </trkpt>
      <trkpt lat="44.81978" lon="4.21861">
        <ele>1485.41</ele>
        <time>2022-10-13T09:45:06.666Z</time>
      </trkpt>
      <trkpt lat="44.81982" lon="4.2185">
        <ele>1483.31</ele>
        <time>2022-10-13T09:45:30.010Z</time>
      </trkpt>
      <trkpt lat="44.81988" lon="4.21839">
        <ele>1481.13</ele>
        <time>2022-10-13T09:45:44.080Z</time>
      </trkpt>
      <trkpt lat="44.81995" lon="4.2183">
        <ele>1479.05</ele>
        <time>2022-10-13T09:46:00.507Z</time>
      </trkpt>
      <trkpt lat="44.82001" lon="4.21819">
        <ele>1476.74</ele>
        <time>2022-10-13T09:46:09.625Z</time>
      </trkpt>
      <trkpt lat="44.82007" lon="4.21808">
        <ele>1474.63</ele>
        <time>2022-10-13T09:46:18.725Z</time>
      </trkpt>
      <trkpt lat="44.8201" lon="4.21795">
        <ele>1472.6</ele>
        <time>2022-10-13T09:46:29.542Z</time>
      </trkpt>
      <trkpt lat="44.82015" lon="4.21784">
        <ele>1470.6</ele>
        <time>2022-10-13T09:46:39.003Z</time>
      </trkpt>
      <trkpt lat="44.82022" lon="4.21776">
        <ele>1469.03</ele>
        <time>2022-10-13T09:46:48.501Z</time>
      </trkpt>
      <trkpt lat="44.82026" lon="4.21763">
        <ele>1467.09</ele>
        <time>2022-10-13T09:46:57.800Z</time>
      </trkpt>
      <trkpt lat="44.82033" lon="4.21755">
        <ele>1465.58</ele>
        <time>2022-10-13T09:47:07.618Z</time>
      </trkpt>
      <trkpt lat="44.82038" lon="4.21744">
        <ele>1463.94</ele>
        <time>2022-10-13T09:47:16.926Z</time>
      </trkpt>
      <trkpt lat="44.82042" lon="4.21731">
        <ele>1462.2</ele>
        <time>2022-10-13T09:47:26.684Z</time>
      </trkpt>
      <trkpt lat="44.82047" lon="4.21718">
        <ele>1460.43</ele>
        <time>2022-10-13T09:47:36.631Z</time>
      </trkpt>
      <trkpt lat="44.82052" lon="4.21704">
        <ele>1458.73</ele>
        <time>2022-10-13T09:47:46.015Z</time>
      </trkpt>
      <trkpt lat="44.82057" lon="4.21688">
        <ele>1456.94</ele>
        <time>2022-10-13T09:47:55.283Z</time>
      </trkpt>
      <trkpt lat="44.82062" lon="4.21676">
        <ele>1455.55</ele>
        <time>2022-10-13T09:48:04.442Z</time>
      </trkpt>
      <trkpt lat="44.82069" lon="4.21663">
        <ele>1454.18</ele>
        <time>2022-10-13T09:48:13.801Z</time>
      </trkpt>
      <trkpt lat="44.82076" lon="4.21651">
        <ele>1453.02</ele>
        <time>2022-10-13T09:48:22.859Z</time>
      </trkpt>
      <trkpt lat="44.82081" lon="4.2164">
        <ele>1452.01</ele>
        <time>2022-10-13T09:48:32.099Z</time>
      </trkpt>
      <trkpt lat="44.82085" lon="4.21624">
        <ele>1450.84</ele>
        <time>2022-10-13T09:48:42.028Z</time>
      </trkpt>
      <trkpt lat="44.82089" lon="4.21608">
        <ele>1449.7</ele>
        <time>2022-10-13T09:48:52.505Z</time>
      </trkpt>
      <trkpt lat="44.82096" lon="4.21599">
        <ele>1448.89</ele>
        <time>2022-10-13T09:49:03.105Z</time>
      </trkpt>
      <trkpt lat="44.82098" lon="4.21583">
        <ele>1447.77</ele>
        <time>2022-10-13T09:49:12.464Z</time>
      </trkpt>
      <trkpt lat="44.82098" lon="4.21571">
        <ele>1446.81</ele>
        <time>2022-10-13T09:49:21.841Z</time>
      </trkpt>
      <trkpt lat="44.82088" lon="4.21567">
        <ele>1446.68</ele>
        <time>2022-10-13T09:50:40.917Z</time>
      </trkpt>
      <trkpt lat="44.8208" lon="4.21562">
        <ele>1446.29</ele>
        <time>2022-10-13T09:51:56.999Z</time>
      </trkpt>
      <trkpt lat="44.82071" lon="4.21557">
        <ele>1445.91</ele>
        <time>2022-10-13T09:52:06.580Z</time>
      </trkpt>
      <trkpt lat="44.82074" lon="4.21542">
        <ele>1444.55</ele>
        <time>2022-10-13T09:52:16.040Z</time>
      </trkpt>
      <trkpt lat="44.82073" lon="4.21529">
        <ele>1443.43</ele>
        <time>2022-10-13T09:52:25.218Z</time>
      </trkpt>
      <trkpt lat="44.82065" lon="4.21537">
        <ele>1444.17</ele>
        <time>2022-10-13T09:54:44.664Z</time>
      </trkpt>
      <trkpt lat="44.82058" lon="4.21545">
        <ele>1444.84</ele>
        <time>2022-10-13T09:54:53.682Z</time>
      </trkpt>
      <trkpt lat="44.82048" lon="4.21549">
        <ele>1445.2</ele>
        <time>2022-10-13T09:55:03.011Z</time>
      </trkpt>
      <trkpt lat="44.82036" lon="4.21542">
        <ele>1444.48</ele>
        <time>2022-10-13T09:55:12.382Z</time>
      </trkpt>
      <trkpt lat="44.82025" lon="4.21537">
        <ele>1443.82</ele>
        <time>2022-10-13T09:55:21.441Z</time>
      </trkpt>
      <trkpt lat="44.82013" lon="4.21531">
        <ele>1443.14</ele>
        <time>2022-10-13T09:55:30.582Z</time>
      </trkpt>
      <trkpt lat="44.82001" lon="4.21531">
        <ele>1442.88</ele>
        <time>2022-10-13T09:55:39.639Z</time>
      </trkpt>
      <trkpt lat="44.81989" lon="4.21529">
        <ele>1442.51</ele>
        <time>2022-10-13T09:55:48.907Z</time>
      </trkpt>
      <trkpt lat="44.81976" lon="4.21522">
        <ele>1441.58</ele>
        <time>2022-10-13T09:55:58.888Z</time>
      </trkpt>
      <trkpt lat="44.81966" lon="4.21521">
        <ele>1441.23</ele>
        <time>2022-10-13T09:56:08.164Z</time>
      </trkpt>
      <trkpt lat="44.81955" lon="4.21518">
        <ele>1440.67</ele>
        <time>2022-10-13T09:56:17.703Z</time>
      </trkpt>
      <trkpt lat="44.81944" lon="4.21517">
        <ele>1440.14</ele>
        <time>2022-10-13T09:56:27.379Z</time>
      </trkpt>
      <trkpt lat="44.81935" lon="4.21517">
        <ele>1439.73</ele>
        <time>2022-10-13T09:56:37.099Z</time>
      </trkpt>
      <trkpt lat="44.81925" lon="4.21514">
        <ele>1439.05</ele>
        <time>2022-10-13T09:56:46.120Z</time>
      </trkpt>
      <trkpt lat="44.81916" lon="4.21514">
        <ele>1438.42</ele>
        <time>2022-10-13T09:56:55.300Z</time>
      </trkpt>
      <trkpt lat="44.81905" lon="4.21518">
        <ele>1438.09</ele>
        <time>2022-10-13T09:57:04.519Z</time>
      </trkpt>
      <trkpt lat="44.81894" lon="4.21527">
        <ele>1438.16</ele>
        <time>2022-10-13T09:57:13.787Z</time>
      </trkpt>
      <trkpt lat="44.8188" lon="4.21527">
        <ele>1436.85</ele>
        <time>2022-10-13T09:57:22.999Z</time>
      </trkpt>
      <trkpt lat="44.81868" lon="4.21527">
        <ele>1435.57</ele>
        <time>2022-10-13T09:57:32.829Z</time>
      </trkpt>
      <trkpt lat="44.81856" lon="4.21529">
        <ele>1434.59</ele>
        <time>2022-10-13T09:57:42.281Z</time>
      </trkpt>
      <trkpt lat="44.81843" lon="4.21534">
        <ele>1433.96</ele>
        <time>2022-10-13T09:57:51.822Z</time>
      </trkpt>
      <trkpt lat="44.81834" lon="4.21544">
        <ele>1434.46</ele>
        <time>2022-10-13T09:58:01.000Z</time>
      </trkpt>
      <trkpt lat="44.81823" lon="4.2155">
        <ele>1434.38</ele>
        <time>2022-10-13T09:58:10.101Z</time>
      </trkpt>
      <trkpt lat="44.81811" lon="4.21553">
        <ele>1433.75</ele>
        <time>2022-10-13T09:58:19.152Z</time>
      </trkpt>
      <trkpt lat="44.81801" lon="4.21552">
        <ele>1432.68</ele>
        <time>2022-10-13T09:58:28.758Z</time>
      </trkpt>
      <trkpt lat="44.81791" lon="4.21554">
        <ele>1432.22</ele>
        <time>2022-10-13T09:58:37.850Z</time>
      </trkpt>
      <trkpt lat="44.81779" lon="4.21564">
        <ele>1432.54</ele>
        <time>2022-10-13T09:58:47.000Z</time>
      </trkpt>
      <trkpt lat="44.81768" lon="4.21571">
        <ele>1432.64</ele>
        <time>2022-10-13T09:58:56.585Z</time>
      </trkpt>
      <trkpt lat="44.81757" lon="4.21572">
        <ele>1431.91</ele>
        <time>2022-10-13T09:59:06.110Z</time>
      </trkpt>
      <trkpt lat="44.81747" lon="4.2158">
        <ele>1432.28</ele>
        <time>2022-10-13T09:59:15.224Z</time>
      </trkpt>
      <trkpt lat="44.81735" lon="4.21587">
        <ele>1432.34</ele>
        <time>2022-10-13T09:59:24.503Z</time>
      </trkpt>
      <trkpt lat="44.81723" lon="4.21591">
        <ele>1432.1</ele>
        <time>2022-10-13T09:59:33.680Z</time>
      </trkpt>
      <trkpt lat="44.81711" lon="4.21601">
        <ele>1432.52</ele>
        <time>2022-10-13T09:59:42.759Z</time>
      </trkpt>
      <trkpt lat="44.817" lon="4.2161">
        <ele>1432.72</ele>
        <time>2022-10-13T09:59:52.478Z</time>
      </trkpt>
      <trkpt lat="44.81687" lon="4.21612">
        <ele>1431.89</ele>
        <time>2022-10-13T10:00:02.034Z</time>
      </trkpt>
      <trkpt lat="44.81673" lon="4.21612">
        <ele>1430.7</ele>
        <time>2022-10-13T10:00:11.865Z</time>
      </trkpt>
      <trkpt lat="44.81659" lon="4.21617">
        <ele>1430.11</ele>
        <time>2022-10-13T10:00:21.112Z</time>
      </trkpt>
      <trkpt lat="44.81648" lon="4.21622">
        <ele>1429.72</ele>
        <time>2022-10-13T10:00:30.884Z</time>
      </trkpt>
      <trkpt lat="44.81634" lon="4.21621">
        <ele>1428.47</ele>
        <time>2022-10-13T10:00:40.823Z</time>
      </trkpt>
      <trkpt lat="44.81622" lon="4.21623">
        <ele>1427.69</ele>
        <time>2022-10-13T10:00:49.922Z</time>
      </trkpt>
      <trkpt lat="44.81611" lon="4.21627">
        <ele>1427.2</ele>
        <time>2022-10-13T10:00:59.543Z</time>
      </trkpt>
      <trkpt lat="44.816" lon="4.2163">
        <ele>1426.7</ele>
        <time>2022-10-13T10:01:08.654Z</time>
      </trkpt>
      <trkpt lat="44.81589" lon="4.21634">
        <ele>1426.18</ele>
        <time>2022-10-13T10:01:17.819Z</time>
      </trkpt>
      <trkpt lat="44.81581" lon="4.21639">
        <ele>1426.09</ele>
        <time>2022-10-13T10:01:29.012Z</time>
      </trkpt>
      <trkpt lat="44.8157" lon="4.21646">
        <ele>1426</ele>
        <time>2022-10-13T10:01:38.386Z</time>
      </trkpt>
      <trkpt lat="44.81564" lon="4.21659">
        <ele>1426.76</ele>
        <time>2022-10-13T10:01:47.564Z</time>
      </trkpt>
      <trkpt lat="44.8156" lon="4.21673">
        <ele>1427.83</ele>
        <time>2022-10-13T10:01:56.984Z</time>
      </trkpt>
      <trkpt lat="44.8155" lon="4.21681">
        <ele>1427.87</ele>
        <time>2022-10-13T10:02:06.505Z</time>
      </trkpt>
      <trkpt lat="44.81542" lon="4.21688">
        <ele>1427.9</ele>
        <time>2022-10-13T10:02:15.541Z</time>
      </trkpt>
      <trkpt lat="44.81536" lon="4.21701">
        <ele>1428.38</ele>
        <time>2022-10-13T10:02:24.842Z</time>
      </trkpt>
      <trkpt lat="44.81525" lon="4.2171">
        <ele>1428.07</ele>
        <time>2022-10-13T10:02:33.877Z</time>
      </trkpt>
      <trkpt lat="44.81513" lon="4.21702">
        <ele>1426.54</ele>
        <time>2022-10-13T10:02:42.883Z</time>
      </trkpt>
      <trkpt lat="44.81499" lon="4.21701">
        <ele>1425.17</ele>
        <time>2022-10-13T10:02:52.000Z</time>
      </trkpt>
      <trkpt lat="44.81491" lon="4.2171">
        <ele>1424.89</ele>
        <time>2022-10-13T10:03:01.876Z</time>
      </trkpt>
      <trkpt lat="44.81479" lon="4.2171">
        <ele>1423.83</ele>
        <time>2022-10-13T10:03:11.319Z</time>
      </trkpt>
      <trkpt lat="44.81468" lon="4.21704">
        <ele>1422.54</ele>
        <time>2022-10-13T10:03:20.667Z</time>
      </trkpt>
      <trkpt lat="44.81459" lon="4.21693">
        <ele>1421.04</ele>
        <time>2022-10-13T10:03:30.885Z</time>
      </trkpt>
      <trkpt lat="44.81449" lon="4.21688">
        <ele>1419.81</ele>
        <time>2022-10-13T10:03:40.388Z</time>
      </trkpt>
      <trkpt lat="44.81441" lon="4.21678">
        <ele>1418.31</ele>
        <time>2022-10-13T10:03:49.666Z</time>
      </trkpt>
      <trkpt lat="44.81433" lon="4.2167">
        <ele>1416.94</ele>
        <time>2022-10-13T10:03:59.644Z</time>
      </trkpt>
      <trkpt lat="44.8143" lon="4.21656">
        <ele>1415.39</ele>
        <time>2022-10-13T10:04:08.703Z</time>
      </trkpt>
      <trkpt lat="44.8142" lon="4.21655">
        <ele>1414.3</ele>
        <time>2022-10-13T10:04:18.723Z</time>
      </trkpt>
      <trkpt lat="44.8141" lon="4.21655">
        <ele>1413.29</ele>
        <time>2022-10-13T10:04:28.283Z</time>
      </trkpt>
      <trkpt lat="44.814" lon="4.2165">
        <ele>1411.94</ele>
        <time>2022-10-13T10:04:37.482Z</time>
      </trkpt>
      <trkpt lat="44.81391" lon="4.21643">
        <ele>1410.47</ele>
        <time>2022-10-13T10:04:47.007Z</time>
      </trkpt>
      <trkpt lat="44.81381" lon="4.21639">
        <ele>1409.16</ele>
        <time>2022-10-13T10:04:56.041Z</time>
      </trkpt>
      <trkpt lat="44.8137" lon="4.21635">
        <ele>1407.77</ele>
        <time>2022-10-13T10:05:05.402Z</time>
      </trkpt>
      <trkpt lat="44.81359" lon="4.2163">
        <ele>1406.27</ele>
        <time>2022-10-13T10:05:14.699Z</time>
      </trkpt>
      <trkpt lat="44.81349" lon="4.21622">
        <ele>1404.51</ele>
        <time>2022-10-13T10:05:24.038Z</time>
      </trkpt>
      <trkpt lat="44.81339" lon="4.21623">
        <ele>1403.55</ele>
        <time>2022-10-13T10:05:33.137Z</time>
      </trkpt>
      <trkpt lat="44.81329" lon="4.21624">
        <ele>1402.58</ele>
        <time>2022-10-13T10:05:42.219Z</time>
      </trkpt>
      <trkpt lat="44.81318" lon="4.21625">
        <ele>1401.29</ele>
        <time>2022-10-13T10:05:52.005Z</time>
      </trkpt>
      <trkpt lat="44.81307" lon="4.21625">
        <ele>1400.09</ele>
        <time>2022-10-13T10:06:01.868Z</time>
      </trkpt>
      <trkpt lat="44.81297" lon="4.21617">
        <ele>1398.02</ele>
        <time>2022-10-13T10:06:11.937Z</time>
      </trkpt>
      <trkpt lat="44.81289" lon="4.21609">
        <ele>1396.27</ele>
        <time>2022-10-13T10:06:21.685Z</time>
      </trkpt>
      <trkpt lat="44.81281" lon="4.21597">
        <ele>1394.2</ele>
        <time>2022-10-13T10:06:31.025Z</time>
      </trkpt>
      <trkpt lat="44.8127" lon="4.21598">
        <ele>1392.98</ele>
        <time>2022-10-13T10:06:40.762Z</time>
      </trkpt>
      <trkpt lat="44.81258" lon="4.216">
        <ele>1391.46</ele>
        <time>2022-10-13T10:06:50.866Z</time>
      </trkpt>
      <trkpt lat="44.81248" lon="4.2159">
        <ele>1389.25</ele>
        <time>2022-10-13T10:07:00.040Z</time>
      </trkpt>
      <trkpt lat="44.81239" lon="4.21596">
        <ele>1388.57</ele>
        <time>2022-10-13T10:07:09.342Z</time>
      </trkpt>
      <trkpt lat="44.8123" lon="4.216">
        <ele>1387.55</ele>
        <time>2022-10-13T10:07:19.540Z</time>
      </trkpt>
      <trkpt lat="44.81219" lon="4.21592">
        <ele>1385.14</ele>
        <time>2022-10-13T10:07:28.600Z</time>
      </trkpt>
      <trkpt lat="44.81209" lon="4.21591">
        <ele>1383.55</ele>
        <time>2022-10-13T10:07:37.888Z</time>
      </trkpt>
      <trkpt lat="44.81201" lon="4.21584">
        <ele>1381.51</ele>
        <time>2022-10-13T10:07:48.806Z</time>
      </trkpt>
      <trkpt lat="44.8119" lon="4.21578">
        <ele>1379.08</ele>
        <time>2022-10-13T10:07:58.205Z</time>
      </trkpt>
      <trkpt lat="44.81181" lon="4.21574">
        <ele>1377.27</ele>
        <time>2022-10-13T10:08:07.647Z</time>
      </trkpt>
      <trkpt lat="44.81171" lon="4.21573">
        <ele>1375.69</ele>
        <time>2022-10-13T10:08:17.944Z</time>
      </trkpt>
      <trkpt lat="44.81162" lon="4.21571">
        <ele>1374.02</ele>
        <time>2022-10-13T10:08:29.942Z</time>
      </trkpt>
      <trkpt lat="44.81155" lon="4.21558">
        <ele>1371.86</ele>
        <time>2022-10-13T10:08:39.080Z</time>
      </trkpt>
      <trkpt lat="44.81147" lon="4.2155">
        <ele>1369.97</ele>
        <time>2022-10-13T10:08:49.619Z</time>
      </trkpt>
      <trkpt lat="44.81137" lon="4.21544">
        <ele>1367.99</ele>
        <time>2022-10-13T10:08:59.013Z</time>
      </trkpt>
      <trkpt lat="44.81127" lon="4.21539">
        <ele>1366.24</ele>
        <time>2022-10-13T10:09:08.067Z</time>
      </trkpt>
      <trkpt lat="44.81117" lon="4.21534">
        <ele>1364.51</ele>
        <time>2022-10-13T10:09:17.506Z</time>
      </trkpt>
      <trkpt lat="44.8111" lon="4.21526">
        <ele>1362.88</ele>
        <time>2022-10-13T10:09:29.105Z</time>
      </trkpt>
      <trkpt lat="44.81101" lon="4.21531">
        <ele>1362.05</ele>
        <time>2022-10-13T10:09:46.022Z</time>
      </trkpt>
      <trkpt lat="44.81089" lon="4.21531">
        <ele>1360.45</ele>
        <time>2022-10-13T10:09:55.904Z</time>
      </trkpt>
      <trkpt lat="44.81081" lon="4.21519">
        <ele>1358.27</ele>
        <time>2022-10-13T10:10:05.084Z</time>
      </trkpt>
      <trkpt lat="44.81071" lon="4.21509">
        <ele>1356.2</ele>
        <time>2022-10-13T10:10:14.341Z</time>
      </trkpt>
      <trkpt lat="44.81065" lon="4.21496">
        <ele>1354.24</ele>
        <time>2022-10-13T10:10:23.901Z</time>
      </trkpt>
      <trkpt lat="44.81057" lon="4.21485">
        <ele>1352.31</ele>
        <time>2022-10-13T10:10:33.900Z</time>
      </trkpt>
      <trkpt lat="44.81051" lon="4.21475">
        <ele>1350.77</ele>
        <time>2022-10-13T10:10:43.418Z</time>
      </trkpt>
      <trkpt lat="44.81042" lon="4.21468">
        <ele>1349.17</ele>
        <time>2022-10-13T10:10:52.570Z</time>
      </trkpt>
      <trkpt lat="44.81033" lon="4.21467">
        <ele>1348.11</ele>
        <time>2022-10-13T10:11:01.846Z</time>
      </trkpt>
      <trkpt lat="44.81024" lon="4.21465">
        <ele>1346.91</ele>
        <time>2022-10-13T10:11:11.564Z</time>
      </trkpt>
      <trkpt lat="44.81016" lon="4.21456">
        <ele>1345.49</ele>
        <time>2022-10-13T10:11:22.844Z</time>
      </trkpt>
      <trkpt lat="44.81008" lon="4.21447">
        <ele>1343.95</ele>
        <time>2022-10-13T10:11:32.201Z</time>
      </trkpt>
      <trkpt lat="44.80999" lon="4.21441">
        <ele>1342.55</ele>
        <time>2022-10-13T10:11:45.441Z</time>
      </trkpt>
      <trkpt lat="44.80988" lon="4.2143">
        <ele>1340.2</ele>
        <time>2022-10-13T10:11:54.999Z</time>
      </trkpt>
      <trkpt lat="44.80978" lon="4.21422">
        <ele>1338.18</ele>
        <time>2022-10-13T10:12:04.978Z</time>
      </trkpt>
      <trkpt lat="44.80973" lon="4.21412">
        <ele>1336.49</ele>
        <time>2022-10-13T10:12:14.348Z</time>
      </trkpt>
      <trkpt lat="44.80963" lon="4.21414">
        <ele>1334.86</ele>
        <time>2022-10-13T10:12:23.445Z</time>
      </trkpt>
      <trkpt lat="44.80953" lon="4.21423">
        <ele>1333.83</ele>
        <time>2022-10-13T10:12:32.886Z</time>
      </trkpt>
      <trkpt lat="44.80944" lon="4.21415">
        <ele>1331.54</ele>
        <time>2022-10-13T10:12:42.523Z</time>
      </trkpt>
      <trkpt lat="44.80942" lon="4.214">
        <ele>1329.82</ele>
        <time>2022-10-13T10:12:51.543Z</time>
      </trkpt>
      <trkpt lat="44.80943" lon="4.21383">
        <ele>1328.48</ele>
        <time>2022-10-13T10:13:00.884Z</time>
      </trkpt>
      <trkpt lat="44.80937" lon="4.21374">
        <ele>1326.54</ele>
        <time>2022-10-13T10:13:09.903Z</time>
      </trkpt>
      <trkpt lat="44.80939" lon="4.2136">
        <ele>1325.67</ele>
        <time>2022-10-13T10:13:44.881Z</time>
      </trkpt>
      <trkpt lat="44.80932" lon="4.21351">
        <ele>1323.63</ele>
        <time>2022-10-13T10:13:54.006Z</time>
      </trkpt>
      <trkpt lat="44.80929" lon="4.21364">
        <ele>1324.38</ele>
        <time>2022-10-13T10:14:16.847Z</time>
      </trkpt>
      <trkpt lat="44.80918" lon="4.21363">
        <ele>1322.62</ele>
        <time>2022-10-13T10:14:46.003Z</time>
      </trkpt>
      <trkpt lat="44.80908" lon="4.21364">
        <ele>1321.21</ele>
        <time>2022-10-13T10:14:55.220Z</time>
      </trkpt>
      <trkpt lat="44.80897" lon="4.21352">
        <ele>1319.04</ele>
        <time>2022-10-13T10:15:04.240Z</time>
      </trkpt>
      <trkpt lat="44.80889" lon="4.2134">
        <ele>1317.24</ele>
        <time>2022-10-13T10:15:13.402Z</time>
      </trkpt>
      <trkpt lat="44.8088" lon="4.21329">
        <ele>1315.5</ele>
        <time>2022-10-13T10:15:23.015Z</time>
      </trkpt>
      <trkpt lat="44.80868" lon="4.21317">
        <ele>1313.64</ele>
        <time>2022-10-13T10:15:32.939Z</time>
      </trkpt>
      <trkpt lat="44.80859" lon="4.21304">
        <ele>1311.84</ele>
        <time>2022-10-13T10:15:42.614Z</time>
      </trkpt>
      <trkpt lat="44.80852" lon="4.21294">
        <ele>1310.6</ele>
        <time>2022-10-13T10:15:53.346Z</time>
      </trkpt>
      <trkpt lat="44.80844" lon="4.21289">
        <ele>1309.41</ele>
        <time>2022-10-13T10:16:02.945Z</time>
      </trkpt>
      <trkpt lat="44.80833" lon="4.21279">
        <ele>1307.69</ele>
        <time>2022-10-13T10:16:12.025Z</time>
      </trkpt>
      <trkpt lat="44.80822" lon="4.21273">
        <ele>1306.03</ele>
        <time>2022-10-13T10:16:21.523Z</time>
      </trkpt>
      <trkpt lat="44.80812" lon="4.21267">
        <ele>1304.6</ele>
        <time>2022-10-13T10:16:31.004Z</time>
      </trkpt>
      <trkpt lat="44.80801" lon="4.2126">
        <ele>1303.04</ele>
        <time>2022-10-13T10:16:40.461Z</time>
      </trkpt>
      <trkpt lat="44.80793" lon="4.21254">
        <ele>1301.84</ele>
        <time>2022-10-13T10:16:50.040Z</time>
      </trkpt>
      <trkpt lat="44.80782" lon="4.21247">
        <ele>1300.36</ele>
        <time>2022-10-13T10:16:59.185Z</time>
      </trkpt>
      <trkpt lat="44.8077" lon="4.21236">
        <ele>1298.7</ele>
        <time>2022-10-13T10:17:08.599Z</time>
      </trkpt>
      <trkpt lat="44.80768" lon="4.21215">
        <ele>1297.86</ele>
        <time>2022-10-13T10:17:18.608Z</time>
      </trkpt>
      <trkpt lat="44.80773" lon="4.212">
        <ele>1297.97</ele>
        <time>2022-10-13T10:17:27.746Z</time>
      </trkpt>
      <trkpt lat="44.80778" lon="4.21184">
        <ele>1297.98</ele>
        <time>2022-10-13T10:17:38.012Z</time>
      </trkpt>
      <trkpt lat="44.80783" lon="4.21169">
        <ele>1297.86</ele>
        <time>2022-10-13T10:17:47.784Z</time>
      </trkpt>
      <trkpt lat="44.80789" lon="4.21154">
        <ele>1297.84</ele>
        <time>2022-10-13T10:17:57.041Z</time>
      </trkpt>
      <trkpt lat="44.80791" lon="4.21139">
        <ele>1297.58</ele>
        <time>2022-10-13T10:18:06.267Z</time>
      </trkpt>
      <trkpt lat="44.80795" lon="4.21126">
        <ele>1297.48</ele>
        <time>2022-10-13T10:18:15.460Z</time>
      </trkpt>
      <trkpt lat="44.80801" lon="4.2111">
        <ele>1297.38</ele>
        <time>2022-10-13T10:18:25.098Z</time>
      </trkpt>
      <trkpt lat="44.80807" lon="4.21094">
        <ele>1297.29</ele>
        <time>2022-10-13T10:18:34.661Z</time>
      </trkpt>
      <trkpt lat="44.80814" lon="4.2108">
        <ele>1297.3</ele>
        <time>2022-10-13T10:18:44.768Z</time>
      </trkpt>
      <trkpt lat="44.80821" lon="4.21066">
        <ele>1297.22</ele>
        <time>2022-10-13T10:18:53.907Z</time>
      </trkpt>
      <trkpt lat="44.80829" lon="4.21052">
        <ele>1297.21</ele>
        <time>2022-10-13T10:19:03.766Z</time>
      </trkpt>
      <trkpt lat="44.80836" lon="4.21039">
        <ele>1297.19</ele>
        <time>2022-10-13T10:19:13.010Z</time>
      </trkpt>
      <trkpt lat="44.8084" lon="4.21027">
        <ele>1296.98</ele>
        <time>2022-10-13T10:19:22.583Z</time>
      </trkpt>
      <trkpt lat="44.8083" lon="4.21031">
        <ele>1296.36</ele>
        <time>2022-10-13T10:19:42.002Z</time>
      </trkpt>
      <trkpt lat="44.80819" lon="4.21034">
        <ele>1295.41</ele>
        <time>2022-10-13T10:19:51.342Z</time>
      </trkpt>
      <trkpt lat="44.80806" lon="4.2104">
        <ele>1294.48</ele>
        <time>2022-10-13T10:20:00.679Z</time>
      </trkpt>
      <trkpt lat="44.80794" lon="4.21043">
        <ele>1293.42</ele>
        <time>2022-10-13T10:20:10.367Z</time>
      </trkpt>
      <trkpt lat="44.80784" lon="4.2105">
        <ele>1292.91</ele>
        <time>2022-10-13T10:20:19.921Z</time>
      </trkpt>
      <trkpt lat="44.80774" lon="4.21055">
        <ele>1292.23</ele>
        <time>2022-10-13T10:20:28.926Z</time>
      </trkpt>
      <trkpt lat="44.80762" lon="4.21058">
        <ele>1291.38</ele>
        <time>2022-10-13T10:20:38.923Z</time>
      </trkpt>
      <trkpt lat="44.80751" lon="4.21063">
        <ele>1290.77</ele>
        <time>2022-10-13T10:20:48.062Z</time>
      </trkpt>
      <trkpt lat="44.80755" lon="4.21051">
        <ele>1290.22</ele>
        <time>2022-10-13T10:21:01.781Z</time>
      </trkpt>
      <trkpt lat="44.80767" lon="4.21033">
        <ele>1289.94</ele>
        <time>2022-10-13T10:21:11.080Z</time>
      </trkpt>
      <trkpt lat="44.80774" lon="4.21019">
        <ele>1289.67</ele>
        <time>2022-10-13T10:21:20.579Z</time>
      </trkpt>
      <trkpt lat="44.80781" lon="4.21004">
        <ele>1289.39</ele>
        <time>2022-10-13T10:21:30.047Z</time>
      </trkpt>
      <trkpt lat="44.80789" lon="4.20991">
        <ele>1289.54</ele>
        <time>2022-10-13T10:21:39.828Z</time>
      </trkpt>
      <trkpt lat="44.80794" lon="4.20977">
        <ele>1289.3</ele>
        <time>2022-10-13T10:21:49.031Z</time>
      </trkpt>
      <trkpt lat="44.80796" lon="4.20957">
        <ele>1288.33</ele>
        <time>2022-10-13T10:21:58.486Z</time>
      </trkpt>
      <trkpt lat="44.80798" lon="4.20935">
        <ele>1287.29</ele>
        <time>2022-10-13T10:22:08.002Z</time>
      </trkpt>
      <trkpt lat="44.808" lon="4.20917">
        <ele>1286.74</ele>
        <time>2022-10-13T10:22:17.405Z</time>
      </trkpt>
      <trkpt lat="44.808" lon="4.209">
        <ele>1286.31</ele>
        <time>2022-10-13T10:22:26.802Z</time>
      </trkpt>
      <trkpt lat="44.80802" lon="4.20884">
        <ele>1286.29</ele>
        <time>2022-10-13T10:22:36.560Z</time>
      </trkpt>
      <trkpt lat="44.80806" lon="4.20871">
        <ele>1286.46</ele>
        <time>2022-10-13T10:22:45.641Z</time>
      </trkpt>
      <trkpt lat="44.80805" lon="4.20856">
        <ele>1286.16</ele>
        <time>2022-10-13T10:22:54.919Z</time>
      </trkpt>
      <trkpt lat="44.80807" lon="4.20839">
        <ele>1285.94</ele>
        <time>2022-10-13T10:23:04.518Z</time>
      </trkpt>
      <trkpt lat="44.8081" lon="4.20822">
        <ele>1285.53</ele>
        <time>2022-10-13T10:23:13.908Z</time>
      </trkpt>
      <trkpt lat="44.80815" lon="4.20804">
        <ele>1284.96</ele>
        <time>2022-10-13T10:23:23.365Z</time>
      </trkpt>
      <trkpt lat="44.80822" lon="4.20789">
        <ele>1284.32</ele>
        <time>2022-10-13T10:23:32.886Z</time>
      </trkpt>
      <trkpt lat="44.80829" lon="4.20774">
        <ele>1283.56</ele>
        <time>2022-10-13T10:23:42.746Z</time>
      </trkpt>
      <trkpt lat="44.80835" lon="4.20758">
        <ele>1282.51</ele>
        <time>2022-10-13T10:23:51.786Z</time>
      </trkpt>
      <trkpt lat="44.80842" lon="4.20743">
        <ele>1281.5</ele>
        <time>2022-10-13T10:24:01.145Z</time>
      </trkpt>
      <trkpt lat="44.8085" lon="4.2073">
        <ele>1280.59</ele>
        <time>2022-10-13T10:24:10.624Z</time>
      </trkpt>
      <trkpt lat="44.80856" lon="4.20715">
        <ele>1279.47</ele>
        <time>2022-10-13T10:24:20.013Z</time>
      </trkpt>
      <trkpt lat="44.80864" lon="4.20699">
        <ele>1278.44</ele>
        <time>2022-10-13T10:24:29.481Z</time>
      </trkpt>
      <trkpt lat="44.8087" lon="4.20686">
        <ele>1277.64</ele>
        <time>2022-10-13T10:24:38.839Z</time>
      </trkpt>
      <trkpt lat="44.80877" lon="4.20668">
        <ele>1276.72</ele>
        <time>2022-10-13T10:24:47.999Z</time>
      </trkpt>
      <trkpt lat="44.80883" lon="4.20657">
        <ele>1276.2</ele>
        <time>2022-10-13T10:24:57.488Z</time>
      </trkpt>
      <trkpt lat="44.8089" lon="4.20642">
        <ele>1275.6</ele>
        <time>2022-10-13T10:25:06.846Z</time>
      </trkpt>
      <trkpt lat="44.80898" lon="4.20628">
        <ele>1275.07</ele>
        <time>2022-10-13T10:25:16.686Z</time>
      </trkpt>
      <trkpt lat="44.80904" lon="4.20612">
        <ele>1274.31</ele>
        <time>2022-10-13T10:25:26.051Z</time>
      </trkpt>
      <trkpt lat="44.8091" lon="4.20597">
        <ele>1273.62</ele>
        <time>2022-10-13T10:25:35.423Z</time>
      </trkpt>
      <trkpt lat="44.80917" lon="4.20581">
        <ele>1272.84</ele>
        <time>2022-10-13T10:25:45.363Z</time>
      </trkpt>
      <trkpt lat="44.80924" lon="4.20568">
        <ele>1272.29</ele>
        <time>2022-10-13T10:25:54.744Z</time>
      </trkpt>
      <trkpt lat="44.80933" lon="4.20555">
        <ele>1271.9</ele>
        <time>2022-10-13T10:26:04.061Z</time>
      </trkpt>
      <trkpt lat="44.80941" lon="4.2054">
        <ele>1271.36</ele>
        <time>2022-10-13T10:26:13.542Z</time>
      </trkpt>
      <trkpt lat="44.80948" lon="4.20524">
        <ele>1270.75</ele>
        <time>2022-10-13T10:26:22.860Z</time>
      </trkpt>
      <trkpt lat="44.80953" lon="4.20508">
        <ele>1270.16</ele>
        <time>2022-10-13T10:26:32.099Z</time>
      </trkpt>
      <trkpt lat="44.80961" lon="4.2049">
        <ele>1269.49</ele>
        <time>2022-10-13T10:26:41.446Z</time>
      </trkpt>
      <trkpt lat="44.80963" lon="4.20473">
        <ele>1268.5</ele>
        <time>2022-10-13T10:26:50.686Z</time>
      </trkpt>
      <trkpt lat="44.80963" lon="4.20458">
        <ele>1267.55</ele>
        <time>2022-10-13T10:26:59.906Z</time>
      </trkpt>
      <trkpt lat="44.80962" lon="4.20441">
        <ele>1266.38</ele>
        <time>2022-10-13T10:27:10.009Z</time>
      </trkpt>
      <trkpt lat="44.80956" lon="4.20429">
        <ele>1265.41</ele>
        <time>2022-10-13T10:27:20.663Z</time>
      </trkpt>
      <trkpt lat="44.80954" lon="4.20413">
        <ele>1264.46</ele>
        <time>2022-10-13T10:27:29.801Z</time>
      </trkpt>
      <trkpt lat="44.80954" lon="4.20395">
        <ele>1263.64</ele>
        <time>2022-10-13T10:27:39.840Z</time>
      </trkpt>
      <trkpt lat="44.80956" lon="4.2038">
        <ele>1263.09</ele>
        <time>2022-10-13T10:27:48.918Z</time>
      </trkpt>
      <trkpt lat="44.80955" lon="4.20364">
        <ele>1262.4</ele>
        <time>2022-10-13T10:27:58.361Z</time>
      </trkpt>
      <trkpt lat="44.80954" lon="4.20344">
        <ele>1261.55</ele>
        <time>2022-10-13T10:28:08.068Z</time>
      </trkpt>
      <trkpt lat="44.80954" lon="4.20324">
        <ele>1260.82</ele>
        <time>2022-10-13T10:28:17.946Z</time>
      </trkpt>
      <trkpt lat="44.80957" lon="4.20309">
        <ele>1260.39</ele>
        <time>2022-10-13T10:28:27.345Z</time>
      </trkpt>
      <trkpt lat="44.80954" lon="4.20289">
        <ele>1259.46</ele>
        <time>2022-10-13T10:28:36.483Z</time>
      </trkpt>
      <trkpt lat="44.80953" lon="4.20272">
        <ele>1258.82</ele>
        <time>2022-10-13T10:28:45.862Z</time>
      </trkpt>
      <trkpt lat="44.8095" lon="4.20255">
        <ele>1258.13</ele>
        <time>2022-10-13T10:28:55.204Z</time>
      </trkpt>
      <trkpt lat="44.80946" lon="4.20238">
        <ele>1257.46</ele>
        <time>2022-10-13T10:29:04.644Z</time>
      </trkpt>
      <trkpt lat="44.80941" lon="4.20222">
        <ele>1256.83</ele>
        <time>2022-10-13T10:29:14.061Z</time>
      </trkpt>
      <trkpt lat="44.80934" lon="4.20207">
        <ele>1256.06</ele>
        <time>2022-10-13T10:29:23.520Z</time>
      </trkpt>
      <trkpt lat="44.8093" lon="4.2019">
        <ele>1255.43</ele>
        <time>2022-10-13T10:29:32.862Z</time>
      </trkpt>
      <trkpt lat="44.80925" lon="4.20174">
        <ele>1254.7</ele>
        <time>2022-10-13T10:29:42.059Z</time>
      </trkpt>
      <trkpt lat="44.8092" lon="4.20159">
        <ele>1254.09</ele>
        <time>2022-10-13T10:29:51.400Z</time>
      </trkpt>
      <trkpt lat="44.80913" lon="4.20143">
        <ele>1253.49</ele>
        <time>2022-10-13T10:30:00.788Z</time>
      </trkpt>
      <trkpt lat="44.80907" lon="4.20128">
        <ele>1252.99</ele>
        <time>2022-10-13T10:30:10.108Z</time>
      </trkpt>
      <trkpt lat="44.80903" lon="4.20111">
        <ele>1252.63</ele>
        <time>2022-10-13T10:30:19.613Z</time>
      </trkpt>
      <trkpt lat="44.80897" lon="4.20097">
        <ele>1252.12</ele>
        <time>2022-10-13T10:30:28.994Z</time>
      </trkpt>
      <trkpt lat="44.80892" lon="4.2008">
        <ele>1251.53</ele>
        <time>2022-10-13T10:30:38.325Z</time>
      </trkpt>
      <trkpt lat="44.80886" lon="4.20065">
        <ele>1250.7</ele>
        <time>2022-10-13T10:30:47.623Z</time>
      </trkpt>
      <trkpt lat="44.80882" lon="4.20047">
        <ele>1249.89</ele>
        <time>2022-10-13T10:30:56.905Z</time>
      </trkpt>
      <trkpt lat="44.80876" lon="4.20032">
        <ele>1249.14</ele>
        <time>2022-10-13T10:31:06.342Z</time>
      </trkpt>
      <trkpt lat="44.80867" lon="4.20018">
        <ele>1248.4</ele>
        <time>2022-10-13T10:31:15.501Z</time>
      </trkpt>
      <trkpt lat="44.80861" lon="4.20001">
        <ele>1247.74</ele>
        <time>2022-10-13T10:31:24.879Z</time>
      </trkpt>
      <trkpt lat="44.80855" lon="4.19984">
        <ele>1247.03</ele>
        <time>2022-10-13T10:31:34.000Z</time>
      </trkpt>
      <trkpt lat="44.80849" lon="4.19968">
        <ele>1246.25</ele>
        <time>2022-10-13T10:31:44.006Z</time>
      </trkpt>
      <trkpt lat="44.80843" lon="4.19954">
        <ele>1245.5</ele>
        <time>2022-10-13T10:31:53.007Z</time>
      </trkpt>
      <trkpt lat="44.80835" lon="4.19939">
        <ele>1244.74</ele>
        <time>2022-10-13T10:32:02.305Z</time>
      </trkpt>
      <trkpt lat="44.80828" lon="4.19923">
        <ele>1244.13</ele>
        <time>2022-10-13T10:32:11.643Z</time>
      </trkpt>
      <trkpt lat="44.80823" lon="4.19906">
        <ele>1243.84</ele>
        <time>2022-10-13T10:32:21.005Z</time>
      </trkpt>
      <trkpt lat="44.80817" lon="4.19891">
        <ele>1243.84</ele>
        <time>2022-10-13T10:32:30.461Z</time>
      </trkpt>
      <trkpt lat="44.8081" lon="4.19873">
        <ele>1244.18</ele>
        <time>2022-10-13T10:32:40.662Z</time>
      </trkpt>
      <trkpt lat="44.80801" lon="4.19863">
        <ele>1244.91</ele>
        <time>2022-10-13T10:32:49.879Z</time>
      </trkpt>
      <trkpt lat="44.80791" lon="4.1985">
        <ele>1245.97</ele>
        <time>2022-10-13T10:32:59.639Z</time>
      </trkpt>
      <trkpt lat="44.80782" lon="4.19839">
        <ele>1247</ele>
        <time>2022-10-13T10:33:09.007Z</time>
      </trkpt>
      <trkpt lat="44.80772" lon="4.19831">
        <ele>1248</ele>
        <time>2022-10-13T10:33:18.284Z</time>
      </trkpt>
      <trkpt lat="44.80763" lon="4.19821">
        <ele>1248.85</ele>
        <time>2022-10-13T10:33:27.727Z</time>
      </trkpt>
      <trkpt lat="44.80754" lon="4.19808">
        <ele>1249.53</ele>
        <time>2022-10-13T10:33:37.167Z</time>
      </trkpt>
      <trkpt lat="44.8075" lon="4.19791">
        <ele>1249.88</ele>
        <time>2022-10-13T10:33:47.624Z</time>
      </trkpt>
      <trkpt lat="44.8075" lon="4.19775">
        <ele>1250.01</ele>
        <time>2022-10-13T10:33:57.482Z</time>
      </trkpt>
      <trkpt lat="44.80753" lon="4.19758">
        <ele>1249.99</ele>
        <time>2022-10-13T10:34:06.682Z</time>
      </trkpt>
      <trkpt lat="44.80753" lon="4.1974">
        <ele>1249.87</ele>
        <time>2022-10-13T10:34:16.358Z</time>
      </trkpt>
      <trkpt lat="44.80751" lon="4.19724">
        <ele>1249.65</ele>
        <time>2022-10-13T10:34:26.068Z</time>
      </trkpt>
      <trkpt lat="44.80749" lon="4.19708">
        <ele>1249.31</ele>
        <time>2022-10-13T10:34:35.607Z</time>
      </trkpt>
      <trkpt lat="44.80743" lon="4.19694">
        <ele>1248.88</ele>
        <time>2022-10-13T10:34:44.625Z</time>
      </trkpt>
      <trkpt lat="44.80733" lon="4.19682">
        <ele>1248.37</ele>
        <time>2022-10-13T10:34:53.785Z</time>
      </trkpt>
      <trkpt lat="44.80726" lon="4.19671">
        <ele>1247.7</ele>
        <time>2022-10-13T10:35:02.884Z</time>
      </trkpt>
      <trkpt lat="44.80727" lon="4.19655">
        <ele>1247.1</ele>
        <time>2022-10-13T10:35:12.041Z</time>
      </trkpt>
      <trkpt lat="44.80733" lon="4.1964">
        <ele>1246.7</ele>
        <time>2022-10-13T10:35:21.660Z</time>
      </trkpt>
      <trkpt lat="44.8074" lon="4.19624">
        <ele>1246.2</ele>
        <time>2022-10-13T10:35:31.061Z</time>
      </trkpt>
      <trkpt lat="44.80746" lon="4.19609">
        <ele>1245.57</ele>
        <time>2022-10-13T10:35:40.558Z</time>
      </trkpt>
      <trkpt lat="44.80754" lon="4.19593">
        <ele>1244.67</ele>
        <time>2022-10-13T10:35:50.000Z</time>
      </trkpt>
      <trkpt lat="44.80762" lon="4.19584">
        <ele>1243.87</ele>
        <time>2022-10-13T10:35:59.687Z</time>
      </trkpt>
      <trkpt lat="44.80768" lon="4.19569">
        <ele>1242.61</ele>
        <time>2022-10-13T10:36:09.386Z</time>
      </trkpt>
      <trkpt lat="44.80775" lon="4.19555">
        <ele>1241.34</ele>
        <time>2022-10-13T10:36:19.000Z</time>
      </trkpt>
      <trkpt lat="44.80776" lon="4.19543">
        <ele>1240.31</ele>
        <time>2022-10-13T10:36:28.564Z</time>
      </trkpt>
      <trkpt lat="44.80774" lon="4.19534">
        <ele>1239.62</ele>
        <time>2022-10-13T10:37:18.000Z</time>
      </trkpt>
      <trkpt lat="44.80774" lon="4.19521">
        <ele>1238.51</ele>
        <time>2022-10-13T11:04:58.000Z</time>
      </trkpt>
      <trkpt lat="44.80777" lon="4.19509">
        <ele>1237.42</ele>
        <time>2022-10-13T11:06:04.648Z</time>
      </trkpt>
      <trkpt lat="44.80777" lon="4.19493">
        <ele>1235.86</ele>
        <time>2022-10-13T11:06:14.846Z</time>
      </trkpt>
      <trkpt lat="44.80776" lon="4.19479">
        <ele>1234.32</ele>
        <time>2022-10-13T11:06:24.905Z</time>
      </trkpt>
      <trkpt lat="44.80775" lon="4.19465">
        <ele>1232.76</ele>
        <time>2022-10-13T11:06:34.996Z</time>
      </trkpt>
      <trkpt lat="44.8077" lon="4.19453">
        <ele>1231.24</ele>
        <time>2022-10-13T11:06:44.626Z</time>
      </trkpt>
      <trkpt lat="44.80758" lon="4.19453">
        <ele>1230.89</ele>
        <time>2022-10-13T11:06:54.000Z</time>
      </trkpt>
      <trkpt lat="44.80749" lon="4.19456">
        <ele>1230.88</ele>
        <time>2022-10-13T11:07:03.060Z</time>
      </trkpt>
      <trkpt lat="44.80739" lon="4.19457">
        <ele>1230.47</ele>
        <time>2022-10-13T11:07:13.041Z</time>
      </trkpt>
      <trkpt lat="44.80729" lon="4.19459">
        <ele>1229.92</ele>
        <time>2022-10-13T11:07:22.181Z</time>
      </trkpt>
      <trkpt lat="44.80717" lon="4.19464">
        <ele>1229.46</ele>
        <time>2022-10-13T11:07:31.858Z</time>
      </trkpt>
      <trkpt lat="44.80706" lon="4.19465">
        <ele>1228.59</ele>
        <time>2022-10-13T11:07:41.022Z</time>
      </trkpt>
      <trkpt lat="44.80695" lon="4.19469">
        <ele>1227.75</ele>
        <time>2022-10-13T11:07:50.477Z</time>
      </trkpt>
      <trkpt lat="44.80684" lon="4.19473">
        <ele>1227.05</ele>
        <time>2022-10-13T11:07:59.948Z</time>
      </trkpt>
      <trkpt lat="44.80672" lon="4.19476">
        <ele>1225.97</ele>
        <time>2022-10-13T11:08:09.387Z</time>
      </trkpt>
      <trkpt lat="44.8066" lon="4.19478">
        <ele>1224.78</ele>
        <time>2022-10-13T11:08:18.785Z</time>
      </trkpt>
      <trkpt lat="44.80648" lon="4.19481">
        <ele>1223.52</ele>
        <time>2022-10-13T11:08:28.222Z</time>
      </trkpt>
      <trkpt lat="44.80637" lon="4.19479">
        <ele>1221.63</ele>
        <time>2022-10-13T11:08:37.542Z</time>
      </trkpt>
      <trkpt lat="44.80625" lon="4.19477">
        <ele>1219.69</ele>
        <time>2022-10-13T11:08:46.901Z</time>
      </trkpt>
      <trkpt lat="44.80615" lon="4.19474">
        <ele>1217.97</ele>
        <time>2022-10-13T11:08:56.439Z</time>
      </trkpt>
      <trkpt lat="44.80604" lon="4.1947">
        <ele>1216.18</ele>
        <time>2022-10-13T11:09:05.858Z</time>
      </trkpt>
      <trkpt lat="44.80591" lon="4.19472">
        <ele>1214.94</ele>
        <time>2022-10-13T11:09:14.999Z</time>
      </trkpt>
      <trkpt lat="44.8058" lon="4.19472">
        <ele>1214.2</ele>
        <time>2022-10-13T11:09:24.625Z</time>
      </trkpt>
      <trkpt lat="44.80567" lon="4.19472">
        <ele>1213.8</ele>
        <time>2022-10-13T11:09:33.946Z</time>
      </trkpt>
      <trkpt lat="44.80555" lon="4.19472">
        <ele>1213.67</ele>
        <time>2022-10-13T11:09:43.523Z</time>
      </trkpt>
      <trkpt lat="44.80543" lon="4.19473">
        <ele>1213.84</ele>
        <time>2022-10-13T11:09:52.903Z</time>
      </trkpt>
      <trkpt lat="44.80531" lon="4.19474">
        <ele>1214.14</ele>
        <time>2022-10-13T11:10:02.443Z</time>
      </trkpt>
      <trkpt lat="44.80518" lon="4.19476">
        <ele>1214.52</ele>
        <time>2022-10-13T11:10:11.840Z</time>
      </trkpt>
      <trkpt lat="44.80506" lon="4.19477">
        <ele>1214.86</ele>
        <time>2022-10-13T11:10:20.849Z</time>
      </trkpt>
      <trkpt lat="44.80495" lon="4.19479">
        <ele>1215.14</ele>
        <time>2022-10-13T11:10:29.907Z</time>
      </trkpt>
      <trkpt lat="44.80483" lon="4.19482">
        <ele>1215.51</ele>
        <time>2022-10-13T11:10:39.587Z</time>
      </trkpt>
      <trkpt lat="44.80472" lon="4.19484">
        <ele>1215.88</ele>
        <time>2022-10-13T11:10:48.768Z</time>
      </trkpt>
      <trkpt lat="44.80463" lon="4.19489">
        <ele>1216.23</ele>
        <time>2022-10-13T11:11:00.266Z</time>
      </trkpt>
      <trkpt lat="44.80453" lon="4.19497">
        <ele>1216.62</ele>
        <time>2022-10-13T11:11:09.545Z</time>
      </trkpt>
      <trkpt lat="44.80445" lon="4.19509">
        <ele>1216.91</ele>
        <time>2022-10-13T11:11:18.825Z</time>
      </trkpt>
      <trkpt lat="44.80436" lon="4.1952">
        <ele>1217.1</ele>
        <time>2022-10-13T11:11:27.990Z</time>
      </trkpt>
      <trkpt lat="44.80428" lon="4.19534">
        <ele>1217.16</ele>
        <time>2022-10-13T11:11:37.198Z</time>
      </trkpt>
      <trkpt lat="44.80419" lon="4.19546">
        <ele>1217.02</ele>
        <time>2022-10-13T11:11:46.342Z</time>
      </trkpt>
      <trkpt lat="44.80408" lon="4.19554">
        <ele>1216.51</ele>
        <time>2022-10-13T11:11:55.600Z</time>
      </trkpt>
      <trkpt lat="44.80395" lon="4.19548">
        <ele>1215.78</ele>
        <time>2022-10-13T11:12:04.609Z</time>
      </trkpt>
      <trkpt lat="44.80386" lon="4.19535">
        <ele>1215.64</ele>
        <time>2022-10-13T11:12:13.894Z</time>
      </trkpt>
      <trkpt lat="44.8038" lon="4.19518">
        <ele>1216.05</ele>
        <time>2022-10-13T11:12:23.388Z</time>
      </trkpt>
      <trkpt lat="44.80372" lon="4.19504">
        <ele>1216.47</ele>
        <time>2022-10-13T11:12:32.932Z</time>
      </trkpt>
      <trkpt lat="44.80365" lon="4.19491">
        <ele>1216.92</ele>
        <time>2022-10-13T11:12:41.944Z</time>
      </trkpt>
      <trkpt lat="44.80357" lon="4.19479">
        <ele>1217.35</ele>
        <time>2022-10-13T11:12:51.263Z</time>
      </trkpt>
      <trkpt lat="44.80351" lon="4.19465">
        <ele>1217.85</ele>
        <time>2022-10-13T11:13:00.429Z</time>
      </trkpt>
      <trkpt lat="44.80344" lon="4.19451">
        <ele>1218.28</ele>
        <time>2022-10-13T11:13:09.620Z</time>
      </trkpt>
      <trkpt lat="44.80338" lon="4.19438">
        <ele>1218.54</ele>
        <time>2022-10-13T11:13:18.701Z</time>
      </trkpt>
      <trkpt lat="44.80331" lon="4.19424">
        <ele>1218.65</ele>
        <time>2022-10-13T11:13:27.820Z</time>
      </trkpt>
      <trkpt lat="44.80323" lon="4.19409">
        <ele>1218.57</ele>
        <time>2022-10-13T11:13:37.842Z</time>
      </trkpt>
      <trkpt lat="44.80316" lon="4.19394">
        <ele>1218.39</ele>
        <time>2022-10-13T11:13:46.919Z</time>
      </trkpt>
      <trkpt lat="44.80308" lon="4.19382">
        <ele>1218.05</ele>
        <time>2022-10-13T11:13:56.016Z</time>
      </trkpt>
      <trkpt lat="44.80302" lon="4.19367">
        <ele>1217.91</ele>
        <time>2022-10-13T11:14:05.068Z</time>
      </trkpt>
      <trkpt lat="44.80297" lon="4.19352">
        <ele>1217.77</ele>
        <time>2022-10-13T11:14:14.546Z</time>
      </trkpt>
      <trkpt lat="44.80295" lon="4.19334">
        <ele>1217.73</ele>
        <time>2022-10-13T11:14:23.999Z</time>
      </trkpt>
      <trkpt lat="44.8029" lon="4.19321">
        <ele>1217.34</ele>
        <time>2022-10-13T11:14:34.063Z</time>
      </trkpt>
      <trkpt lat="44.80285" lon="4.19305">
        <ele>1216.63</ele>
        <time>2022-10-13T11:14:43.564Z</time>
      </trkpt>
      <trkpt lat="44.80281" lon="4.1929">
        <ele>1215.8</ele>
        <time>2022-10-13T11:14:52.923Z</time>
      </trkpt>
      <trkpt lat="44.80276" lon="4.19274">
        <ele>1214.81</ele>
        <time>2022-10-13T11:15:02.419Z</time>
      </trkpt>
      <trkpt lat="44.80272" lon="4.19257">
        <ele>1213.82</ele>
        <time>2022-10-13T11:15:11.860Z</time>
      </trkpt>
      <trkpt lat="44.80269" lon="4.19239">
        <ele>1212.97</ele>
        <time>2022-10-13T11:15:21.787Z</time>
      </trkpt>
      <trkpt lat="44.80265" lon="4.19224">
        <ele>1212.19</ele>
        <time>2022-10-13T11:15:30.914Z</time>
      </trkpt>
      <trkpt lat="44.8026" lon="4.1921">
        <ele>1211.43</ele>
        <time>2022-10-13T11:15:40.506Z</time>
      </trkpt>
      <trkpt lat="44.80254" lon="4.19194">
        <ele>1210.71</ele>
        <time>2022-10-13T11:15:50.062Z</time>
      </trkpt>
      <trkpt lat="44.80252" lon="4.19177">
        <ele>1210.22</ele>
        <time>2022-10-13T11:15:59.465Z</time>
      </trkpt>
      <trkpt lat="44.80247" lon="4.19162">
        <ele>1209.85</ele>
        <time>2022-10-13T11:16:08.940Z</time>
      </trkpt>
      <trkpt lat="44.80242" lon="4.19147">
        <ele>1209.52</ele>
        <time>2022-10-13T11:16:18.341Z</time>
      </trkpt>
      <trkpt lat="44.80237" lon="4.19131">
        <ele>1209.24</ele>
        <time>2022-10-13T11:16:27.880Z</time>
      </trkpt>
      <trkpt lat="44.80231" lon="4.19115">
        <ele>1209.03</ele>
        <time>2022-10-13T11:16:37.459Z</time>
      </trkpt>
      <trkpt lat="44.80227" lon="4.19098">
        <ele>1209.1</ele>
        <time>2022-10-13T11:16:47.008Z</time>
      </trkpt>
      <trkpt lat="44.80221" lon="4.19083">
        <ele>1209.16</ele>
        <time>2022-10-13T11:16:56.547Z</time>
      </trkpt>
      <trkpt lat="44.80214" lon="4.19068">
        <ele>1209.35</ele>
        <time>2022-10-13T11:17:06.106Z</time>
      </trkpt>
      <trkpt lat="44.80205" lon="4.19057">
        <ele>1209.31</ele>
        <time>2022-10-13T11:17:15.664Z</time>
      </trkpt>
      <trkpt lat="44.80195" lon="4.19049">
        <ele>1208.97</ele>
        <time>2022-10-13T11:17:24.682Z</time>
      </trkpt>
      <trkpt lat="44.80184" lon="4.19043">
        <ele>1208.38</ele>
        <time>2022-10-13T11:17:33.821Z</time>
      </trkpt>
      <trkpt lat="44.80172" lon="4.19036">
        <ele>1207.75</ele>
        <time>2022-10-13T11:17:43.819Z</time>
      </trkpt>
      <trkpt lat="44.8016" lon="4.19028">
        <ele>1207.28</ele>
        <time>2022-10-13T11:17:52.878Z</time>
      </trkpt>
      <trkpt lat="44.80149" lon="4.19019">
        <ele>1206.99</ele>
        <time>2022-10-13T11:18:02.696Z</time>
      </trkpt>
      <trkpt lat="44.80138" lon="4.1901">
        <ele>1206.79</ele>
        <time>2022-10-13T11:18:12.726Z</time>
      </trkpt>
      <trkpt lat="44.80128" lon="4.18997">
        <ele>1206.81</ele>
        <time>2022-10-13T11:18:22.667Z</time>
      </trkpt>
      <trkpt lat="44.80119" lon="4.18986">
        <ele>1206.67</ele>
        <time>2022-10-13T11:18:31.786Z</time>
      </trkpt>
      <trkpt lat="44.80111" lon="4.18974">
        <ele>1206.56</ele>
        <time>2022-10-13T11:18:41.245Z</time>
      </trkpt>
      <trkpt lat="44.80101" lon="4.18962">
        <ele>1206.19</ele>
        <time>2022-10-13T11:18:50.743Z</time>
      </trkpt>
      <trkpt lat="44.80092" lon="4.18951">
        <ele>1205.75</ele>
        <time>2022-10-13T11:19:00.824Z</time>
      </trkpt>
      <trkpt lat="44.80083" lon="4.1894">
        <ele>1205.3</ele>
        <time>2022-10-13T11:19:10.007Z</time>
      </trkpt>
      <trkpt lat="44.80073" lon="4.1893">
        <ele>1204.78</ele>
        <time>2022-10-13T11:19:19.018Z</time>
      </trkpt>
      <trkpt lat="44.80064" lon="4.1892">
        <ele>1204.42</ele>
        <time>2022-10-13T11:19:28.062Z</time>
      </trkpt>
      <trkpt lat="44.80054" lon="4.1891">
        <ele>1203.98</ele>
        <time>2022-10-13T11:19:37.702Z</time>
      </trkpt>
      <trkpt lat="44.80045" lon="4.18897">
        <ele>1203.7</ele>
        <time>2022-10-13T11:19:47.779Z</time>
      </trkpt>
      <trkpt lat="44.80038" lon="4.18886">
        <ele>1203.36</ele>
        <time>2022-10-13T11:19:56.918Z</time>
      </trkpt>
      <trkpt lat="44.8003" lon="4.18872">
        <ele>1202.86</ele>
        <time>2022-10-13T11:20:06.527Z</time>
      </trkpt>
      <trkpt lat="44.80023" lon="4.18862">
        <ele>1202.3</ele>
        <time>2022-10-13T11:20:16.005Z</time>
      </trkpt>
      <trkpt lat="44.80014" lon="4.18867">
        <ele>1201.5</ele>
        <time>2022-10-13T11:20:26.000Z</time>
      </trkpt>
      <trkpt lat="44.80005" lon="4.18867">
        <ele>1200.64</ele>
        <time>2022-10-13T11:20:40.765Z</time>
      </trkpt>
      <trkpt lat="44.79995" lon="4.18866">
        <ele>1199.82</ele>
        <time>2022-10-13T11:20:51.765Z</time>
      </trkpt>
      <trkpt lat="44.7999" lon="4.18877">
        <ele>1199.25</ele>
        <time>2022-10-13T11:21:16.000Z</time>
      </trkpt>
      <trkpt lat="44.79987" lon="4.1889">
        <ele>1198.81</ele>
        <time>2022-10-13T11:22:49.268Z</time>
      </trkpt>
      <trkpt lat="44.79986" lon="4.18908">
        <ele>1198.11</ele>
        <time>2022-10-13T11:22:58.526Z</time>
      </trkpt>
      <trkpt lat="44.79983" lon="4.18927">
        <ele>1196.61</ele>
        <time>2022-10-13T11:23:08.000Z</time>
      </trkpt>
      <trkpt lat="44.79982" lon="4.18941">
        <ele>1195.06</ele>
        <time>2022-10-13T11:23:17.081Z</time>
      </trkpt>
      <trkpt lat="44.79986" lon="4.18957">
        <ele>1193.68</ele>
        <time>2022-10-13T11:23:26.639Z</time>
      </trkpt>
      <trkpt lat="44.79991" lon="4.18971">
        <ele>1192.64</ele>
        <time>2022-10-13T11:23:35.751Z</time>
      </trkpt>
      <trkpt lat="44.79993" lon="4.18988">
        <ele>1191.14</ele>
        <time>2022-10-13T11:23:45.345Z</time>
      </trkpt>
      <trkpt lat="44.79995" lon="4.19004">
        <ele>1190.09</ele>
        <time>2022-10-13T11:23:54.905Z</time>
      </trkpt>
      <trkpt lat="44.79997" lon="4.19022">
        <ele>1188.73</ele>
        <time>2022-10-13T11:24:04.845Z</time>
      </trkpt>
      <trkpt lat="44.79996" lon="4.19038">
        <ele>1187.44</ele>
        <time>2022-10-13T11:24:13.866Z</time>
      </trkpt>
      <trkpt lat="44.79994" lon="4.19056">
        <ele>1186.24</ele>
        <time>2022-10-13T11:24:23.425Z</time>
      </trkpt>
      <trkpt lat="44.79991" lon="4.19072">
        <ele>1185.63</ele>
        <time>2022-10-13T11:24:32.805Z</time>
      </trkpt>
      <trkpt lat="44.79984" lon="4.19087">
        <ele>1185.74</ele>
        <time>2022-10-13T11:24:42.405Z</time>
      </trkpt>
      <trkpt lat="44.79974" lon="4.19099">
        <ele>1186.5</ele>
        <time>2022-10-13T11:24:51.723Z</time>
      </trkpt>
      <trkpt lat="44.79964" lon="4.19107">
        <ele>1187.52</ele>
        <time>2022-10-13T11:25:00.861Z</time>
      </trkpt>
      <trkpt lat="44.79954" lon="4.19116">
        <ele>1188.74</ele>
        <time>2022-10-13T11:25:10.004Z</time>
      </trkpt>
      <trkpt lat="44.79945" lon="4.19125">
        <ele>1190.08</ele>
        <time>2022-10-13T11:25:19.581Z</time>
      </trkpt>
      <trkpt lat="44.79936" lon="4.19135">
        <ele>1191.41</ele>
        <time>2022-10-13T11:25:28.793Z</time>
      </trkpt>
      <trkpt lat="44.79927" lon="4.19143">
        <ele>1192.5</ele>
        <time>2022-10-13T11:25:38.153Z</time>
      </trkpt>
      <trkpt lat="44.79919" lon="4.19152">
        <ele>1193.58</ele>
        <time>2022-10-13T11:25:47.665Z</time>
      </trkpt>
      <trkpt lat="44.79911" lon="4.19164">
        <ele>1194.95</ele>
        <time>2022-10-13T11:25:57.823Z</time>
      </trkpt>
      <trkpt lat="44.79902" lon="4.19176">
        <ele>1196.38</ele>
        <time>2022-10-13T11:26:07.820Z</time>
      </trkpt>
      <trkpt lat="44.79895" lon="4.19187">
        <ele>1197.73</ele>
        <time>2022-10-13T11:26:17.361Z</time>
      </trkpt>
      <trkpt lat="44.7989" lon="4.19201">
        <ele>1199.16</ele>
        <time>2022-10-13T11:26:26.680Z</time>
      </trkpt>
      <trkpt lat="44.79884" lon="4.19214">
        <ele>1200.56</ele>
        <time>2022-10-13T11:26:35.799Z</time>
      </trkpt>
      <trkpt lat="44.79878" lon="4.19227">
        <ele>1201.99</ele>
        <time>2022-10-13T11:26:45.008Z</time>
      </trkpt>
      <trkpt lat="44.79873" lon="4.19241">
        <ele>1203.42</ele>
        <time>2022-10-13T11:26:54.428Z</time>
      </trkpt>
      <trkpt lat="44.79868" lon="4.19255">
        <ele>1204.76</ele>
        <time>2022-10-13T11:27:03.926Z</time>
      </trkpt>
      <trkpt lat="44.79863" lon="4.19268">
        <ele>1206.01</ele>
        <time>2022-10-13T11:27:13.466Z</time>
      </trkpt>
      <trkpt lat="44.79857" lon="4.19281">
        <ele>1207.23</ele>
        <time>2022-10-13T11:27:22.905Z</time>
      </trkpt>
      <trkpt lat="44.79854" lon="4.19296">
        <ele>1208.39</ele>
        <time>2022-10-13T11:27:32.345Z</time>
      </trkpt>
      <trkpt lat="44.79856" lon="4.1931">
        <ele>1209.38</ele>
        <time>2022-10-13T11:27:41.884Z</time>
      </trkpt>
      <trkpt lat="44.79859" lon="4.19322">
        <ele>1210.26</ele>
        <time>2022-10-13T11:27:51.882Z</time>
      </trkpt>
      <trkpt lat="44.79857" lon="4.19336">
        <ele>1211.26</ele>
        <time>2022-10-13T11:28:01.079Z</time>
      </trkpt>
      <trkpt lat="44.79855" lon="4.1935">
        <ele>1212.24</ele>
        <time>2022-10-13T11:28:10.259Z</time>
      </trkpt>
      <trkpt lat="44.79857" lon="4.19364">
        <ele>1213.21</ele>
        <time>2022-10-13T11:28:19.526Z</time>
      </trkpt>
      <trkpt lat="44.7986" lon="4.19376">
        <ele>1214.2</ele>
        <time>2022-10-13T11:28:28.686Z</time>
      </trkpt>
      <trkpt lat="44.79863" lon="4.19389">
        <ele>1215.36</ele>
        <time>2022-10-13T11:28:37.905Z</time>
      </trkpt>
      <trkpt lat="44.79867" lon="4.19403">
        <ele>1216.79</ele>
        <time>2022-10-13T11:28:47.764Z</time>
      </trkpt>
      <trkpt lat="44.79872" lon="4.19415">
        <ele>1218.26</ele>
        <time>2022-10-13T11:28:57.824Z</time>
      </trkpt>
      <trkpt lat="44.79877" lon="4.19427">
        <ele>1219.79</ele>
        <time>2022-10-13T11:29:08.121Z</time>
      </trkpt>
      <trkpt lat="44.79881" lon="4.19437">
        <ele>1221.34</ele>
        <time>2022-10-13T11:29:17.442Z</time>
      </trkpt>
      <trkpt lat="44.79887" lon="4.19449">
        <ele>1223.05</ele>
        <time>2022-10-13T11:29:28.679Z</time>
      </trkpt>
      <trkpt lat="44.7989" lon="4.19462">
        <ele>1224.81</ele>
        <time>2022-10-13T11:29:40.047Z</time>
      </trkpt>
      <trkpt lat="44.79895" lon="4.19474">
        <ele>1226.6</ele>
        <time>2022-10-13T11:29:52.105Z</time>
      </trkpt>
      <trkpt lat="44.799" lon="4.19485">
        <ele>1228.28</ele>
        <time>2022-10-13T11:30:03.905Z</time>
      </trkpt>
      <trkpt lat="44.79905" lon="4.19497">
        <ele>1229.87</ele>
        <time>2022-10-13T11:30:13.604Z</time>
      </trkpt>
      <trkpt lat="44.79912" lon="4.19507">
        <ele>1231.38</ele>
        <time>2022-10-13T11:30:23.005Z</time>
      </trkpt>
      <trkpt lat="44.79917" lon="4.19518">
        <ele>1232.68</ele>
        <time>2022-10-13T11:30:32.551Z</time>
      </trkpt>
      <trkpt lat="44.79919" lon="4.19531">
        <ele>1233.92</ele>
        <time>2022-10-13T11:30:42.025Z</time>
      </trkpt>
      <trkpt lat="44.79922" lon="4.19545">
        <ele>1235.2</ele>
        <time>2022-10-13T11:30:51.945Z</time>
      </trkpt>
      <trkpt lat="44.79923" lon="4.19558">
        <ele>1236.32</ele>
        <time>2022-10-13T11:31:02.004Z</time>
      </trkpt>
      <trkpt lat="44.79927" lon="4.19574">
        <ele>1237.54</ele>
        <time>2022-10-13T11:31:12.004Z</time>
      </trkpt>
      <trkpt lat="44.79929" lon="4.19588">
        <ele>1238.49</ele>
        <time>2022-10-13T11:31:21.101Z</time>
      </trkpt>
      <trkpt lat="44.79931" lon="4.19602">
        <ele>1239.4</ele>
        <time>2022-10-13T11:31:30.661Z</time>
      </trkpt>
      <trkpt lat="44.7993" lon="4.19618">
        <ele>1240.32</ele>
        <time>2022-10-13T11:31:40.800Z</time>
      </trkpt>
      <trkpt lat="44.7993" lon="4.19635">
        <ele>1241.22</ele>
        <time>2022-10-13T11:31:50.697Z</time>
      </trkpt>
      <trkpt lat="44.7993" lon="4.1965">
        <ele>1241.98</ele>
        <time>2022-10-13T11:32:00.116Z</time>
      </trkpt>
      <trkpt lat="44.79929" lon="4.19665">
        <ele>1242.87</ele>
        <time>2022-10-13T11:32:09.569Z</time>
      </trkpt>
      <trkpt lat="44.79927" lon="4.1968">
        <ele>1243.78</ele>
        <time>2022-10-13T11:32:18.587Z</time>
      </trkpt>
      <trkpt lat="44.79926" lon="4.19696">
        <ele>1244.66</ele>
        <time>2022-10-13T11:32:27.905Z</time>
      </trkpt>
      <trkpt lat="44.79922" lon="4.19712">
        <ele>1245.62</ele>
        <time>2022-10-13T11:32:37.905Z</time>
      </trkpt>
      <trkpt lat="44.79921" lon="4.19728">
        <ele>1246.53</ele>
        <time>2022-10-13T11:32:47.463Z</time>
      </trkpt>
      <trkpt lat="44.79921" lon="4.19743">
        <ele>1247.52</ele>
        <time>2022-10-13T11:32:56.800Z</time>
      </trkpt>
      <trkpt lat="44.79921" lon="4.19758">
        <ele>1248.65</ele>
        <time>2022-10-13T11:33:06.282Z</time>
      </trkpt>
      <trkpt lat="44.79921" lon="4.19774">
        <ele>1249.99</ele>
        <time>2022-10-13T11:33:15.622Z</time>
      </trkpt>
      <trkpt lat="44.7992" lon="4.19791">
        <ele>1251.56</ele>
        <time>2022-10-13T11:33:24.780Z</time>
      </trkpt>
      <trkpt lat="44.79921" lon="4.19804">
        <ele>1252.71</ele>
        <time>2022-10-13T11:33:34.380Z</time>
      </trkpt>
      <trkpt lat="44.7992" lon="4.19817">
        <ele>1253.87</ele>
        <time>2022-10-13T11:33:44.787Z</time>
      </trkpt>
      <trkpt lat="44.79918" lon="4.19832">
        <ele>1254.89</ele>
        <time>2022-10-13T11:33:53.788Z</time>
      </trkpt>
      <trkpt lat="44.79915" lon="4.19847">
        <ele>1255.7</ele>
        <time>2022-10-13T11:34:03.888Z</time>
      </trkpt>
      <trkpt lat="44.79912" lon="4.19863">
        <ele>1256.34</ele>
        <time>2022-10-13T11:34:14.009Z</time>
      </trkpt>
      <trkpt lat="44.7991" lon="4.19879">
        <ele>1256.82</ele>
        <time>2022-10-13T11:34:23.165Z</time>
      </trkpt>
      <trkpt lat="44.79906" lon="4.19894">
        <ele>1257.15</ele>
        <time>2022-10-13T11:34:32.706Z</time>
      </trkpt>
      <trkpt lat="44.79903" lon="4.19911">
        <ele>1257.5</ele>
        <time>2022-10-13T11:34:42.104Z</time>
      </trkpt>
      <trkpt lat="44.79898" lon="4.19927">
        <ele>1257.79</ele>
        <time>2022-10-13T11:34:51.504Z</time>
      </trkpt>
      <trkpt lat="44.79892" lon="4.19942">
        <ele>1257.94</ele>
        <time>2022-10-13T11:35:00.582Z</time>
      </trkpt>
      <trkpt lat="44.79889" lon="4.19959">
        <ele>1258.3</ele>
        <time>2022-10-13T11:35:10.004Z</time>
      </trkpt>
      <trkpt lat="44.79888" lon="4.19976">
        <ele>1258.73</ele>
        <time>2022-10-13T11:35:19.164Z</time>
      </trkpt>
      <trkpt lat="44.79885" lon="4.19993">
        <ele>1258.99</ele>
        <time>2022-10-13T11:35:28.520Z</time>
      </trkpt>
      <trkpt lat="44.79882" lon="4.20011">
        <ele>1259.12</ele>
        <time>2022-10-13T11:35:38.466Z</time>
      </trkpt>
      <trkpt lat="44.79878" lon="4.20028">
        <ele>1259.02</ele>
        <time>2022-10-13T11:35:47.525Z</time>
      </trkpt>
      <trkpt lat="44.79876" lon="4.20044">
        <ele>1258.94</ele>
        <time>2022-10-13T11:35:56.765Z</time>
      </trkpt>
      <trkpt lat="44.79872" lon="4.2006">
        <ele>1258.83</ele>
        <time>2022-10-13T11:36:05.976Z</time>
      </trkpt>
      <trkpt lat="44.79868" lon="4.20076">
        <ele>1258.76</ele>
        <time>2022-10-13T11:36:15.223Z</time>
      </trkpt>
      <trkpt lat="44.79867" lon="4.20091">
        <ele>1258.98</ele>
        <time>2022-10-13T11:36:24.382Z</time>
      </trkpt>
      <trkpt lat="44.79864" lon="4.2011">
        <ele>1259.25</ele>
        <time>2022-10-13T11:36:33.883Z</time>
      </trkpt>
      <trkpt lat="44.79863" lon="4.20126">
        <ele>1259.66</ele>
        <time>2022-10-13T11:36:43.461Z</time>
      </trkpt>
      <trkpt lat="44.79862" lon="4.20141">
        <ele>1260.05</ele>
        <time>2022-10-13T11:36:52.802Z</time>
      </trkpt>
      <trkpt lat="44.79858" lon="4.20157">
        <ele>1260.45</ele>
        <time>2022-10-13T11:37:02.738Z</time>
      </trkpt>
      <trkpt lat="44.79854" lon="4.20173">
        <ele>1260.86</ele>
        <time>2022-10-13T11:37:12.046Z</time>
      </trkpt>
      <trkpt lat="44.79849" lon="4.2019">
        <ele>1261.35</ele>
        <time>2022-10-13T11:37:21.895Z</time>
      </trkpt>
      <trkpt lat="44.79846" lon="4.20207">
        <ele>1261.89</ele>
        <time>2022-10-13T11:37:31.406Z</time>
      </trkpt>
      <trkpt lat="44.79842" lon="4.20221">
        <ele>1262.33</ele>
        <time>2022-10-13T11:37:40.483Z</time>
      </trkpt>
      <trkpt lat="44.79838" lon="4.20237">
        <ele>1262.73</ele>
        <time>2022-10-13T11:37:50.062Z</time>
      </trkpt>
      <trkpt lat="44.79834" lon="4.20253">
        <ele>1263.08</ele>
        <time>2022-10-13T11:37:59.561Z</time>
      </trkpt>
      <trkpt lat="44.79832" lon="4.20268">
        <ele>1263.41</ele>
        <time>2022-10-13T11:38:08.600Z</time>
      </trkpt>
      <trkpt lat="44.7983" lon="4.20283">
        <ele>1263.71</ele>
        <time>2022-10-13T11:38:17.920Z</time>
      </trkpt>
      <trkpt lat="44.79828" lon="4.20298">
        <ele>1263.92</ele>
        <time>2022-10-13T11:38:27.032Z</time>
      </trkpt>
      <trkpt lat="44.79828" lon="4.20315">
        <ele>1264.32</ele>
        <time>2022-10-13T11:38:36.044Z</time>
      </trkpt>
      <trkpt lat="44.79826" lon="4.20332">
        <ele>1264.72</ele>
        <time>2022-10-13T11:38:45.566Z</time>
      </trkpt>
      <trkpt lat="44.79824" lon="4.20348">
        <ele>1265.14</ele>
        <time>2022-10-13T11:38:54.673Z</time>
      </trkpt>
      <trkpt lat="44.7982" lon="4.20363">
        <ele>1265.56</ele>
        <time>2022-10-13T11:39:04.082Z</time>
      </trkpt>
      <trkpt lat="44.79818" lon="4.2038">
        <ele>1266.16</ele>
        <time>2022-10-13T11:39:13.604Z</time>
      </trkpt>
      <trkpt lat="44.79808" lon="4.20393">
        <ele>1266.25</ele>
        <time>2022-10-13T11:39:23.061Z</time>
      </trkpt>
      <trkpt lat="44.79798" lon="4.204">
        <ele>1266.07</ele>
        <time>2022-10-13T11:39:32.100Z</time>
      </trkpt>
      <trkpt lat="44.79789" lon="4.20413">
        <ele>1266.2</ele>
        <time>2022-10-13T11:39:41.459Z</time>
      </trkpt>
      <trkpt lat="44.79782" lon="4.20421">
        <ele>1266.27</ele>
        <time>2022-10-13T11:39:51.186Z</time>
      </trkpt>
      <trkpt lat="44.79775" lon="4.20435">
        <ele>1266.69</ele>
        <time>2022-10-13T11:40:00.246Z</time>
      </trkpt>
      <trkpt lat="44.79768" lon="4.20447">
        <ele>1267.13</ele>
        <time>2022-10-13T11:40:09.540Z</time>
      </trkpt>
      <trkpt lat="44.79762" lon="4.20458">
        <ele>1267.68</ele>
        <time>2022-10-13T11:40:18.706Z</time>
      </trkpt>
      <trkpt lat="44.79763" lon="4.20474">
        <ele>1268.63</ele>
        <time>2022-10-13T11:40:28.008Z</time>
      </trkpt>
      <trkpt lat="44.79758" lon="4.20487">
        <ele>1269.31</ele>
        <time>2022-10-13T11:40:37.022Z</time>
      </trkpt>
      <trkpt lat="44.79748" lon="4.20496">
        <ele>1269.81</ele>
        <time>2022-10-13T11:40:46.521Z</time>
      </trkpt>
      <trkpt lat="44.7974" lon="4.20509">
        <ele>1270.53</ele>
        <time>2022-10-13T11:40:55.901Z</time>
      </trkpt>
      <trkpt lat="44.7973" lon="4.20516">
        <ele>1271.02</ele>
        <time>2022-10-13T11:41:05.421Z</time>
      </trkpt>
      <trkpt lat="44.7972" lon="4.20523">
        <ele>1271.55</ele>
        <time>2022-10-13T11:41:14.659Z</time>
      </trkpt>
      <trkpt lat="44.79709" lon="4.20527">
        <ele>1272.03</ele>
        <time>2022-10-13T11:41:23.928Z</time>
      </trkpt>
      <trkpt lat="44.797" lon="4.20535">
        <ele>1272.63</ele>
        <time>2022-10-13T11:41:33.386Z</time>
      </trkpt>
      <trkpt lat="44.7969" lon="4.20544">
        <ele>1273.21</ele>
        <time>2022-10-13T11:41:42.567Z</time>
      </trkpt>
      <trkpt lat="44.7968" lon="4.20553">
        <ele>1273.75</ele>
        <time>2022-10-13T11:41:51.904Z</time>
      </trkpt>
      <trkpt lat="44.79675" lon="4.20566">
        <ele>1274.35</ele>
        <time>2022-10-13T11:42:01.262Z</time>
      </trkpt>
      <trkpt lat="44.7967" lon="4.2058">
        <ele>1274.91</ele>
        <time>2022-10-13T11:42:10.561Z</time>
      </trkpt>
      <trkpt lat="44.79668" lon="4.20593">
        <ele>1275.33</ele>
        <time>2022-10-13T11:42:22.862Z</time>
      </trkpt>
      <trkpt lat="44.79661" lon="4.2061">
        <ele>1275.66</ele>
        <time>2022-10-13T11:42:32.839Z</time>
      </trkpt>
      <trkpt lat="44.79648" lon="4.20618">
        <ele>1275.35</ele>
        <time>2022-10-13T11:42:42.661Z</time>
      </trkpt>
      <trkpt lat="44.79637" lon="4.20624">
        <ele>1274.83</ele>
        <time>2022-10-13T11:42:51.809Z</time>
      </trkpt>
      <trkpt lat="44.79627" lon="4.20631">
        <ele>1274.2</ele>
        <time>2022-10-13T11:43:01.688Z</time>
      </trkpt>
      <trkpt lat="44.79618" lon="4.20643">
        <ele>1273.56</ele>
        <time>2022-10-13T11:43:10.999Z</time>
      </trkpt>
      <trkpt lat="44.79605" lon="4.20645">
        <ele>1272.54</ele>
        <time>2022-10-13T11:43:21.007Z</time>
      </trkpt>
      <trkpt lat="44.79595" lon="4.20649">
        <ele>1271.76</ele>
        <time>2022-10-13T11:43:30.203Z</time>
      </trkpt>
      <trkpt lat="44.79585" lon="4.20643">
        <ele>1271.02</ele>
        <time>2022-10-13T11:43:39.685Z</time>
      </trkpt>
      <trkpt lat="44.79583" lon="4.20629">
        <ele>1271.01</ele>
        <time>2022-10-13T11:43:49.013Z</time>
      </trkpt>
      <trkpt lat="44.79574" lon="4.20633">
        <ele>1270.43</ele>
        <time>2022-10-13T11:44:45.018Z</time>
      </trkpt>
      <trkpt lat="44.79565" lon="4.20633">
        <ele>1269.8</ele>
        <time>2022-10-13T11:44:54.431Z</time>
      </trkpt>
      <trkpt lat="44.79556" lon="4.20638">
        <ele>1269.21</ele>
        <time>2022-10-13T11:45:04.104Z</time>
      </trkpt>
      <trkpt lat="44.79548" lon="4.20644">
        <ele>1268.68</ele>
        <time>2022-10-13T11:47:41.000Z</time>
      </trkpt>
      <trkpt lat="44.79549" lon="4.20657">
        <ele>1268.78</ele>
        <time>2022-10-13T11:47:50.402Z</time>
      </trkpt>
      <trkpt lat="44.79545" lon="4.20674">
        <ele>1268.66</ele>
        <time>2022-10-13T11:47:59.762Z</time>
      </trkpt>
      <trkpt lat="44.7954" lon="4.2069">
        <ele>1268.53</ele>
        <time>2022-10-13T11:48:09.721Z</time>
      </trkpt>
      <trkpt lat="44.79535" lon="4.20703">
        <ele>1268.35</ele>
        <time>2022-10-13T11:48:18.839Z</time>
      </trkpt>
      <trkpt lat="44.79528" lon="4.20719">
        <ele>1268.1</ele>
        <time>2022-10-13T11:48:28.370Z</time>
      </trkpt>
      <trkpt lat="44.79525" lon="4.20735">
        <ele>1267.96</ele>
        <time>2022-10-13T11:48:37.907Z</time>
      </trkpt>
      <trkpt lat="44.79518" lon="4.20749">
        <ele>1267.55</ele>
        <time>2022-10-13T11:48:47.468Z</time>
      </trkpt>
      <trkpt lat="44.79512" lon="4.20763">
        <ele>1267.06</ele>
        <time>2022-10-13T11:48:57.067Z</time>
      </trkpt>
      <trkpt lat="44.79506" lon="4.20778">
        <ele>1266.62</ele>
        <time>2022-10-13T11:49:06.543Z</time>
      </trkpt>
      <trkpt lat="44.79501" lon="4.20793">
        <ele>1266.18</ele>
        <time>2022-10-13T11:49:16.123Z</time>
      </trkpt>
      <trkpt lat="44.79495" lon="4.2081">
        <ele>1265.66</ele>
        <time>2022-10-13T11:49:25.662Z</time>
      </trkpt>
      <trkpt lat="44.79488" lon="4.20825">
        <ele>1264.75</ele>
        <time>2022-10-13T11:49:35.021Z</time>
      </trkpt>
      <trkpt lat="44.79479" lon="4.20839">
        <ele>1263.57</ele>
        <time>2022-10-13T11:49:44.745Z</time>
      </trkpt>
      <trkpt lat="44.79472" lon="4.20854">
        <ele>1262.52</ele>
        <time>2022-10-13T11:49:54.761Z</time>
      </trkpt>
      <trkpt lat="44.79467" lon="4.20867">
        <ele>1261.7</ele>
        <time>2022-10-13T11:50:03.837Z</time>
      </trkpt>
      <trkpt lat="44.79462" lon="4.20882">
        <ele>1260.88</ele>
        <time>2022-10-13T11:50:13.367Z</time>
      </trkpt>
      <trkpt lat="44.79457" lon="4.20899">
        <ele>1260.05</ele>
        <time>2022-10-13T11:50:22.830Z</time>
      </trkpt>
      <trkpt lat="44.79455" lon="4.20918">
        <ele>1259.35</ele>
        <time>2022-10-13T11:50:32.705Z</time>
      </trkpt>
      <trkpt lat="44.79457" lon="4.20935">
        <ele>1258.72</ele>
        <time>2022-10-13T11:50:41.865Z</time>
      </trkpt>
      <trkpt lat="44.79459" lon="4.20953">
        <ele>1257.99</ele>
        <time>2022-10-13T11:50:51.765Z</time>
      </trkpt>
      <trkpt lat="44.79467" lon="4.20965">
        <ele>1257.9</ele>
        <time>2022-10-13T11:51:01.905Z</time>
      </trkpt>
      <trkpt lat="44.79477" lon="4.20976">
        <ele>1257.91</ele>
        <time>2022-10-13T11:51:11.625Z</time>
      </trkpt>
      <trkpt lat="44.79488" lon="4.20989">
        <ele>1257.87</ele>
        <time>2022-10-13T11:51:21.988Z</time>
      </trkpt>
      <trkpt lat="44.79499" lon="4.20995">
        <ele>1258.23</ele>
        <time>2022-10-13T11:51:31.000Z</time>
      </trkpt>
      <trkpt lat="44.79505" lon="4.21012">
        <ele>1257.68</ele>
        <time>2022-10-13T11:51:40.001Z</time>
      </trkpt>
      <trkpt lat="44.79513" lon="4.21028">
        <ele>1257.33</ele>
        <time>2022-10-13T11:51:49.560Z</time>
      </trkpt>
      <trkpt lat="44.79513" lon="4.21046">
        <ele>1256.62</ele>
        <time>2022-10-13T11:51:58.641Z</time>
      </trkpt>
      <trkpt lat="44.79516" lon="4.21063">
        <ele>1256.15</ele>
        <time>2022-10-13T11:52:07.879Z</time>
      </trkpt>
      <trkpt lat="44.79515" lon="4.21082">
        <ele>1255.66</ele>
        <time>2022-10-13T11:52:17.307Z</time>
      </trkpt>
      <trkpt lat="44.79514" lon="4.211">
        <ele>1255.48</ele>
        <time>2022-10-13T11:52:26.939Z</time>
      </trkpt>
      <trkpt lat="44.79517" lon="4.2112">
        <ele>1255.73</ele>
        <time>2022-10-13T11:52:36.786Z</time>
      </trkpt>
      <trkpt lat="44.79516" lon="4.21138">
        <ele>1255.9</ele>
        <time>2022-10-13T11:52:46.782Z</time>
      </trkpt>
      <trkpt lat="44.79514" lon="4.21157">
        <ele>1255.82</ele>
        <time>2022-10-13T11:52:56.781Z</time>
      </trkpt>
      <trkpt lat="44.79511" lon="4.21174">
        <ele>1255.3</ele>
        <time>2022-10-13T11:53:05.863Z</time>
      </trkpt>
      <trkpt lat="44.79511" lon="4.21194">
        <ele>1254.5</ele>
        <time>2022-10-13T11:53:15.700Z</time>
      </trkpt>
      <trkpt lat="44.79513" lon="4.21211">
        <ele>1253.59</ele>
        <time>2022-10-13T11:53:24.720Z</time>
      </trkpt>
      <trkpt lat="44.79515" lon="4.21231">
        <ele>1252.59</ele>
        <time>2022-10-13T11:53:34.000Z</time>
      </trkpt>
      <trkpt lat="44.79515" lon="4.21247">
        <ele>1251.86</ele>
        <time>2022-10-13T11:53:44.026Z</time>
      </trkpt>
      <trkpt lat="44.79514" lon="4.21264">
        <ele>1251.24</ele>
        <time>2022-10-13T11:53:53.785Z</time>
      </trkpt>
      <trkpt lat="44.7952" lon="4.21275">
        <ele>1251.18</ele>
        <time>2022-10-13T11:54:05.425Z</time>
      </trkpt>
      <trkpt lat="44.79519" lon="4.21288">
        <ele>1250.8</ele>
        <time>2022-10-13T11:54:41.505Z</time>
      </trkpt>
      <trkpt lat="44.79518" lon="4.21303">
        <ele>1250.4</ele>
        <time>2022-10-13T11:54:50.559Z</time>
      </trkpt>
      <trkpt lat="44.79514" lon="4.21317">
        <ele>1249.93</ele>
        <time>2022-10-13T11:54:59.859Z</time>
      </trkpt>
      <trkpt lat="44.79509" lon="4.21334">
        <ele>1249.47</ele>
        <time>2022-10-13T11:55:09.467Z</time>
      </trkpt>
      <trkpt lat="44.79505" lon="4.2135">
        <ele>1249.18</ele>
        <time>2022-10-13T11:55:19.012Z</time>
      </trkpt>
      <trkpt lat="44.79499" lon="4.21367">
        <ele>1248.86</ele>
        <time>2022-10-13T11:55:28.525Z</time>
      </trkpt>
      <trkpt lat="44.79493" lon="4.21382">
        <ele>1248.54</ele>
        <time>2022-10-13T11:55:37.885Z</time>
      </trkpt>
      <trkpt lat="44.79487" lon="4.21398">
        <ele>1248.24</ele>
        <time>2022-10-13T11:55:47.403Z</time>
      </trkpt>
      <trkpt lat="44.79481" lon="4.21414">
        <ele>1247.87</ele>
        <time>2022-10-13T11:55:56.863Z</time>
      </trkpt>
      <trkpt lat="44.79475" lon="4.21431">
        <ele>1247.42</ele>
        <time>2022-10-13T11:56:06.761Z</time>
      </trkpt>
      <trkpt lat="44.79471" lon="4.21446">
        <ele>1247.09</ele>
        <time>2022-10-13T11:56:16.643Z</time>
      </trkpt>
      <trkpt lat="44.79466" lon="4.21465">
        <ele>1246.75</ele>
        <time>2022-10-13T11:56:26.139Z</time>
      </trkpt>
      <trkpt lat="44.79462" lon="4.21482">
        <ele>1246.56</ele>
        <time>2022-10-13T11:56:35.581Z</time>
      </trkpt>
      <trkpt lat="44.79455" lon="4.21497">
        <ele>1246.31</ele>
        <time>2022-10-13T11:56:45.100Z</time>
      </trkpt>
      <trkpt lat="44.79447" lon="4.21511">
        <ele>1246.14</ele>
        <time>2022-10-13T11:56:54.601Z</time>
      </trkpt>
      <trkpt lat="44.79439" lon="4.21524">
        <ele>1246.02</ele>
        <time>2022-10-13T11:57:03.867Z</time>
      </trkpt>
      <trkpt lat="44.7943" lon="4.21538">
        <ele>1245.92</ele>
        <time>2022-10-13T11:57:13.446Z</time>
      </trkpt>
      <trkpt lat="44.79421" lon="4.21551">
        <ele>1245.81</ele>
        <time>2022-10-13T11:57:22.845Z</time>
      </trkpt>
      <trkpt lat="44.79413" lon="4.21564">
        <ele>1245.71</ele>
        <time>2022-10-13T11:57:32.623Z</time>
      </trkpt>
      <trkpt lat="44.79406" lon="4.21577">
        <ele>1245.58</ele>
        <time>2022-10-13T11:57:41.842Z</time>
      </trkpt>
      <trkpt lat="44.79403" lon="4.21595">
        <ele>1245.58</ele>
        <time>2022-10-13T11:57:51.120Z</time>
      </trkpt>
      <trkpt lat="44.79404" lon="4.21614">
        <ele>1245.58</ele>
        <time>2022-10-13T11:58:01.010Z</time>
      </trkpt>
      <trkpt lat="44.79407" lon="4.21631">
        <ele>1245.6</ele>
        <time>2022-10-13T11:58:10.401Z</time>
      </trkpt>
      <trkpt lat="44.79408" lon="4.21648">
        <ele>1245.6</ele>
        <time>2022-10-13T11:58:19.630Z</time>
      </trkpt>
      <trkpt lat="44.7941" lon="4.21664">
        <ele>1245.77</ele>
        <time>2022-10-13T11:58:29.162Z</time>
      </trkpt>
      <trkpt lat="44.79406" lon="4.2168">
        <ele>1245.89</ele>
        <time>2022-10-13T11:58:38.898Z</time>
      </trkpt>
      <trkpt lat="44.79397" lon="4.21693">
        <ele>1245.9</ele>
        <time>2022-10-13T11:58:48.565Z</time>
      </trkpt>
      <trkpt lat="44.79387" lon="4.21704">
        <ele>1245.83</ele>
        <time>2022-10-13T11:58:58.005Z</time>
      </trkpt>
      <trkpt lat="44.79376" lon="4.21709">
        <ele>1245.56</ele>
        <time>2022-10-13T11:59:07.544Z</time>
      </trkpt>
      <trkpt lat="44.79364" lon="4.21715">
        <ele>1245.3</ele>
        <time>2022-10-13T11:59:16.823Z</time>
      </trkpt>
      <trkpt lat="44.7935" lon="4.21719">
        <ele>1244.92</ele>
        <time>2022-10-13T11:59:26.431Z</time>
      </trkpt>
      <trkpt lat="44.79338" lon="4.21721">
        <ele>1244.49</ele>
        <time>2022-10-13T11:59:35.942Z</time>
      </trkpt>
      <trkpt lat="44.79324" lon="4.21724">
        <ele>1244.07</ele>
        <time>2022-10-13T11:59:45.404Z</time>
      </trkpt>
      <trkpt lat="44.79314" lon="4.21723">
        <ele>1243.59</ele>
        <time>2022-10-13T11:59:54.882Z</time>
      </trkpt>
      <trkpt lat="44.79301" lon="4.21725">
        <ele>1243.14</ele>
        <time>2022-10-13T12:00:04.321Z</time>
      </trkpt>
      <trkpt lat="44.79288" lon="4.2173">
        <ele>1242.8</ele>
        <time>2022-10-13T12:00:13.779Z</time>
      </trkpt>
      <trkpt lat="44.79276" lon="4.21733">
        <ele>1242.47</ele>
        <time>2022-10-13T12:00:23.605Z</time>
      </trkpt>
      <trkpt lat="44.79262" lon="4.21738">
        <ele>1242.01</ele>
        <time>2022-10-13T12:00:33.504Z</time>
      </trkpt>
      <trkpt lat="44.79252" lon="4.21748">
        <ele>1242.01</ele>
        <time>2022-10-13T12:00:42.986Z</time>
      </trkpt>
      <trkpt lat="44.79245" lon="4.21766">
        <ele>1242.48</ele>
        <time>2022-10-13T12:00:52.746Z</time>
      </trkpt>
      <trkpt lat="44.79239" lon="4.21782">
        <ele>1242.78</ele>
        <time>2022-10-13T12:01:02.083Z</time>
      </trkpt>
      <trkpt lat="44.79231" lon="4.21796">
        <ele>1242.8</ele>
        <time>2022-10-13T12:01:11.363Z</time>
      </trkpt>
      <trkpt lat="44.79222" lon="4.21809">
        <ele>1242.79</ele>
        <time>2022-10-13T12:01:20.400Z</time>
      </trkpt>
      <trkpt lat="44.79217" lon="4.21825">
        <ele>1243.15</ele>
        <time>2022-10-13T12:01:29.739Z</time>
      </trkpt>
      <trkpt lat="44.79209" lon="4.21838">
        <ele>1243.23</ele>
        <time>2022-10-13T12:01:39.199Z</time>
      </trkpt>
      <trkpt lat="44.792" lon="4.21853">
        <ele>1243.27</ele>
        <time>2022-10-13T12:01:48.762Z</time>
      </trkpt>
      <trkpt lat="44.79193" lon="4.21866">
        <ele>1243.36</ele>
        <time>2022-10-13T12:01:57.769Z</time>
      </trkpt>
      <trkpt lat="44.79189" lon="4.21882">
        <ele>1243.73</ele>
        <time>2022-10-13T12:02:06.846Z</time>
      </trkpt>
      <trkpt lat="44.79181" lon="4.21897">
        <ele>1243.85</ele>
        <time>2022-10-13T12:02:16.765Z</time>
      </trkpt>
      <trkpt lat="44.79172" lon="4.21909">
        <ele>1243.88</ele>
        <time>2022-10-13T12:02:26.046Z</time>
      </trkpt>
      <trkpt lat="44.79162" lon="4.21918">
        <ele>1243.91</ele>
        <time>2022-10-13T12:02:35.820Z</time>
      </trkpt>
      <trkpt lat="44.79152" lon="4.21927">
        <ele>1244.16</ele>
        <time>2022-10-13T12:02:45.060Z</time>
      </trkpt>
      <trkpt lat="44.79148" lon="4.21939">
        <ele>1244.75</ele>
        <time>2022-10-13T12:02:54.164Z</time>
      </trkpt>
      <trkpt lat="44.79141" lon="4.21951">
        <ele>1245.39</ele>
        <time>2022-10-13T12:03:03.590Z</time>
      </trkpt>
      <trkpt lat="44.79133" lon="4.21961">
        <ele>1245.98</ele>
        <time>2022-10-13T12:03:13.019Z</time>
      </trkpt>
      <trkpt lat="44.79125" lon="4.21974">
        <ele>1246.71</ele>
        <time>2022-10-13T12:03:22.351Z</time>
      </trkpt>
      <trkpt lat="44.79116" lon="4.21986">
        <ele>1247.36</ele>
        <time>2022-10-13T12:03:32.085Z</time>
      </trkpt>
      <trkpt lat="44.79106" lon="4.21995">
        <ele>1247.82</ele>
        <time>2022-10-13T12:03:41.403Z</time>
      </trkpt>
      <trkpt lat="44.79097" lon="4.22005">
        <ele>1248.27</ele>
        <time>2022-10-13T12:03:50.946Z</time>
      </trkpt>
      <trkpt lat="44.79088" lon="4.22015">
        <ele>1248.64</ele>
        <time>2022-10-13T12:04:00.021Z</time>
      </trkpt>
      <trkpt lat="44.79081" lon="4.22027">
        <ele>1249.04</ele>
        <time>2022-10-13T12:04:09.103Z</time>
      </trkpt>
      <trkpt lat="44.79075" lon="4.22039">
        <ele>1249.39</ele>
        <time>2022-10-13T12:04:18.718Z</time>
      </trkpt>
      <trkpt lat="44.79069" lon="4.22051">
        <ele>1249.7</ele>
        <time>2022-10-13T12:04:27.747Z</time>
      </trkpt>
      <trkpt lat="44.79066" lon="4.22065">
        <ele>1250.01</ele>
        <time>2022-10-13T12:04:43.147Z</time>
      </trkpt>
      <trkpt lat="44.79065" lon="4.22079">
        <ele>1250.26</ele>
        <time>2022-10-13T12:04:52.547Z</time>
      </trkpt>
      <trkpt lat="44.79063" lon="4.22094">
        <ele>1250.32</ele>
        <time>2022-10-13T12:05:01.866Z</time>
      </trkpt>
      <trkpt lat="44.7906" lon="4.22108">
        <ele>1250.3</ele>
        <time>2022-10-13T12:05:10.903Z</time>
      </trkpt>
      <trkpt lat="44.79057" lon="4.22125">
        <ele>1250.15</ele>
        <time>2022-10-13T12:05:20.362Z</time>
      </trkpt>
      <trkpt lat="44.79051" lon="4.22138">
        <ele>1249.61</ele>
        <time>2022-10-13T12:05:29.882Z</time>
      </trkpt>
      <trkpt lat="44.79046" lon="4.22153">
        <ele>1248.71</ele>
        <time>2022-10-13T12:05:39.302Z</time>
      </trkpt>
      <trkpt lat="44.7904" lon="4.22166">
        <ele>1247.44</ele>
        <time>2022-10-13T12:05:48.361Z</time>
      </trkpt>
      <trkpt lat="44.79035" lon="4.22179">
        <ele>1245.76</ele>
        <time>2022-10-13T12:05:58.002Z</time>
      </trkpt>
      <trkpt lat="44.79023" lon="4.22188">
        <ele>1243.37</ele>
        <time>2022-10-13T12:06:07.878Z</time>
      </trkpt>
      <trkpt lat="44.7902" lon="4.22203">
        <ele>1241.03</ele>
        <time>2022-10-13T12:06:16.918Z</time>
      </trkpt>
      <trkpt lat="44.79018" lon="4.22218">
        <ele>1238.39</ele>
        <time>2022-10-13T12:06:26.906Z</time>
      </trkpt>
      <trkpt lat="44.79016" lon="4.22234">
        <ele>1235.57</ele>
        <time>2022-10-13T12:06:37.017Z</time>
      </trkpt>
      <trkpt lat="44.79015" lon="4.2225">
        <ele>1232.9</ele>
        <time>2022-10-13T12:06:46.046Z</time>
      </trkpt>
      <trkpt lat="44.79017" lon="4.22263">
        <ele>1231.04</ele>
        <time>2022-10-13T12:06:57.524Z</time>
      </trkpt>
      <trkpt lat="44.7901" lon="4.22272">
        <ele>1228.44</ele>
        <time>2022-10-13T12:07:13.921Z</time>
      </trkpt>
      <trkpt lat="44.78997" lon="4.22295">
        <ele>1223.02</ele>
        <time>2022-10-13T12:08:02.528Z</time>
      </trkpt>
      <trkpt lat="44.78996" lon="4.22309">
        <ele>1220.72</ele>
        <time>2022-10-13T12:08:11.952Z</time>
      </trkpt>
      <trkpt lat="44.78997" lon="4.22328">
        <ele>1218.25</ele>
        <time>2022-10-13T12:08:21.044Z</time>
      </trkpt>
      <trkpt lat="44.79003" lon="4.22339">
        <ele>1217.76</ele>
        <time>2022-10-13T12:08:43.802Z</time>
      </trkpt>
      <trkpt lat="44.79004" lon="4.22352">
        <ele>1216.87</ele>
        <time>2022-10-13T12:08:53.380Z</time>
      </trkpt>
      <trkpt lat="44.79004" lon="4.22367">
        <ele>1216.04</ele>
        <time>2022-10-13T12:09:03.058Z</time>
      </trkpt>
      <trkpt lat="44.79002" lon="4.22381">
        <ele>1215.53</ele>
        <time>2022-10-13T12:10:46.028Z</time>
      </trkpt>
      <trkpt lat="44.79009" lon="4.2239">
        <ele>1215.74</ele>
        <time>2022-10-13T12:10:56.005Z</time>
      </trkpt>
      <trkpt lat="44.79016" lon="4.22402">
        <ele>1215.96</ele>
        <time>2022-10-13T12:11:05.324Z</time>
      </trkpt>
      <trkpt lat="44.79018" lon="4.22418">
        <ele>1216.49</ele>
        <time>2022-10-13T12:11:14.805Z</time>
      </trkpt>
      <trkpt lat="44.79016" lon="4.22433">
        <ele>1217.69</ele>
        <time>2022-10-13T12:11:24.367Z</time>
      </trkpt>
      <trkpt lat="44.79009" lon="4.22442">
        <ele>1218.62</ele>
        <time>2022-10-13T12:11:34.146Z</time>
      </trkpt>
      <trkpt lat="44.78999" lon="4.22446">
        <ele>1218.8</ele>
        <time>2022-10-13T12:11:43.599Z</time>
      </trkpt>
      <trkpt lat="44.78989" lon="4.22448">
        <ele>1218.59</ele>
        <time>2022-10-13T12:11:52.999Z</time>
      </trkpt>
      <trkpt lat="44.78981" lon="4.22458">
        <ele>1219.44</ele>
        <time>2022-10-13T12:12:02.428Z</time>
      </trkpt>
      <trkpt lat="44.78977" lon="4.22471">
        <ele>1220.8</ele>
        <time>2022-10-13T12:12:11.687Z</time>
      </trkpt>
      <trkpt lat="44.78974" lon="4.22484">
        <ele>1221.91</ele>
        <time>2022-10-13T12:12:21.818Z</time>
      </trkpt>
      <trkpt lat="44.78979" lon="4.22497">
        <ele>1223.59</ele>
        <time>2022-10-13T12:12:32.030Z</time>
      </trkpt>
      <trkpt lat="44.78984" lon="4.22507">
        <ele>1224.91</ele>
        <time>2022-10-13T12:12:42.928Z</time>
      </trkpt>
      <trkpt lat="44.7899" lon="4.22517">
        <ele>1226.28</ele>
        <time>2022-10-13T12:12:55.744Z</time>
      </trkpt>
      <trkpt lat="44.78999" lon="4.22521">
        <ele>1227.52</ele>
        <time>2022-10-13T12:13:09.643Z</time>
      </trkpt>
      <trkpt lat="44.79008" lon="4.22527">
        <ele>1228.71</ele>
        <time>2022-10-13T12:13:21.047Z</time>
      </trkpt>
      <trkpt lat="44.79016" lon="4.22535">
        <ele>1230.05</ele>
        <time>2022-10-13T12:15:34.999Z</time>
      </trkpt>
      <trkpt lat="44.7902" lon="4.22547">
        <ele>1231.42</ele>
        <time>2022-10-13T12:16:34.864Z</time>
      </trkpt>
      <trkpt lat="44.79021" lon="4.22565">
        <ele>1232.68</ele>
        <time>2022-10-13T12:16:44.682Z</time>
      </trkpt>
      <trkpt lat="44.79019" lon="4.22579">
        <ele>1233.15</ele>
        <time>2022-10-13T12:16:54.925Z</time>
      </trkpt>
      <trkpt lat="44.79028" lon="4.22583">
        <ele>1234.77</ele>
        <time>2022-10-13T12:17:16.039Z</time>
      </trkpt>
      <trkpt lat="44.79038" lon="4.22585">
        <ele>1236.49</ele>
        <time>2022-10-13T12:17:25.919Z</time>
      </trkpt>
      <trkpt lat="44.79041" lon="4.22597">
        <ele>1237.3</ele>
        <time>2022-10-13T12:18:10.613Z</time>
      </trkpt>
      <trkpt lat="44.79039" lon="4.22611">
        <ele>1236.77</ele>
        <time>2022-10-13T12:18:25.863Z</time>
      </trkpt>
      <trkpt lat="44.79032" lon="4.22601">
        <ele>1235.79</ele>
        <time>2022-10-13T12:19:04.940Z</time>
      </trkpt>
      <trkpt lat="44.7902" lon="4.22603">
        <ele>1233.43</ele>
        <time>2022-10-13T12:19:15.237Z</time>
      </trkpt>
      <trkpt lat="44.7903" lon="4.22597">
        <ele>1235.39</ele>
        <time>2022-10-13T12:19:37.000Z</time>
      </trkpt>
      <trkpt lat="44.79039" lon="4.22584">
        <ele>1236.62</ele>
        <time>2022-10-13T12:19:47.000Z</time>
      </trkpt>
      <trkpt lat="44.79048" lon="4.22589">
        <ele>1238.21</ele>
        <time>2022-10-13T12:21:46.917Z</time>
      </trkpt>
      <trkpt lat="44.79058" lon="4.22588">
        <ele>1239.6</ele>
        <time>2022-10-13T12:21:55.989Z</time>
      </trkpt>
      <trkpt lat="44.79067" lon="4.22592">
        <ele>1240.79</ele>
        <time>2022-10-13T12:22:31.904Z</time>
      </trkpt>
      <trkpt lat="44.79074" lon="4.22604">
        <ele>1241.61</ele>
        <time>2022-10-13T12:22:40.907Z</time>
      </trkpt>
      <trkpt lat="44.79081" lon="4.22617">
        <ele>1241.95</ele>
        <time>2022-10-13T12:22:50.462Z</time>
      </trkpt>
      <trkpt lat="44.79086" lon="4.2263">
        <ele>1241.8</ele>
        <time>2022-10-13T12:22:59.997Z</time>
      </trkpt>
      <trkpt lat="44.79092" lon="4.22641">
        <ele>1241.51</ele>
        <time>2022-10-13T12:23:18.400Z</time>
      </trkpt>
      <trkpt lat="44.791" lon="4.22655">
        <ele>1240.97</ele>
        <time>2022-10-13T12:23:28.021Z</time>
      </trkpt>
      <trkpt lat="44.79106" lon="4.22669">
        <ele>1240.66</ele>
        <time>2022-10-13T12:23:37.807Z</time>
      </trkpt>
      <trkpt lat="44.79111" lon="4.22682">
        <ele>1240.49</ele>
        <time>2022-10-13T12:23:47.084Z</time>
      </trkpt>
      <trkpt lat="44.79116" lon="4.22696">
        <ele>1240.44</ele>
        <time>2022-10-13T12:23:56.485Z</time>
      </trkpt>
      <trkpt lat="44.79117" lon="4.22708">
        <ele>1240.61</ele>
        <time>2022-10-13T12:24:05.803Z</time>
      </trkpt>
      <trkpt lat="44.79122" lon="4.22721">
        <ele>1240.63</ele>
        <time>2022-10-13T12:24:49.509Z</time>
      </trkpt>
      <trkpt lat="44.79128" lon="4.22738">
        <ele>1240.89</ele>
        <time>2022-10-13T12:24:59.866Z</time>
      </trkpt>
      <trkpt lat="44.79133" lon="4.22756">
        <ele>1241.32</ele>
        <time>2022-10-13T12:25:09.645Z</time>
      </trkpt>
      <trkpt lat="44.79138" lon="4.22772">
        <ele>1241.93</ele>
        <time>2022-10-13T12:25:18.904Z</time>
      </trkpt>
      <trkpt lat="44.79142" lon="4.22787">
        <ele>1242.66</ele>
        <time>2022-10-13T12:25:27.923Z</time>
      </trkpt>
      <trkpt lat="44.79147" lon="4.22802">
        <ele>1243.4</ele>
        <time>2022-10-13T12:25:37.380Z</time>
      </trkpt>
      <trkpt lat="44.79149" lon="4.22818">
        <ele>1244.08</ele>
        <time>2022-10-13T12:25:46.620Z</time>
      </trkpt>
      <trkpt lat="44.7915" lon="4.22833">
        <ele>1244.53</ele>
        <time>2022-10-13T12:25:55.708Z</time>
      </trkpt>
      <trkpt lat="44.79149" lon="4.22848">
        <ele>1244.71</ele>
        <time>2022-10-13T12:26:05.027Z</time>
      </trkpt>
      <trkpt lat="44.7914" lon="4.22854">
        <ele>1244.49</ele>
        <time>2022-10-13T12:26:14.046Z</time>
      </trkpt>
      <trkpt lat="44.79129" lon="4.22854">
        <ele>1244.26</ele>
        <time>2022-10-13T12:26:30.923Z</time>
      </trkpt>
      <trkpt lat="44.7912" lon="4.22866">
        <ele>1243.76</ele>
        <time>2022-10-13T12:26:40.067Z</time>
      </trkpt>
      <trkpt lat="44.79113" lon="4.22875">
        <ele>1243.22</ele>
        <time>2022-10-13T12:26:49.461Z</time>
      </trkpt>
      <trkpt lat="44.79103" lon="4.22882">
        <ele>1242.38</ele>
        <time>2022-10-13T12:26:58.500Z</time>
      </trkpt>
      <trkpt lat="44.79096" lon="4.22895">
        <ele>1241.27</ele>
        <time>2022-10-13T12:27:08.097Z</time>
      </trkpt>
      <trkpt lat="44.79088" lon="4.22911">
        <ele>1239.8</ele>
        <time>2022-10-13T12:27:17.570Z</time>
      </trkpt>
      <trkpt lat="44.79081" lon="4.22925">
        <ele>1238.3</ele>
        <time>2022-10-13T12:27:27.125Z</time>
      </trkpt>
      <trkpt lat="44.79072" lon="4.22935">
        <ele>1236.48</ele>
        <time>2022-10-13T12:27:36.403Z</time>
      </trkpt>
      <trkpt lat="44.79059" lon="4.2294">
        <ele>1234.34</ele>
        <time>2022-10-13T12:27:45.704Z</time>
      </trkpt>
      <trkpt lat="44.79046" lon="4.22942">
        <ele>1232.04</ele>
        <time>2022-10-13T12:27:55.121Z</time>
      </trkpt>
      <trkpt lat="44.79034" lon="4.22944">
        <ele>1230.02</ele>
        <time>2022-10-13T12:28:04.461Z</time>
      </trkpt>
      <trkpt lat="44.79025" lon="4.22943">
        <ele>1228.67</ele>
        <time>2022-10-13T12:28:14.004Z</time>
      </trkpt>
      <trkpt lat="44.79015" lon="4.22937">
        <ele>1227.45</ele>
        <time>2022-10-13T12:28:23.119Z</time>
      </trkpt>
      <trkpt lat="44.79006" lon="4.22934">
        <ele>1226.42</ele>
        <time>2022-10-13T12:28:32.680Z</time>
      </trkpt>
      <trkpt lat="44.78995" lon="4.22932">
        <ele>1225.45</ele>
        <time>2022-10-13T12:28:41.849Z</time>
      </trkpt>
      <trkpt lat="44.78986" lon="4.22929">
        <ele>1224.83</ele>
        <time>2022-10-13T12:28:51.108Z</time>
      </trkpt>
      <trkpt lat="44.78975" lon="4.22924">
        <ele>1224.19</ele>
        <time>2022-10-13T12:29:00.667Z</time>
      </trkpt>
      <trkpt lat="44.78965" lon="4.22918">
        <ele>1223.71</ele>
        <time>2022-10-13T12:29:10.000Z</time>
      </trkpt>
      <trkpt lat="44.78954" lon="4.22913">
        <ele>1223.38</ele>
        <time>2022-10-13T12:29:19.005Z</time>
      </trkpt>
      <trkpt lat="44.78942" lon="4.22911">
        <ele>1223.26</ele>
        <time>2022-10-13T12:29:28.864Z</time>
      </trkpt>
      <trkpt lat="44.78932" lon="4.22911">
        <ele>1223.38</ele>
        <time>2022-10-13T12:29:38.043Z</time>
      </trkpt>
      <trkpt lat="44.7892" lon="4.2291">
        <ele>1223.81</ele>
        <time>2022-10-13T12:29:47.064Z</time>
      </trkpt>
      <trkpt lat="44.78909" lon="4.22909">
        <ele>1224.51</ele>
        <time>2022-10-13T12:29:56.442Z</time>
      </trkpt>
      <trkpt lat="44.78897" lon="4.22908">
        <ele>1225.77</ele>
        <time>2022-10-13T12:30:05.644Z</time>
      </trkpt>
      <trkpt lat="44.78886" lon="4.22902">
        <ele>1227.36</ele>
        <time>2022-10-13T12:30:14.941Z</time>
      </trkpt>
      <trkpt lat="44.78878" lon="4.22897">
        <ele>1228.77</ele>
        <time>2022-10-13T12:30:24.640Z</time>
      </trkpt>
      <trkpt lat="44.78869" lon="4.22901">
        <ele>1230.14</ele>
        <time>2022-10-13T12:30:54.707Z</time>
      </trkpt>
      <trkpt lat="44.78863" lon="4.22916">
        <ele>1230.64</ele>
        <time>2022-10-13T12:31:03.907Z</time>
      </trkpt>
      <trkpt lat="44.78858" lon="4.22929">
        <ele>1231.03</ele>
        <time>2022-10-13T12:31:13.204Z</time>
      </trkpt>
      <trkpt lat="44.78851" lon="4.22939">
        <ele>1231.75</ele>
        <time>2022-10-13T12:31:22.407Z</time>
      </trkpt>
      <trkpt lat="44.78845" lon="4.22952">
        <ele>1231.96</ele>
        <time>2022-10-13T12:31:31.929Z</time>
      </trkpt>
      <trkpt lat="44.7884" lon="4.22968">
        <ele>1231.69</ele>
        <time>2022-10-13T12:31:41.301Z</time>
      </trkpt>
      <trkpt lat="44.78829" lon="4.22983">
        <ele>1232.09</ele>
        <time>2022-10-13T12:31:50.861Z</time>
      </trkpt>
      <trkpt lat="44.78821" lon="4.22989">
        <ele>1232.63</ele>
        <time>2022-10-13T12:32:00.498Z</time>
      </trkpt>
      <trkpt lat="44.78814" lon="4.23">
        <ele>1232.85</ele>
        <time>2022-10-13T12:32:09.677Z</time>
      </trkpt>
      <trkpt lat="44.78806" lon="4.23016">
        <ele>1232.88</ele>
        <time>2022-10-13T12:32:18.738Z</time>
      </trkpt>
      <trkpt lat="44.78797" lon="4.23031">
        <ele>1232.84</ele>
        <time>2022-10-13T12:32:27.749Z</time>
      </trkpt>
      <trkpt lat="44.78788" lon="4.23044">
        <ele>1232.81</ele>
        <time>2022-10-13T12:32:36.907Z</time>
      </trkpt>
      <trkpt lat="44.7878" lon="4.23054">
        <ele>1232.74</ele>
        <time>2022-10-13T12:32:46.008Z</time>
      </trkpt>
      <trkpt lat="44.7877" lon="4.23063">
        <ele>1232.82</ele>
        <time>2022-10-13T12:32:55.106Z</time>
      </trkpt>
      <trkpt lat="44.78761" lon="4.23074">
        <ele>1232.82</ele>
        <time>2022-10-13T12:33:04.347Z</time>
      </trkpt>
      <trkpt lat="44.7875" lon="4.23083">
        <ele>1232.98</ele>
        <time>2022-10-13T12:33:13.644Z</time>
      </trkpt>
      <trkpt lat="44.78739" lon="4.23092">
        <ele>1233.37</ele>
        <time>2022-10-13T12:33:23.824Z</time>
      </trkpt>
      <trkpt lat="44.78731" lon="4.23103">
        <ele>1233.67</ele>
        <time>2022-10-13T12:33:33.063Z</time>
      </trkpt>
      <trkpt lat="44.7872" lon="4.2311">
        <ele>1234.16</ele>
        <time>2022-10-13T12:33:42.220Z</time>
      </trkpt>
      <trkpt lat="44.78711" lon="4.2312">
        <ele>1234.64</ele>
        <time>2022-10-13T12:33:51.463Z</time>
      </trkpt>
      <trkpt lat="44.78702" lon="4.2313">
        <ele>1235.17</ele>
        <time>2022-10-13T12:34:00.778Z</time>
      </trkpt>
      <trkpt lat="44.78696" lon="4.23143">
        <ele>1235.77</ele>
        <time>2022-10-13T12:34:10.119Z</time>
      </trkpt>
      <trkpt lat="44.78688" lon="4.23154">
        <ele>1236.47</ele>
        <time>2022-10-13T12:34:19.146Z</time>
      </trkpt>
      <trkpt lat="44.78679" lon="4.23158">
        <ele>1236.94</ele>
        <time>2022-10-13T12:34:28.406Z</time>
      </trkpt>
      <trkpt lat="44.78666" lon="4.2316">
        <ele>1237.69</ele>
        <time>2022-10-13T12:34:37.703Z</time>
      </trkpt>
      <trkpt lat="44.78655" lon="4.23166">
        <ele>1238.72</ele>
        <time>2022-10-13T12:34:46.906Z</time>
      </trkpt>
      <trkpt lat="44.78646" lon="4.2317">
        <ele>1239.74</ele>
        <time>2022-10-13T12:34:58.433Z</time>
      </trkpt>
      <trkpt lat="44.78632" lon="4.23169">
        <ele>1240.95</ele>
        <time>2022-10-13T12:35:07.687Z</time>
      </trkpt>
      <trkpt lat="44.7862" lon="4.23171">
        <ele>1242.15</ele>
        <time>2022-10-13T12:35:16.926Z</time>
      </trkpt>
      <trkpt lat="44.78609" lon="4.23174">
        <ele>1243.48</ele>
        <time>2022-10-13T12:35:26.321Z</time>
      </trkpt>
      <trkpt lat="44.786" lon="4.2318">
        <ele>1245.04</ele>
        <time>2022-10-13T12:35:35.580Z</time>
      </trkpt>
      <trkpt lat="44.78589" lon="4.23179">
        <ele>1245.77</ele>
        <time>2022-10-13T12:35:45.000Z</time>
      </trkpt>
      <trkpt lat="44.7858" lon="4.23184">
        <ele>1247</ele>
        <time>2022-10-13T12:35:54.500Z</time>
      </trkpt>
      <trkpt lat="44.78573" lon="4.23193">
        <ele>1248.52</ele>
        <time>2022-10-13T12:36:08.026Z</time>
      </trkpt>
      <trkpt lat="44.78557" lon="4.232">
        <ele>1250.15</ele>
        <time>2022-10-13T12:36:17.256Z</time>
      </trkpt>
      <trkpt lat="44.78548" lon="4.23212">
        <ele>1251.86</ele>
        <time>2022-10-13T12:36:26.568Z</time>
      </trkpt>
      <trkpt lat="44.7854" lon="4.23221">
        <ele>1253.15</ele>
        <time>2022-10-13T12:36:35.993Z</time>
      </trkpt>
      <trkpt lat="44.78528" lon="4.23226">
        <ele>1253.67</ele>
        <time>2022-10-13T12:36:45.183Z</time>
      </trkpt>
      <trkpt lat="44.78519" lon="4.23236">
        <ele>1254.7</ele>
        <time>2022-10-13T12:36:54.283Z</time>
      </trkpt>
      <trkpt lat="44.78513" lon="4.23247">
        <ele>1255.79</ele>
        <time>2022-10-13T12:37:03.562Z</time>
      </trkpt>
      <trkpt lat="44.78509" lon="4.23262">
        <ele>1257.13</ele>
        <time>2022-10-13T12:37:12.901Z</time>
      </trkpt>
      <trkpt lat="44.78498" lon="4.23274">
        <ele>1258.28</ele>
        <time>2022-10-13T12:37:22.081Z</time>
      </trkpt>
      <trkpt lat="44.78491" lon="4.23285">
        <ele>1259.21</ele>
        <time>2022-10-13T12:37:31.501Z</time>
      </trkpt>
      <trkpt lat="44.78485" lon="4.23297">
        <ele>1260.25</ele>
        <time>2022-10-13T12:37:40.839Z</time>
      </trkpt>
      <trkpt lat="44.78477" lon="4.2331">
        <ele>1261.3</ele>
        <time>2022-10-13T12:37:50.745Z</time>
      </trkpt>
      <trkpt lat="44.78469" lon="4.23319">
        <ele>1261.92</ele>
        <time>2022-10-13T12:37:59.926Z</time>
      </trkpt>
      <trkpt lat="44.78459" lon="4.23327">
        <ele>1262.28</ele>
        <time>2022-10-13T12:38:09.263Z</time>
      </trkpt>
      <trkpt lat="44.78452" lon="4.23335">
        <ele>1262.62</ele>
        <time>2022-10-13T12:38:19.544Z</time>
      </trkpt>
      <trkpt lat="44.78445" lon="4.23347">
        <ele>1263.27</ele>
        <time>2022-10-13T12:38:28.862Z</time>
      </trkpt>
      <trkpt lat="44.78435" lon="4.23358">
        <ele>1263.73</ele>
        <time>2022-10-13T12:38:38.540Z</time>
      </trkpt>
      <trkpt lat="44.78427" lon="4.23369">
        <ele>1264.16</ele>
        <time>2022-10-13T12:38:47.718Z</time>
      </trkpt>
      <trkpt lat="44.78422" lon="4.23382">
        <ele>1264.72</ele>
        <time>2022-10-13T12:38:57.578Z</time>
      </trkpt>
      <trkpt lat="44.78418" lon="4.23395">
        <ele>1265.16</ele>
        <time>2022-10-13T12:39:06.588Z</time>
      </trkpt>
      <trkpt lat="44.78416" lon="4.2341">
        <ele>1265.72</ele>
        <time>2022-10-13T12:39:15.786Z</time>
      </trkpt>
      <trkpt lat="44.78414" lon="4.23425">
        <ele>1266.14</ele>
        <time>2022-10-13T12:39:24.927Z</time>
      </trkpt>
      <trkpt lat="44.78414" lon="4.23439">
        <ele>1266.56</ele>
        <time>2022-10-13T12:39:34.043Z</time>
      </trkpt>
      <trkpt lat="44.78415" lon="4.23453">
        <ele>1266.93</ele>
        <time>2022-10-13T12:39:43.061Z</time>
      </trkpt>
      <trkpt lat="44.78417" lon="4.23469">
        <ele>1267.36</ele>
        <time>2022-10-13T12:39:52.691Z</time>
      </trkpt>
      <trkpt lat="44.7842" lon="4.23484">
        <ele>1267.84</ele>
        <time>2022-10-13T12:40:01.919Z</time>
      </trkpt>
      <trkpt lat="44.78423" lon="4.23499">
        <ele>1268.36</ele>
        <time>2022-10-13T12:40:11.267Z</time>
      </trkpt>
      <trkpt lat="44.78428" lon="4.23513">
        <ele>1269.07</ele>
        <time>2022-10-13T12:40:20.507Z</time>
      </trkpt>
      <trkpt lat="44.78437" lon="4.23524">
        <ele>1270.03</ele>
        <time>2022-10-13T12:40:29.827Z</time>
      </trkpt>
      <trkpt lat="44.78444" lon="4.23536">
        <ele>1270.97</ele>
        <time>2022-10-13T12:40:39.685Z</time>
      </trkpt>
      <trkpt lat="44.78448" lon="4.23549">
        <ele>1271.73</ele>
        <time>2022-10-13T12:40:49.008Z</time>
      </trkpt>
      <trkpt lat="44.78453" lon="4.23564">
        <ele>1272.58</ele>
        <time>2022-10-13T12:40:58.549Z</time>
      </trkpt>
      <trkpt lat="44.78457" lon="4.23577">
        <ele>1273.35</ele>
        <time>2022-10-13T12:41:07.762Z</time>
      </trkpt>
      <trkpt lat="44.78463" lon="4.2359">
        <ele>1274.19</ele>
        <time>2022-10-13T12:41:17.026Z</time>
      </trkpt>
      <trkpt lat="44.78468" lon="4.23605">
        <ele>1274.96</ele>
        <time>2022-10-13T12:41:26.298Z</time>
      </trkpt>
      <trkpt lat="44.78473" lon="4.2362">
        <ele>1275.77</ele>
        <time>2022-10-13T12:41:35.599Z</time>
      </trkpt>
      <trkpt lat="44.78474" lon="4.23636">
        <ele>1276.21</ele>
        <time>2022-10-13T12:41:44.829Z</time>
      </trkpt>
      <trkpt lat="44.78477" lon="4.2365">
        <ele>1276.8</ele>
        <time>2022-10-13T12:41:54.002Z</time>
      </trkpt>
      <trkpt lat="44.78481" lon="4.23666">
        <ele>1277.44</ele>
        <time>2022-10-13T12:42:03.547Z</time>
      </trkpt>
      <trkpt lat="44.78485" lon="4.23681">
        <ele>1278.05</ele>
        <time>2022-10-13T12:42:13.067Z</time>
      </trkpt>
      <trkpt lat="44.7849" lon="4.23695">
        <ele>1278.74</ele>
        <time>2022-10-13T12:42:22.183Z</time>
      </trkpt>
      <trkpt lat="44.78496" lon="4.23707">
        <ele>1279.42</ele>
        <time>2022-10-13T12:42:31.228Z</time>
      </trkpt>
      <trkpt lat="44.78503" lon="4.2372">
        <ele>1280.12</ele>
        <time>2022-10-13T12:42:40.744Z</time>
      </trkpt>
      <trkpt lat="44.78508" lon="4.23734">
        <ele>1280.7</ele>
        <time>2022-10-13T12:42:49.842Z</time>
      </trkpt>
      <trkpt lat="44.78514" lon="4.23746">
        <ele>1281.16</ele>
        <time>2022-10-13T12:42:59.120Z</time>
      </trkpt>
      <trkpt lat="44.7852" lon="4.2376">
        <ele>1281.62</ele>
        <time>2022-10-13T12:43:08.480Z</time>
      </trkpt>
      <trkpt lat="44.78527" lon="4.23771">
        <ele>1282.2</ele>
        <time>2022-10-13T12:43:17.540Z</time>
      </trkpt>
      <trkpt lat="44.78537" lon="4.23782">
        <ele>1283.01</ele>
        <time>2022-10-13T12:43:26.941Z</time>
      </trkpt>
      <trkpt lat="44.78546" lon="4.23793">
        <ele>1283.67</ele>
        <time>2022-10-13T12:43:36.143Z</time>
      </trkpt>
      <trkpt lat="44.78553" lon="4.23803">
        <ele>1284.08</ele>
        <time>2022-10-13T12:43:45.465Z</time>
      </trkpt>
      <trkpt lat="44.78561" lon="4.23812">
        <ele>1284.49</ele>
        <time>2022-10-13T12:43:54.664Z</time>
      </trkpt>
      <trkpt lat="44.7857" lon="4.2382">
        <ele>1284.83</ele>
        <time>2022-10-13T12:44:03.883Z</time>
      </trkpt>
      <trkpt lat="44.78579" lon="4.23825">
        <ele>1285.3</ele>
        <time>2022-10-13T12:44:13.009Z</time>
      </trkpt>
      <trkpt lat="44.7859" lon="4.23827">
        <ele>1286.08</ele>
        <time>2022-10-13T12:44:22.801Z</time>
      </trkpt>
      <trkpt lat="44.78602" lon="4.23824">
        <ele>1287.32</ele>
        <time>2022-10-13T12:44:32.662Z</time>
      </trkpt>
      <trkpt lat="44.78613" lon="4.23821">
        <ele>1288.43</ele>
        <time>2022-10-13T12:44:42.060Z</time>
      </trkpt>
      <trkpt lat="44.78623" lon="4.23827">
        <ele>1288.79</ele>
        <time>2022-10-13T12:44:51.402Z</time>
      </trkpt>
      <trkpt lat="44.78626" lon="4.23844">
        <ele>1287.69</ele>
        <time>2022-10-13T12:45:01.001Z</time>
      </trkpt>
      <trkpt lat="44.78629" lon="4.23859">
        <ele>1286.63</ele>
        <time>2022-10-13T12:45:10.367Z</time>
      </trkpt>
      <trkpt lat="44.78637" lon="4.23871">
        <ele>1286.19</ele>
        <time>2022-10-13T12:45:20.089Z</time>
      </trkpt>
      <trkpt lat="44.78642" lon="4.23885">
        <ele>1285.47</ele>
        <time>2022-10-13T12:45:29.768Z</time>
      </trkpt>
      <trkpt lat="44.78651" lon="4.23895">
        <ele>1285.57</ele>
        <time>2022-10-13T12:45:38.865Z</time>
      </trkpt>
      <trkpt lat="44.78659" lon="4.23902">
        <ele>1286.04</ele>
        <time>2022-10-13T12:45:47.946Z</time>
      </trkpt>
      <trkpt lat="44.78665" lon="4.23913">
        <ele>1286.02</ele>
        <time>2022-10-13T12:45:57.542Z</time>
      </trkpt>
      <trkpt lat="44.7867" lon="4.23927">
        <ele>1285.78</ele>
        <time>2022-10-13T12:46:06.543Z</time>
      </trkpt>
      <trkpt lat="44.78673" lon="4.23943">
        <ele>1285.21</ele>
        <time>2022-10-13T12:46:15.780Z</time>
      </trkpt>
      <trkpt lat="44.7868" lon="4.23958">
        <ele>1285.3</ele>
        <time>2022-10-13T12:46:25.607Z</time>
      </trkpt>
      <trkpt lat="44.78684" lon="4.23971">
        <ele>1285.09</ele>
        <time>2022-10-13T12:46:34.999Z</time>
      </trkpt>
      <trkpt lat="44.78687" lon="4.23985">
        <ele>1284.7</ele>
        <time>2022-10-13T12:46:45.106Z</time>
      </trkpt>
      <trkpt lat="44.78692" lon="4.23995">
        <ele>1284.74</ele>
        <time>2022-10-13T12:46:54.884Z</time>
      </trkpt>
      <trkpt lat="44.78694" lon="4.24008">
        <ele>1283.94</ele>
        <time>2022-10-13T12:47:03.999Z</time>
      </trkpt>
      <trkpt lat="44.78701" lon="4.24019">
        <ele>1283.83</ele>
        <time>2022-10-13T12:47:13.941Z</time>
      </trkpt>
      <trkpt lat="44.78709" lon="4.24033">
        <ele>1283.46</ele>
        <time>2022-10-13T12:47:23.859Z</time>
      </trkpt>
      <trkpt lat="44.78718" lon="4.24042">
        <ele>1283.1</ele>
        <time>2022-10-13T12:47:34.118Z</time>
      </trkpt>
      <trkpt lat="44.78726" lon="4.24048">
        <ele>1282.8</ele>
        <time>2022-10-13T12:48:10.885Z</time>
      </trkpt>
      <trkpt lat="44.78737" lon="4.24055">
        <ele>1282.2</ele>
        <time>2022-10-13T12:48:20.722Z</time>
      </trkpt>
      <trkpt lat="44.78748" lon="4.2406">
        <ele>1281.71</ele>
        <time>2022-10-13T12:48:30.542Z</time>
      </trkpt>
      <trkpt lat="44.78757" lon="4.24064">
        <ele>1281.17</ele>
        <time>2022-10-13T12:50:18.000Z</time>
      </trkpt>
      <trkpt lat="44.78769" lon="4.2407">
        <ele>1279.98</ele>
        <time>2022-10-13T12:50:28.000Z</time>
      </trkpt>
      <trkpt lat="44.78782" lon="4.24075">
        <ele>1278.43</ele>
        <time>2022-10-13T12:50:38.000Z</time>
      </trkpt>
      <trkpt lat="44.78793" lon="4.24078">
        <ele>1277.28</ele>
        <time>2022-10-13T12:50:48.000Z</time>
      </trkpt>
      <trkpt lat="44.78805" lon="4.24079">
        <ele>1276.14</ele>
        <time>2022-10-13T12:50:57.045Z</time>
      </trkpt>
      <trkpt lat="44.78816" lon="4.2408">
        <ele>1275.12</ele>
        <time>2022-10-13T12:51:06.802Z</time>
      </trkpt>
      <trkpt lat="44.78825" lon="4.24074">
        <ele>1275.73</ele>
        <time>2022-10-13T12:51:18.643Z</time>
      </trkpt>
      <trkpt lat="44.78835" lon="4.24066">
        <ele>1276.77</ele>
        <time>2022-10-13T12:51:27.942Z</time>
      </trkpt>
      <trkpt lat="44.78846" lon="4.24053">
        <ele>1279.12</ele>
        <time>2022-10-13T12:51:37.279Z</time>
      </trkpt>
      <trkpt lat="44.78854" lon="4.24043">
        <ele>1280.68</ele>
        <time>2022-10-13T12:51:46.340Z</time>
      </trkpt>
      <trkpt lat="44.78863" lon="4.24038">
        <ele>1281.1</ele>
        <time>2022-10-13T12:51:55.455Z</time>
      </trkpt>
      <trkpt lat="44.78873" lon="4.24039">
        <ele>1279.74</ele>
        <time>2022-10-13T12:52:05.005Z</time>
      </trkpt>
      <trkpt lat="44.78881" lon="4.24048">
        <ele>1276.84</ele>
        <time>2022-10-13T12:52:14.085Z</time>
      </trkpt>
      <trkpt lat="44.78892" lon="4.24046">
        <ele>1276.07</ele>
        <time>2022-10-13T12:52:23.746Z</time>
      </trkpt>
      <trkpt lat="44.78902" lon="4.24041">
        <ele>1275.92</ele>
        <time>2022-10-13T12:52:32.843Z</time>
      </trkpt>
      <trkpt lat="44.78913" lon="4.24038">
        <ele>1275.4</ele>
        <time>2022-10-13T12:54:13.000Z</time>
      </trkpt>
      <trkpt lat="44.78923" lon="4.2403">
        <ele>1275.62</ele>
        <time>2022-10-13T12:54:22.282Z</time>
      </trkpt>
      <trkpt lat="44.78936" lon="4.24023">
        <ele>1275.22</ele>
        <time>2022-10-13T12:54:31.602Z</time>
      </trkpt>
      <trkpt lat="44.78947" lon="4.24016">
        <ele>1274.86</ele>
        <time>2022-10-13T12:54:41.241Z</time>
      </trkpt>
      <trkpt lat="44.78959" lon="4.24012">
        <ele>1273.99</ele>
        <time>2022-10-13T12:54:50.800Z</time>
      </trkpt>
      <trkpt lat="44.7897" lon="4.24011">
        <ele>1272.89</ele>
        <time>2022-10-13T12:55:00.818Z</time>
      </trkpt>
      <trkpt lat="44.7898" lon="4.24014">
        <ele>1271.38</ele>
        <time>2022-10-13T12:55:10.026Z</time>
      </trkpt>
      <trkpt lat="44.78991" lon="4.24018">
        <ele>1269.82</ele>
        <time>2022-10-13T12:55:20.034Z</time>
      </trkpt>
      <trkpt lat="44.79003" lon="4.24018">
        <ele>1268.75</ele>
        <time>2022-10-13T12:55:29.586Z</time>
      </trkpt>
      <trkpt lat="44.79015" lon="4.24018">
        <ele>1267.87</ele>
        <time>2022-10-13T12:55:38.727Z</time>
      </trkpt>
      <trkpt lat="44.79028" lon="4.24019">
        <ele>1267.12</ele>
        <time>2022-10-13T12:55:48.686Z</time>
      </trkpt>
      <trkpt lat="44.79037" lon="4.2402">
        <ele>1266.59</ele>
        <time>2022-10-13T12:55:59.043Z</time>
      </trkpt>
      <trkpt lat="44.79048" lon="4.24035">
        <ele>1265.2</ele>
        <time>2022-10-13T12:56:08.605Z</time>
      </trkpt>
      <trkpt lat="44.79055" lon="4.24051">
        <ele>1264.25</ele>
        <time>2022-10-13T12:56:18.044Z</time>
      </trkpt>
      <trkpt lat="44.79061" lon="4.24067">
        <ele>1263.56</ele>
        <time>2022-10-13T12:56:27.603Z</time>
      </trkpt>
      <trkpt lat="44.79054" lon="4.24076">
        <ele>1262.55</ele>
        <time>2022-10-13T12:57:05.298Z</time>
      </trkpt>
      <trkpt lat="44.7904" lon="4.24075">
        <ele>1261.64</ele>
        <time>2022-10-13T12:57:14.838Z</time>
      </trkpt>
      <trkpt lat="44.79033" lon="4.24085">
        <ele>1260.2</ele>
        <time>2022-10-13T12:57:26.907Z</time>
      </trkpt>
      <trkpt lat="44.79031" lon="4.24101">
        <ele>1258.05</ele>
        <time>2022-10-13T12:57:36.083Z</time>
      </trkpt>
      <trkpt lat="44.79022" lon="4.24099">
        <ele>1257.43</ele>
        <time>2022-10-13T12:57:46.885Z</time>
      </trkpt>
      <trkpt lat="44.79012" lon="4.24103">
        <ele>1256.19</ele>
        <time>2022-10-13T12:57:56.384Z</time>
      </trkpt>
      <trkpt lat="44.79005" lon="4.24113">
        <ele>1254.18</ele>
        <time>2022-10-13T12:58:05.481Z</time>
      </trkpt>
      <trkpt lat="44.78995" lon="4.24121">
        <ele>1252.54</ele>
        <time>2022-10-13T12:58:15.059Z</time>
      </trkpt>
      <trkpt lat="44.78987" lon="4.24128">
        <ele>1251.12</ele>
        <time>2022-10-13T12:58:24.460Z</time>
      </trkpt>
      <trkpt lat="44.78979" lon="4.24137">
        <ele>1249.46</ele>
        <time>2022-10-13T12:58:35.758Z</time>
      </trkpt>
      <trkpt lat="44.78971" lon="4.24145">
        <ele>1247.97</ele>
        <time>2022-10-13T12:58:45.648Z</time>
      </trkpt>
      <trkpt lat="44.78965" lon="4.24154">
        <ele>1246.34</ele>
        <time>2022-10-13T12:58:54.999Z</time>
      </trkpt>
      <trkpt lat="44.78959" lon="4.24164">
        <ele>1244.61</ele>
        <time>2022-10-13T12:59:05.688Z</time>
      </trkpt>
      <trkpt lat="44.7895" lon="4.24173">
        <ele>1243</ele>
        <time>2022-10-13T12:59:16.999Z</time>
      </trkpt>
      <trkpt lat="44.78942" lon="4.24179">
        <ele>1241.69</ele>
        <time>2022-10-13T12:59:26.745Z</time>
      </trkpt>
      <trkpt lat="44.78935" lon="4.2419">
        <ele>1239.49</ele>
        <time>2022-10-13T12:59:35.763Z</time>
      </trkpt>
      <trkpt lat="44.78925" lon="4.24196">
        <ele>1237.95</ele>
        <time>2022-10-13T12:59:45.783Z</time>
      </trkpt>
      <trkpt lat="44.78915" lon="4.24196">
        <ele>1238.17</ele>
        <time>2022-10-13T12:59:55.020Z</time>
      </trkpt>
      <trkpt lat="44.78905" lon="4.24194">
        <ele>1238.9</ele>
        <time>2022-10-13T13:00:04.445Z</time>
      </trkpt>
      <trkpt lat="44.78897" lon="4.24202">
        <ele>1237.55</ele>
        <time>2022-10-13T13:00:13.859Z</time>
      </trkpt>
      <trkpt lat="44.78888" lon="4.24213">
        <ele>1235.83</ele>
        <time>2022-10-13T13:00:23.697Z</time>
      </trkpt>
      <trkpt lat="44.78879" lon="4.2422">
        <ele>1235.3</ele>
        <time>2022-10-13T13:00:33.346Z</time>
      </trkpt>
      <trkpt lat="44.78867" lon="4.24216">
        <ele>1237.76</ele>
        <time>2022-10-13T13:00:42.866Z</time>
      </trkpt>
      <trkpt lat="44.78856" lon="4.24214">
        <ele>1239.86</ele>
        <time>2022-10-13T13:00:52.009Z</time>
      </trkpt>
      <trkpt lat="44.78855" lon="4.24232">
        <ele>1235.59</ele>
        <time>2022-10-13T13:01:32.379Z</time>
      </trkpt>
      <trkpt lat="44.78853" lon="4.2425">
        <ele>1231.69</ele>
        <time>2022-10-13T13:01:41.421Z</time>
      </trkpt>
      <trkpt lat="44.7885" lon="4.24264">
        <ele>1228.67</ele>
        <time>2022-10-13T13:01:50.858Z</time>
      </trkpt>
      <trkpt lat="44.78847" lon="4.24277">
        <ele>1225.82</ele>
        <time>2022-10-13T13:02:07.128Z</time>
      </trkpt>
      <trkpt lat="44.78842" lon="4.24288">
        <ele>1223.25</ele>
        <time>2022-10-13T13:02:23.265Z</time>
      </trkpt>
      <trkpt lat="44.78838" lon="4.24302">
        <ele>1219.71</ele>
        <time>2022-10-13T13:02:32.303Z</time>
      </trkpt>
      <trkpt lat="44.78833" lon="4.2432">
        <ele>1214.92</ele>
        <time>2022-10-13T13:02:41.544Z</time>
      </trkpt>
      <trkpt lat="44.78832" lon="4.24333">
        <ele>1211.22</ele>
        <time>2022-10-13T13:02:52.761Z</time>
      </trkpt>
      <trkpt lat="44.7883" lon="4.24346">
        <ele>1207.34</ele>
        <time>2022-10-13T13:03:07.027Z</time>
      </trkpt>
      <trkpt lat="44.78827" lon="4.24358">
        <ele>1203.43</ele>
        <time>2022-10-13T13:03:20.667Z</time>
      </trkpt>
      <trkpt lat="44.78825" lon="4.2437">
        <ele>1199.54</ele>
        <time>2022-10-13T13:03:33.474Z</time>
      </trkpt>
      <trkpt lat="44.78821" lon="4.24387">
        <ele>1194.18</ele>
        <time>2022-10-13T13:03:42.946Z</time>
      </trkpt>
      <trkpt lat="44.78817" lon="4.24398">
        <ele>1190.39</ele>
        <time>2022-10-13T13:03:57.926Z</time>
      </trkpt>
      <trkpt lat="44.78811" lon="4.24409">
        <ele>1186.91</ele>
        <time>2022-10-13T13:04:16.443Z</time>
      </trkpt>
      <trkpt lat="44.78807" lon="4.2442">
        <ele>1183.55</ele>
        <time>2022-10-13T13:04:25.522Z</time>
      </trkpt>
      <trkpt lat="44.78802" lon="4.24435">
        <ele>1179.2</ele>
        <time>2022-10-13T13:04:34.942Z</time>
      </trkpt>
      <trkpt lat="44.78796" lon="4.24446">
        <ele>1176.3</ele>
        <time>2022-10-13T13:04:44.240Z</time>
      </trkpt>
      <trkpt lat="44.78789" lon="4.24454">
        <ele>1174.62</ele>
        <time>2022-10-13T13:04:57.781Z</time>
      </trkpt>
      <trkpt lat="44.78785" lon="4.24465">
        <ele>1171.47</ele>
        <time>2022-10-13T13:05:11.929Z</time>
      </trkpt>
      <trkpt lat="44.78784" lon="4.2448">
        <ele>1167.14</ele>
        <time>2022-10-13T13:05:21.068Z</time>
      </trkpt>
      <trkpt lat="44.78784" lon="4.24493">
        <ele>1163.26</ele>
        <time>2022-10-13T13:05:35.063Z</time>
      </trkpt>
      <trkpt lat="44.7878" lon="4.24507">
        <ele>1159.59</ele>
        <time>2022-10-13T13:05:50.821Z</time>
      </trkpt>
      <trkpt lat="44.78773" lon="4.24525">
        <ele>1154.87</ele>
        <time>2022-10-13T13:06:00.141Z</time>
      </trkpt>
      <trkpt lat="44.78766" lon="4.24537">
        <ele>1151.93</ele>
        <time>2022-10-13T13:06:09.583Z</time>
      </trkpt>
      <trkpt lat="44.78761" lon="4.24548">
        <ele>1148.88</ele>
        <time>2022-10-13T13:06:19.079Z</time>
      </trkpt>
      <trkpt lat="44.78771" lon="4.24548">
        <ele>1148.59</ele>
        <time>2022-10-13T13:06:50.815Z</time>
      </trkpt>
      <trkpt lat="44.78781" lon="4.24549">
        <ele>1147.84</ele>
        <time>2022-10-13T13:07:02.000Z</time>
      </trkpt>
      <trkpt lat="44.7879" lon="4.24546">
        <ele>1148.16</ele>
        <time>2022-10-13T13:07:12.659Z</time>
      </trkpt>
      <trkpt lat="44.78798" lon="4.2454">
        <ele>1149.39</ele>
        <time>2022-10-13T13:07:23.326Z</time>
      </trkpt>
      <trkpt lat="44.78806" lon="4.24532">
        <ele>1151.38</ele>
        <time>2022-10-13T13:07:37.802Z</time>
      </trkpt>
      <trkpt lat="44.78811" lon="4.24522">
        <ele>1154.21</ele>
        <time>2022-10-13T13:07:52.461Z</time>
      </trkpt>
      <trkpt lat="44.78819" lon="4.24529">
        <ele>1152.94</ele>
        <time>2022-10-13T13:08:06.761Z</time>
      </trkpt>
      <trkpt lat="44.78827" lon="4.24542">
        <ele>1150.87</ele>
        <time>2022-10-13T13:08:15.830Z</time>
      </trkpt>
      <trkpt lat="44.78829" lon="4.24556">
        <ele>1147.64</ele>
        <time>2022-10-13T13:08:26.684Z</time>
      </trkpt>
      <trkpt lat="44.78827" lon="4.24569">
        <ele>1144.14</ele>
        <time>2022-10-13T13:08:38.024Z</time>
      </trkpt>
      <trkpt lat="44.78828" lon="4.24582">
        <ele>1140.72</ele>
        <time>2022-10-13T13:08:47.422Z</time>
      </trkpt>
      <trkpt lat="44.78824" lon="4.24599">
        <ele>1135.82</ele>
        <time>2022-10-13T13:08:56.742Z</time>
      </trkpt>
      <trkpt lat="44.78825" lon="4.24612">
        <ele>1132.48</ele>
        <time>2022-10-13T13:09:08.026Z</time>
      </trkpt>
      <trkpt lat="44.78829" lon="4.24624">
        <ele>1130.39</ele>
        <time>2022-10-13T13:09:17.721Z</time>
      </trkpt>
      <trkpt lat="44.78834" lon="4.24634">
        <ele>1129.37</ele>
        <time>2022-10-13T13:09:27.488Z</time>
      </trkpt>
      <trkpt lat="44.7884" lon="4.24646">
        <ele>1128.22</ele>
        <time>2022-10-13T13:09:36.789Z</time>
      </trkpt>
      <trkpt lat="44.78846" lon="4.2466">
        <ele>1127.47</ele>
        <time>2022-10-13T13:09:46.632Z</time>
      </trkpt>
      <trkpt lat="44.78852" lon="4.24678">
        <ele>1126.05</ele>
        <time>2022-10-13T13:09:56.805Z</time>
      </trkpt>
      <trkpt lat="44.78856" lon="4.24693">
        <ele>1124.78</ele>
        <time>2022-10-13T13:10:05.925Z</time>
      </trkpt>
      <trkpt lat="44.78858" lon="4.24705">
        <ele>1122.41</ele>
        <time>2022-10-13T13:10:31.842Z</time>
      </trkpt>
      <trkpt lat="44.78859" lon="4.24718">
        <ele>1120.1</ele>
        <time>2022-10-13T13:10:48.061Z</time>
      </trkpt>
      <trkpt lat="44.78862" lon="4.24731">
        <ele>1119.3</ele>
        <time>2022-10-13T13:10:57.400Z</time>
      </trkpt>
      <trkpt lat="44.78864" lon="4.24744">
        <ele>1117.33</ele>
        <time>2022-10-13T13:11:07.509Z</time>
      </trkpt>
      <trkpt lat="44.78861" lon="4.24757">
        <ele>1113.2</ele>
        <time>2022-10-13T13:11:18.685Z</time>
      </trkpt>
      <trkpt lat="44.7886" lon="4.24769">
        <ele>1109.75</ele>
        <time>2022-10-13T13:11:29.344Z</time>
      </trkpt>
      <trkpt lat="44.78861" lon="4.24784">
        <ele>1107.32</ele>
        <time>2022-10-13T13:11:38.646Z</time>
      </trkpt>
      <trkpt lat="44.78861" lon="4.24797">
        <ele>1104.7</ele>
        <time>2022-10-13T13:11:48.204Z</time>
      </trkpt>
      <trkpt lat="44.78862" lon="4.2481">
        <ele>1102.83</ele>
        <time>2022-10-13T13:11:58.444Z</time>
      </trkpt>
      <trkpt lat="44.78857" lon="4.24822">
        <ele>1098.44</ele>
        <time>2022-10-13T13:12:13.663Z</time>
      </trkpt>
      <trkpt lat="44.78854" lon="4.24836">
        <ele>1094.72</ele>
        <time>2022-10-13T13:12:24.802Z</time>
      </trkpt>
      <trkpt lat="44.78851" lon="4.24854">
        <ele>1090.84</ele>
        <time>2022-10-13T13:12:34.800Z</time>
      </trkpt>
      <trkpt lat="44.78854" lon="4.24866">
        <ele>1089.55</ele>
        <time>2022-10-13T13:12:47.538Z</time>
      </trkpt>
      <trkpt lat="44.78858" lon="4.24878">
        <ele>1088.21</ele>
        <time>2022-10-13T13:13:08.525Z</time>
      </trkpt>
      <trkpt lat="44.7886" lon="4.24891">
        <ele>1086.19</ele>
        <time>2022-10-13T13:13:19.784Z</time>
      </trkpt>
      <trkpt lat="44.78862" lon="4.24904">
        <ele>1084.05</ele>
        <time>2022-10-13T13:13:29.321Z</time>
      </trkpt>
      <trkpt lat="44.78858" lon="4.24922">
        <ele>1079.25</ele>
        <time>2022-10-13T13:13:38.582Z</time>
      </trkpt>
      <trkpt lat="44.78855" lon="4.24934">
        <ele>1075.81</ele>
        <time>2022-10-13T13:13:51.008Z</time>
      </trkpt>
      <trkpt lat="44.78848" lon="4.24942">
        <ele>1072.23</ele>
        <time>2022-10-13T13:14:10.608Z</time>
      </trkpt>
      <trkpt lat="44.7884" lon="4.2495">
        <ele>1068.32</ele>
        <time>2022-10-13T13:14:23.000Z</time>
      </trkpt>
      <trkpt lat="44.78837" lon="4.24961">
        <ele>1064.15</ele>
        <time>2022-10-13T13:14:48.625Z</time>
      </trkpt>
      <trkpt lat="44.78838" lon="4.24974">
        <ele>1060.94</ele>
        <time>2022-10-13T13:15:06.341Z</time>
      </trkpt>
      <trkpt lat="44.78842" lon="4.24986">
        <ele>1058.8</ele>
        <time>2022-10-13T13:15:16.923Z</time>
      </trkpt>
      <trkpt lat="44.78852" lon="4.25001">
        <ele>1056.81</ele>
        <time>2022-10-13T13:15:55.206Z</time>
      </trkpt>
      <trkpt lat="44.78857" lon="4.25015">
        <ele>1053.42</ele>
        <time>2022-10-13T13:16:04.706Z</time>
      </trkpt>
      <trkpt lat="44.78858" lon="4.25028">
        <ele>1049.52</ele>
        <time>2022-10-13T13:16:15.646Z</time>
      </trkpt>
      <trkpt lat="44.7886" lon="4.25041">
        <ele>1045.75</ele>
        <time>2022-10-13T13:16:26.322Z</time>
      </trkpt>
      <trkpt lat="44.78856" lon="4.25052">
        <ele>1041.36</ele>
        <time>2022-10-13T13:16:38.902Z</time>
      </trkpt>
      <trkpt lat="44.78857" lon="4.25065">
        <ele>1037.26</ele>
        <time>2022-10-13T13:17:14.607Z</time>
      </trkpt>
      <trkpt lat="44.78861" lon="4.25076">
        <ele>1034.27</ele>
        <time>2022-10-13T13:17:26.206Z</time>
      </trkpt>
      <trkpt lat="44.7886" lon="4.2509">
        <ele>1029.49</ele>
        <time>2022-10-13T13:17:39.070Z</time>
      </trkpt>
      <trkpt lat="44.78859" lon="4.25103">
        <ele>1024.8</ele>
        <time>2022-10-13T13:17:49.022Z</time>
      </trkpt>
      <trkpt lat="44.78855" lon="4.25115">
        <ele>1020.46</ele>
        <time>2022-10-13T13:18:03.522Z</time>
      </trkpt>
      <trkpt lat="44.78864" lon="4.25113">
        <ele>1022.12</ele>
        <time>2022-10-13T13:18:33.589Z</time>
      </trkpt>
      <trkpt lat="44.78872" lon="4.25107">
        <ele>1024.67</ele>
        <time>2022-10-13T13:18:48.420Z</time>
      </trkpt>
      <trkpt lat="44.7888" lon="4.25113">
        <ele>1023.02</ele>
        <time>2022-10-13T13:18:57.827Z</time>
      </trkpt>
      <trkpt lat="44.78886" lon="4.25124">
        <ele>1019.66</ele>
        <time>2022-10-13T13:19:09.668Z</time>
      </trkpt>
      <trkpt lat="44.78893" lon="4.25133">
        <ele>1016.72</ele>
        <time>2022-10-13T13:19:18.986Z</time>
      </trkpt>
      <trkpt lat="44.789" lon="4.25143">
        <ele>1013.28</ele>
        <time>2022-10-13T13:19:28.305Z</time>
      </trkpt>
      <trkpt lat="44.78909" lon="4.25158">
        <ele>1008.6</ele>
        <time>2022-10-13T13:19:37.999Z</time>
      </trkpt>
      <trkpt lat="44.78913" lon="4.25169">
        <ele>1005.22</ele>
        <time>2022-10-13T13:19:50.181Z</time>
      </trkpt>
      <trkpt lat="44.78919" lon="4.25182">
        <ele>1001.73</ele>
        <time>2022-10-13T13:20:00.999Z</time>
      </trkpt>
      <trkpt lat="44.78911" lon="4.25187">
        <ele>997.75</ele>
        <time>2022-10-13T13:20:15.085Z</time>
      </trkpt>
      <trkpt lat="44.78902" lon="4.25186">
        <ele>996.73</ele>
        <time>2022-10-13T13:20:27.062Z</time>
      </trkpt>
      <trkpt lat="44.78904" lon="4.25198">
        <ele>991.82</ele>
        <time>2022-10-13T13:20:55.012Z</time>
      </trkpt>
      <trkpt lat="44.78908" lon="4.25211">
        <ele>987.35</ele>
        <time>2022-10-13T13:21:04.325Z</time>
      </trkpt>
      <trkpt lat="44.78904" lon="4.25223">
        <ele>982.07</ele>
        <time>2022-10-13T13:21:14.083Z</time>
      </trkpt>
      <trkpt lat="44.789" lon="4.25235">
        <ele>977.01</ele>
        <time>2022-10-13T13:21:28.004Z</time>
      </trkpt>
      <trkpt lat="44.78892" lon="4.25243">
        <ele>973.59</ele>
        <time>2022-10-13T13:21:44.999Z</time>
      </trkpt>
      <trkpt lat="44.78885" lon="4.25252">
        <ele>970.07</ele>
        <time>2022-10-13T13:22:02.019Z</time>
      </trkpt>
      <trkpt lat="44.78885" lon="4.25267">
        <ele>965.43</ele>
        <time>2022-10-13T13:22:38.825Z</time>
      </trkpt>
      <trkpt lat="44.78885" lon="4.2528">
        <ele>961.72</ele>
        <time>2022-10-13T13:22:49.022Z</time>
      </trkpt>
      <trkpt lat="44.78881" lon="4.25292">
        <ele>957.85</ele>
        <time>2022-10-13T13:23:00.583Z</time>
      </trkpt>
      <trkpt lat="44.78886" lon="4.25303">
        <ele>955.57</ele>
        <time>2022-10-13T13:23:23.381Z</time>
      </trkpt>
      <trkpt lat="44.78885" lon="4.25315">
        <ele>952.27</ele>
        <time>2022-10-13T13:23:38.000Z</time>
      </trkpt>
      <trkpt lat="44.78881" lon="4.25327">
        <ele>948.93</ele>
        <time>2022-10-13T13:23:52.628Z</time>
      </trkpt>
      <trkpt lat="44.7888" lon="4.2534">
        <ele>945.71</ele>
        <time>2022-10-13T13:24:05.825Z</time>
      </trkpt>
      <trkpt lat="44.78875" lon="4.25358">
        <ele>940.66</ele>
        <time>2022-10-13T13:24:15.144Z</time>
      </trkpt>
      <trkpt lat="44.78871" lon="4.2537">
        <ele>937.17</ele>
        <time>2022-10-13T13:24:34.880Z</time>
      </trkpt>
      <trkpt lat="44.78865" lon="4.25379">
        <ele>933.71</ele>
        <time>2022-10-13T13:24:52.508Z</time>
      </trkpt>
      <trkpt lat="44.78858" lon="4.25388">
        <ele>929.99</ele>
        <time>2022-10-13T13:25:05.000Z</time>
      </trkpt>
      <trkpt lat="44.78854" lon="4.254">
        <ele>926.83</ele>
        <time>2022-10-13T13:25:15.880Z</time>
      </trkpt>
      <trkpt lat="44.78849" lon="4.25412">
        <ele>923.64</ele>
        <time>2022-10-13T13:25:25.906Z</time>
      </trkpt>
      <trkpt lat="44.78857" lon="4.25398">
        <ele>928.1</ele>
        <time>2022-10-13T13:30:52.999Z</time>
      </trkpt>
      <trkpt lat="44.78855" lon="4.25411">
        <ele>925.58</ele>
        <time>2022-10-13T13:31:51.244Z</time>
      </trkpt>
      <trkpt lat="44.78862" lon="4.25427">
        <ele>926.5</ele>
        <time>2022-10-13T13:32:00.683Z</time>
      </trkpt>
      <trkpt lat="44.7886" lon="4.25442">
        <ele>925.74</ele>
        <time>2022-10-13T13:32:09.763Z</time>
      </trkpt>
      <trkpt lat="44.78857" lon="4.25455">
        <ele>925.03</ele>
        <time>2022-10-13T13:32:18.882Z</time>
      </trkpt>
      <trkpt lat="44.78856" lon="4.25469">
        <ele>925.38</ele>
        <time>2022-10-13T13:32:28.301Z</time>
      </trkpt>
      <trkpt lat="44.78855" lon="4.25484">
        <ele>925.34</ele>
        <time>2022-10-13T13:32:37.600Z</time>
      </trkpt>
      <trkpt lat="44.78855" lon="4.255">
        <ele>925.37</ele>
        <time>2022-10-13T13:32:46.807Z</time>
      </trkpt>
      <trkpt lat="44.78859" lon="4.25516">
        <ele>926.75</ele>
        <time>2022-10-13T13:32:56.531Z</time>
      </trkpt>
      <trkpt lat="44.78865" lon="4.25528">
        <ele>929.19</ele>
        <time>2022-10-13T13:33:05.827Z</time>
      </trkpt>
      <trkpt lat="44.78872" lon="4.25544">
        <ele>932.53</ele>
        <time>2022-10-13T13:33:15.684Z</time>
      </trkpt>
      <trkpt lat="44.78874" lon="4.25561">
        <ele>932.17</ele>
        <time>2022-10-13T13:33:25.744Z</time>
      </trkpt>
      <trkpt lat="44.78872" lon="4.25579">
        <ele>929.68</ele>
        <time>2022-10-13T13:33:35.004Z</time>
      </trkpt>
      <trkpt lat="44.78874" lon="4.25596">
        <ele>928.89</ele>
        <time>2022-10-13T13:33:44.783Z</time>
      </trkpt>
      <trkpt lat="44.78878" lon="4.25612">
        <ele>929.38</ele>
        <time>2022-10-13T13:33:54.483Z</time>
      </trkpt>
      <trkpt lat="44.78883" lon="4.25627">
        <ele>930.52</ele>
        <time>2022-10-13T13:34:03.941Z</time>
      </trkpt>
      <trkpt lat="44.78885" lon="4.25644">
        <ele>929.12</ele>
        <time>2022-10-13T13:34:13.489Z</time>
      </trkpt>
      <trkpt lat="44.78884" lon="4.25664">
        <ele>924.98</ele>
        <time>2022-10-13T13:34:22.999Z</time>
      </trkpt>
      <trkpt lat="44.78882" lon="4.25679">
        <ele>920.93</ele>
        <time>2022-10-13T13:34:32.725Z</time>
      </trkpt>
      <trkpt lat="44.78882" lon="4.25697">
        <ele>917.66</ele>
        <time>2022-10-13T13:34:42.625Z</time>
      </trkpt>
      <trkpt lat="44.78881" lon="4.25714">
        <ele>913.76</ele>
        <time>2022-10-13T13:34:51.867Z</time>
      </trkpt>
      <trkpt lat="44.78883" lon="4.25729">
        <ele>911.93</ele>
        <time>2022-10-13T13:35:01.344Z</time>
      </trkpt>
      <trkpt lat="44.78889" lon="4.25743">
        <ele>912.62</ele>
        <time>2022-10-13T13:35:10.541Z</time>
      </trkpt>
      <trkpt lat="44.78897" lon="4.25749">
        <ele>915.78</ele>
        <time>2022-10-13T13:35:19.902Z</time>
      </trkpt>
      <trkpt lat="44.78909" lon="4.25744">
        <ele>921.97</ele>
        <time>2022-10-13T13:35:29.121Z</time>
      </trkpt>
      <trkpt lat="44.78921" lon="4.25737">
        <ele>927.41</ele>
        <time>2022-10-13T13:35:38.242Z</time>
      </trkpt>
      <trkpt lat="44.78932" lon="4.25738">
        <ele>930.29</ele>
        <time>2022-10-13T13:35:47.859Z</time>
      </trkpt>
      <trkpt lat="44.78945" lon="4.25741">
        <ele>932.07</ele>
        <time>2022-10-13T13:35:57.507Z</time>
      </trkpt>
      <trkpt lat="44.78956" lon="4.25748">
        <ele>931.98</ele>
        <time>2022-10-13T13:36:06.947Z</time>
      </trkpt>
      <trkpt lat="44.78969" lon="4.25753">
        <ele>932.63</ele>
        <time>2022-10-13T13:36:16.826Z</time>
      </trkpt>
      <trkpt lat="44.78981" lon="4.25757">
        <ele>933.5</ele>
        <time>2022-10-13T13:36:26.306Z</time>
      </trkpt>
      <trkpt lat="44.78992" lon="4.25767">
        <ele>932.55</ele>
        <time>2022-10-13T13:36:35.825Z</time>
      </trkpt>
      <trkpt lat="44.79005" lon="4.25777">
        <ele>932.14</ele>
        <time>2022-10-13T13:36:45.041Z</time>
      </trkpt>
      <trkpt lat="44.79017" lon="4.25784">
        <ele>933.09</ele>
        <time>2022-10-13T13:36:54.424Z</time>
      </trkpt>
      <trkpt lat="44.79025" lon="4.25797">
        <ele>931.39</ele>
        <time>2022-10-13T13:37:03.942Z</time>
      </trkpt>
      <trkpt lat="44.79032" lon="4.25811">
        <ele>929.14</ele>
        <time>2022-10-13T13:37:13.581Z</time>
      </trkpt>
      <trkpt lat="44.7904" lon="4.25822">
        <ele>928.52</ele>
        <time>2022-10-13T13:37:23.026Z</time>
      </trkpt>
      <trkpt lat="44.7905" lon="4.25834">
        <ele>928.2</ele>
        <time>2022-10-13T13:37:32.519Z</time>
      </trkpt>
      <trkpt lat="44.7906" lon="4.25845">
        <ele>927.89</ele>
        <time>2022-10-13T13:37:41.999Z</time>
      </trkpt>
      <trkpt lat="44.79068" lon="4.25855">
        <ele>926.62</ele>
        <time>2022-10-13T13:37:51.806Z</time>
      </trkpt>
      <trkpt lat="44.79079" lon="4.25864">
        <ele>925.76</ele>
        <time>2022-10-13T13:38:01.746Z</time>
      </trkpt>
      <trkpt lat="44.79088" lon="4.25873">
        <ele>924.51</ele>
        <time>2022-10-13T13:38:10.904Z</time>
      </trkpt>
      <trkpt lat="44.79097" lon="4.25884">
        <ele>922.5</ele>
        <time>2022-10-13T13:38:20.044Z</time>
      </trkpt>
      <trkpt lat="44.79105" lon="4.25897">
        <ele>919.98</ele>
        <time>2022-10-13T13:38:29.382Z</time>
      </trkpt>
      <trkpt lat="44.79105" lon="4.25912">
        <ele>915.8</ele>
        <time>2022-10-13T13:38:38.441Z</time>
      </trkpt>
      <trkpt lat="44.79095" lon="4.25926">
        <ele>911.31</ele>
        <time>2022-10-13T13:38:48.000Z</time>
      </trkpt>
      <trkpt lat="44.79088" lon="4.25934">
        <ele>909.47</ele>
        <time>2022-10-13T13:39:01.780Z</time>
      </trkpt>
      <trkpt lat="44.79079" lon="4.25939">
        <ele>908.52</ele>
        <time>2022-10-13T13:39:10.807Z</time>
      </trkpt>
      <trkpt lat="44.7907" lon="4.25946">
        <ele>908.93</ele>
        <time>2022-10-13T13:39:20.386Z</time>
      </trkpt>
      <trkpt lat="44.79062" lon="4.25956">
        <ele>911.1</ele>
        <time>2022-10-13T13:39:29.824Z</time>
      </trkpt>
      <trkpt lat="44.79066" lon="4.25967">
        <ele>912.48</ele>
        <time>2022-10-13T13:39:42.523Z</time>
      </trkpt>
      <trkpt lat="44.79068" lon="4.2598">
        <ele>914.04</ele>
        <time>2022-10-13T13:40:04.922Z</time>
      </trkpt>
      <trkpt lat="44.79059" lon="4.25974">
        <ele>915.1</ele>
        <time>2022-10-13T13:40:21.820Z</time>
      </trkpt>
      <trkpt lat="44.79048" lon="4.25968">
        <ele>917</ele>
        <time>2022-10-13T13:40:30.860Z</time>
      </trkpt>
      <trkpt lat="44.7905" lon="4.2598">
        <ele>919.29</ele>
        <time>2022-10-13T13:40:54.687Z</time>
      </trkpt>
      <trkpt lat="44.79046" lon="4.25992">
        <ele>923.52</ele>
        <time>2022-10-13T13:41:16.000Z</time>
      </trkpt>
      <trkpt lat="44.79037" lon="4.25993">
        <ele>927.78</ele>
        <time>2022-10-13T13:41:27.003Z</time>
      </trkpt>
      <trkpt lat="44.79029" lon="4.25999">
        <ele>932.89</ele>
        <time>2022-10-13T13:41:49.364Z</time>
      </trkpt>
      <trkpt lat="44.7902" lon="4.25998">
        <ele>937</ele>
        <time>2022-10-13T13:42:06.103Z</time>
      </trkpt>
      <trkpt lat="44.79011" lon="4.26">
        <ele>940.9</ele>
        <time>2022-10-13T13:42:22.799Z</time>
      </trkpt>
      <trkpt lat="44.79001" lon="4.26002">
        <ele>944.32</ele>
        <time>2022-10-13T13:42:36.014Z</time>
      </trkpt>
      <trkpt lat="44.78991" lon="4.26">
        <ele>945.39</ele>
        <time>2022-10-13T13:42:45.750Z</time>
      </trkpt>
      <trkpt lat="44.78982" lon="4.26003">
        <ele>947.12</ele>
        <time>2022-10-13T13:42:58.723Z</time>
      </trkpt>
      <trkpt lat="44.78975" lon="4.26012">
        <ele>949.46</ele>
        <time>2022-10-13T13:43:11.763Z</time>
      </trkpt>
      <trkpt lat="44.78981" lon="4.26022">
        <ele>950.87</ele>
        <time>2022-10-13T13:43:52.649Z</time>
      </trkpt>
      <trkpt lat="44.7898" lon="4.26035">
        <ele>952.58</ele>
        <time>2022-10-13T13:44:08.666Z</time>
      </trkpt>
      <trkpt lat="44.78974" lon="4.26046">
        <ele>954.57</ele>
        <time>2022-10-13T13:44:19.996Z</time>
      </trkpt>
      <trkpt lat="44.78975" lon="4.26058">
        <ele>956.01</ele>
        <time>2022-10-13T13:44:42.999Z</time>
      </trkpt>
      <trkpt lat="44.78972" lon="4.26074">
        <ele>958.74</ele>
        <time>2022-10-13T13:44:52.682Z</time>
      </trkpt>
      <trkpt lat="44.78975" lon="4.26086">
        <ele>960.66</ele>
        <time>2022-10-13T13:45:16.788Z</time>
      </trkpt>
      <trkpt lat="44.78976" lon="4.261">
        <ele>964.12</ele>
        <time>2022-10-13T13:45:34.002Z</time>
      </trkpt>
      <trkpt lat="44.78976" lon="4.26114">
        <ele>967.82</ele>
        <time>2022-10-13T13:45:50.461Z</time>
      </trkpt>
      <trkpt lat="44.78975" lon="4.26126">
        <ele>971.79</ele>
        <time>2022-10-13T13:46:04.783Z</time>
      </trkpt>
      <trkpt lat="44.78973" lon="4.26139">
        <ele>976.2</ele>
        <time>2022-10-13T13:46:22.721Z</time>
      </trkpt>
      <trkpt lat="44.78977" lon="4.2616">
        <ele>981.51</ele>
        <time>2022-10-13T13:47:39.999Z</time>
      </trkpt>
      <trkpt lat="44.78981" lon="4.26172">
        <ele>983.72</ele>
        <time>2022-10-13T13:47:54.686Z</time>
      </trkpt>
      <trkpt lat="44.78987" lon="4.26184">
        <ele>985.68</ele>
        <time>2022-10-13T13:48:03.725Z</time>
      </trkpt>
      <trkpt lat="44.78989" lon="4.26197">
        <ele>988.82</ele>
        <time>2022-10-13T13:48:12.865Z</time>
      </trkpt>
      <trkpt lat="44.78992" lon="4.26212">
        <ele>992.27</ele>
        <time>2022-10-13T13:48:23.845Z</time>
      </trkpt>
      <trkpt lat="44.78992" lon="4.26226">
        <ele>996.03</ele>
        <time>2022-10-13T13:50:03.539Z</time>
      </trkpt>
      <trkpt lat="44.78999" lon="4.26219">
        <ele>991.91</ele>
        <time>2022-10-13T13:52:08.226Z</time>
      </trkpt>
      <trkpt lat="44.79006" lon="4.26229">
        <ele>992.36</ele>
        <time>2022-10-13T13:52:38.999Z</time>
      </trkpt>
      <trkpt lat="44.79009" lon="4.26242">
        <ele>994.59</ele>
        <time>2022-10-13T13:52:52.782Z</time>
      </trkpt>
      <trkpt lat="44.79007" lon="4.26256">
        <ele>998.75</ele>
        <time>2022-10-13T13:53:01.861Z</time>
      </trkpt>
      <trkpt lat="44.79009" lon="4.26273">
        <ele>1002.19</ele>
        <time>2022-10-13T13:53:11.598Z</time>
      </trkpt>
      <trkpt lat="44.79012" lon="4.26286">
        <ele>1004.38</ele>
        <time>2022-10-13T13:53:20.898Z</time>
      </trkpt>
      <trkpt lat="44.79015" lon="4.263">
        <ele>1006.29</ele>
        <time>2022-10-13T13:53:31.039Z</time>
      </trkpt>
      <trkpt lat="44.79021" lon="4.26316">
        <ele>1007.9</ele>
        <time>2022-10-13T13:53:40.788Z</time>
      </trkpt>
      <trkpt lat="44.79025" lon="4.26329">
        <ele>1009.2</ele>
        <time>2022-10-13T13:53:49.999Z</time>
      </trkpt>
      <trkpt lat="44.79024" lon="4.26342">
        <ele>1013.38</ele>
        <time>2022-10-13T13:54:00.002Z</time>
      </trkpt>
      <trkpt lat="44.79028" lon="4.26355">
        <ele>1015.03</ele>
        <time>2022-10-13T13:54:10.903Z</time>
      </trkpt>
      <trkpt lat="44.79035" lon="4.26364">
        <ele>1013.88</ele>
        <time>2022-10-13T13:54:20.441Z</time>
      </trkpt>
      <trkpt lat="44.79043" lon="4.2637">
        <ele>1011.21</ele>
        <time>2022-10-13T13:54:31.861Z</time>
      </trkpt>
      <trkpt lat="44.7905" lon="4.26379">
        <ele>1009.62</ele>
        <time>2022-10-13T13:54:45.520Z</time>
      </trkpt>
      <trkpt lat="44.79053" lon="4.26391">
        <ele>1011.26</ele>
        <time>2022-10-13T13:54:55.307Z</time>
      </trkpt>
      <trkpt lat="44.79059" lon="4.26402">
        <ele>1010.83</ele>
        <time>2022-10-13T13:55:05.327Z</time>
      </trkpt>
      <trkpt lat="44.79061" lon="4.26415">
        <ele>1013.01</ele>
        <time>2022-10-13T13:55:16.028Z</time>
      </trkpt>
      <trkpt lat="44.79064" lon="4.26427">
        <ele>1014.49</ele>
        <time>2022-10-13T13:55:28.785Z</time>
      </trkpt>
      <trkpt lat="44.79067" lon="4.26439">
        <ele>1016.32</ele>
        <time>2022-10-13T13:55:39.000Z</time>
      </trkpt>
      <trkpt lat="44.79067" lon="4.26452">
        <ele>1020.33</ele>
        <time>2022-10-13T13:55:59.341Z</time>
      </trkpt>
      <trkpt lat="44.79066" lon="4.2647">
        <ele>1025.72</ele>
        <time>2022-10-13T13:56:08.864Z</time>
      </trkpt>
      <trkpt lat="44.7907" lon="4.26486">
        <ele>1027.78</ele>
        <time>2022-10-13T13:56:18.481Z</time>
      </trkpt>
      <trkpt lat="44.79077" lon="4.265">
        <ele>1026.68</ele>
        <time>2022-10-13T13:56:27.781Z</time>
      </trkpt>
      <trkpt lat="44.79084" lon="4.26507">
        <ele>1023.57</ele>
        <time>2022-10-13T13:56:40.009Z</time>
      </trkpt>
      <trkpt lat="44.79089" lon="4.26518">
        <ele>1022.56</ele>
        <time>2022-10-13T13:56:50.619Z</time>
      </trkpt>
      <trkpt lat="44.79094" lon="4.2653">
        <ele>1021.52</ele>
        <time>2022-10-13T13:57:01.769Z</time>
      </trkpt>
      <trkpt lat="44.79096" lon="4.26549">
        <ele>1025.28</ele>
        <time>2022-10-13T13:57:10.986Z</time>
      </trkpt>
      <trkpt lat="44.79091" lon="4.26569">
        <ele>1033.87</ele>
        <time>2022-10-13T13:57:20.566Z</time>
      </trkpt>
      <trkpt lat="44.79094" lon="4.26583">
        <ele>1034.7</ele>
        <time>2022-10-13T13:57:29.624Z</time>
      </trkpt>
      <trkpt lat="44.79098" lon="4.26598">
        <ele>1032.91</ele>
        <time>2022-10-13T13:57:39.505Z</time>
      </trkpt>
      <trkpt lat="44.79101" lon="4.26614">
        <ele>1032.83</ele>
        <time>2022-10-13T13:57:49.461Z</time>
      </trkpt>
      <trkpt lat="44.79101" lon="4.26626">
        <ele>1033.43</ele>
        <time>2022-10-13T13:57:58.739Z</time>
      </trkpt>
      <trkpt lat="44.79103" lon="4.26642">
        <ele>1033.86</ele>
        <time>2022-10-13T13:58:08.019Z</time>
      </trkpt>
      <trkpt lat="44.79109" lon="4.26655">
        <ele>1029.28</ele>
        <time>2022-10-13T13:58:17.796Z</time>
      </trkpt>
      <trkpt lat="44.79113" lon="4.26667">
        <ele>1025.48</ele>
        <time>2022-10-13T13:58:27.470Z</time>
      </trkpt>
      <trkpt lat="44.79121" lon="4.26675">
        <ele>1019.26</ele>
        <time>2022-10-13T13:58:44.666Z</time>
      </trkpt>
      <trkpt lat="44.79121" lon="4.26689">
        <ele>1019.38</ele>
        <time>2022-10-13T13:58:55.083Z</time>
      </trkpt>
      <trkpt lat="44.7912" lon="4.2671">
        <ele>1019.08</ele>
        <time>2022-10-13T13:59:05.062Z</time>
      </trkpt>
      <trkpt lat="44.79124" lon="4.26723">
        <ele>1015.58</ele>
        <time>2022-10-13T13:59:14.719Z</time>
      </trkpt>
      <trkpt lat="44.79128" lon="4.26735">
        <ele>1012.32</ele>
        <time>2022-10-13T13:59:26.594Z</time>
      </trkpt>
      <trkpt lat="44.79126" lon="4.26754">
        <ele>1013.18</ele>
        <time>2022-10-13T13:59:36.688Z</time>
      </trkpt>
      <trkpt lat="44.79132" lon="4.26764">
        <ele>1009.64</ele>
        <time>2022-10-13T14:00:10.883Z</time>
      </trkpt>
      <trkpt lat="44.79131" lon="4.26782">
        <ele>1009.15</ele>
        <time>2022-10-13T14:00:20.542Z</time>
      </trkpt>
      <trkpt lat="44.7914" lon="4.26786">
        <ele>1004.81</ele>
        <time>2022-10-13T14:00:56.866Z</time>
      </trkpt>
      <trkpt lat="44.79147" lon="4.26794">
        <ele>1001.97</ele>
        <time>2022-10-13T14:01:12.865Z</time>
      </trkpt>
      <trkpt lat="44.7916" lon="4.26797">
        <ele>999.59</ele>
        <time>2022-10-13T14:02:59.999Z</time>
      </trkpt>
      <trkpt lat="44.7915" lon="4.26804">
        <ele>1001.21</ele>
        <time>2022-10-13T14:04:53.999Z</time>
      </trkpt>
      <trkpt lat="44.7914" lon="4.26803">
        <ele>1004.24</ele>
        <time>2022-10-13T14:05:03.547Z</time>
      </trkpt>
      <trkpt lat="44.79131" lon="4.26801">
        <ele>1008.14</ele>
        <time>2022-10-13T14:05:26.384Z</time>
      </trkpt>
      <trkpt lat="44.79125" lon="4.26789">
        <ele>1012.02</ele>
        <time>2022-10-13T14:05:36.063Z</time>
      </trkpt>
      <trkpt lat="44.79123" lon="4.26773">
        <ele>1013.83</ele>
        <time>2022-10-13T14:05:45.381Z</time>
      </trkpt>
      <trkpt lat="44.79125" lon="4.2676">
        <ele>1013.45</ele>
        <time>2022-10-13T14:05:57.737Z</time>
      </trkpt>
      <trkpt lat="44.79132" lon="4.26751">
        <ele>1009.86</ele>
        <time>2022-10-13T14:06:08.017Z</time>
      </trkpt>
      <trkpt lat="44.79141" lon="4.26748">
        <ele>1005.33</ele>
        <time>2022-10-13T14:06:32.666Z</time>
      </trkpt>
      <trkpt lat="44.79146" lon="4.26738">
        <ele>1002.85</ele>
        <time>2022-10-13T14:06:49.583Z</time>
      </trkpt>
      <trkpt lat="44.79148" lon="4.26725">
        <ele>1001.42</ele>
        <time>2022-10-13T14:06:58.999Z</time>
      </trkpt>
      <trkpt lat="44.79155" lon="4.26734">
        <ele>999.82</ele>
        <time>2022-10-13T14:07:16.839Z</time>
      </trkpt>
      <trkpt lat="44.79164" lon="4.2674">
        <ele>999.05</ele>
        <time>2022-10-13T14:07:27.949Z</time>
      </trkpt>
      <trkpt lat="44.79166" lon="4.26752">
        <ele>1000.1</ele>
        <time>2022-10-13T14:07:43.999Z</time>
      </trkpt>
      <trkpt lat="44.79169" lon="4.2674">
        <ele>999.36</ele>
        <time>2022-10-13T14:08:28.938Z</time>
      </trkpt>
      <trkpt lat="44.79173" lon="4.26728">
        <ele>998.64</ele>
        <time>2022-10-13T14:08:49.370Z</time>
      </trkpt>
      <trkpt lat="44.79182" lon="4.2673">
        <ele>1001.53</ele>
        <time>2022-10-13T14:09:07.999Z</time>
      </trkpt>
      <trkpt lat="44.7919" lon="4.26737">
        <ele>1006.27</ele>
        <time>2022-10-13T14:10:01.999Z</time>
      </trkpt>
      <trkpt lat="44.7918" lon="4.2674">
        <ele>1002.33</ele>
        <time>2022-10-13T14:11:20.983Z</time>
      </trkpt>
      <trkpt lat="44.79176" lon="4.26751">
        <ele>1002.08</ele>
        <time>2022-10-13T14:11:59.040Z</time>
      </trkpt>
      <trkpt lat="44.79171" lon="4.26763">
        <ele>1001.25</ele>
        <time>2022-10-13T14:12:13.000Z</time>
      </trkpt>
      <trkpt lat="44.79162" lon="4.26761">
        <ele>1000.3</ele>
        <time>2022-10-13T14:12:37.708Z</time>
      </trkpt>
      <trkpt lat="44.79159" lon="4.26747">
        <ele>999.9</ele>
        <time>2022-10-13T14:12:47.000Z</time>
      </trkpt>
      <trkpt lat="44.79158" lon="4.26734">
        <ele>999.14</ele>
        <time>2022-10-13T14:13:00.000Z</time>
      </trkpt>
      <trkpt lat="44.79155" lon="4.26748">
        <ele>1000.65</ele>
        <time>2022-10-13T14:13:51.000Z</time>
      </trkpt>
      <trkpt lat="44.79148" lon="4.26758">
        <ele>1002.76</ele>
        <time>2022-10-13T14:14:13.468Z</time>
      </trkpt>
      <trkpt lat="44.79143" lon="4.26769">
        <ele>1004.24</ele>
        <time>2022-10-13T14:14:31.485Z</time>
      </trkpt>
      <trkpt lat="44.79134" lon="4.26773">
        <ele>1007.9</ele>
        <time>2022-10-13T14:14:47.865Z</time>
      </trkpt>
      <trkpt lat="44.79128" lon="4.26764">
        <ele>1011.92</ele>
        <time>2022-10-13T14:14:59.045Z</time>
      </trkpt>
      <trkpt lat="44.79124" lon="4.26752">
        <ele>1014.6</ele>
        <time>2022-10-13T14:15:11.662Z</time>
      </trkpt>
      <trkpt lat="44.79121" lon="4.2674">
        <ele>1016.64</ele>
        <time>2022-10-13T14:15:21.000Z</time>
      </trkpt>
      <trkpt lat="44.79121" lon="4.26727">
        <ele>1017.43</ele>
        <time>2022-10-13T14:15:44.527Z</time>
      </trkpt>
      <trkpt lat="44.7912" lon="4.26714">
        <ele>1019.01</ele>
        <time>2022-10-13T14:15:56.527Z</time>
      </trkpt>
      <trkpt lat="44.79119" lon="4.267">
        <ele>1020.18</ele>
        <time>2022-10-13T14:16:06.065Z</time>
      </trkpt>
      <trkpt lat="44.79119" lon="4.26687">
        <ele>1021.06</ele>
        <time>2022-10-13T14:16:18.000Z</time>
      </trkpt>
      <trkpt lat="44.79117" lon="4.26674">
        <ele>1022.28</ele>
        <time>2022-10-13T14:16:36.081Z</time>
      </trkpt>
      <trkpt lat="44.79113" lon="4.26661">
        <ele>1025.14</ele>
        <time>2022-10-13T14:16:45.442Z</time>
      </trkpt>
      <trkpt lat="44.7911" lon="4.26647">
        <ele>1027.35</ele>
        <time>2022-10-13T14:16:54.644Z</time>
      </trkpt>
      <trkpt lat="44.79105" lon="4.26633">
        <ele>1031.04</ele>
        <time>2022-10-13T14:17:04.079Z</time>
      </trkpt>
      <trkpt lat="44.79101" lon="4.26618">
        <ele>1033.14</ele>
        <time>2022-10-13T14:17:13.479Z</time>
      </trkpt>
      <trkpt lat="44.791" lon="4.26605">
        <ele>1032.02</ele>
        <time>2022-10-13T14:17:54.384Z</time>
      </trkpt>
      <trkpt lat="44.79096" lon="4.26581">
        <ele>1031.62</ele>
        <time>2022-10-13T14:18:04.019Z</time>
      </trkpt>
      <trkpt lat="44.79092" lon="4.26567">
        <ele>1033.04</ele>
        <time>2022-10-13T14:18:13.781Z</time>
      </trkpt>
      <trkpt lat="44.79097" lon="4.26553">
        <ele>1024.59</ele>
        <time>2022-10-13T14:18:22.994Z</time>
      </trkpt>
      <trkpt lat="44.79094" lon="4.2654">
        <ele>1024.55</ele>
        <time>2022-10-13T14:18:32.822Z</time>
      </trkpt>
      <trkpt lat="44.79085" lon="4.26532">
        <ele>1029.43</ele>
        <time>2022-10-13T14:18:42.602Z</time>
      </trkpt>
      <trkpt lat="44.79075" lon="4.2652">
        <ele>1033.37</ele>
        <time>2022-10-13T14:18:51.899Z</time>
      </trkpt>
      <trkpt lat="44.7907" lon="4.26506">
        <ele>1033.35</ele>
        <time>2022-10-13T14:19:01.258Z</time>
      </trkpt>
      <trkpt lat="44.79069" lon="4.26492">
        <ele>1029.9</ele>
        <time>2022-10-13T14:19:10.668Z</time>
      </trkpt>
      <trkpt lat="44.79064" lon="4.26476">
        <ele>1028.91</ele>
        <time>2022-10-13T14:19:20.625Z</time>
      </trkpt>
      <trkpt lat="44.79066" lon="4.26459">
        <ele>1022.65</ele>
        <time>2022-10-13T14:19:30.004Z</time>
      </trkpt>
      <trkpt lat="44.79067" lon="4.26446">
        <ele>1018.26</ele>
        <time>2022-10-13T14:19:41.128Z</time>
      </trkpt>
      <trkpt lat="44.79077" lon="4.2644">
        <ele>1010.36</ele>
        <time>2022-10-13T14:19:50.999Z</time>
      </trkpt>
      <trkpt lat="44.79069" lon="4.26447">
        <ele>1017.55</ele>
        <time>2022-10-13T14:21:12.902Z</time>
      </trkpt>
      <trkpt lat="44.79059" lon="4.26434">
        <ele>1019.71</ele>
        <time>2022-10-13T14:21:22.021Z</time>
      </trkpt>
      <trkpt lat="44.79055" lon="4.26419">
        <ele>1018.07</ele>
        <time>2022-10-13T14:21:31.860Z</time>
      </trkpt>
      <trkpt lat="44.79048" lon="4.26409">
        <ele>1019.1</ele>
        <time>2022-10-13T14:21:41.100Z</time>
      </trkpt>
      <trkpt lat="44.79042" lon="4.26399">
        <ele>1020.01</ele>
        <time>2022-10-13T14:21:53.567Z</time>
      </trkpt>
      <trkpt lat="44.79038" lon="4.26388">
        <ele>1018.67</ele>
        <time>2022-10-13T14:22:06.368Z</time>
      </trkpt>
      <trkpt lat="44.79035" lon="4.26375">
        <ele>1017.06</ele>
        <time>2022-10-13T14:22:19.844Z</time>
      </trkpt>
      <trkpt lat="44.79025" lon="4.26362">
        <ele>1018.18</ele>
        <time>2022-10-13T14:22:29.564Z</time>
      </trkpt>
      <trkpt lat="44.7902" lon="4.26348">
        <ele>1016.91</ele>
        <time>2022-10-13T14:22:38.921Z</time>
      </trkpt>
      <trkpt lat="44.79021" lon="4.2633">
        <ele>1011.82</ele>
        <time>2022-10-13T14:22:47.999Z</time>
      </trkpt>
      <trkpt lat="44.7902" lon="4.26317">
        <ele>1008.81</ele>
        <time>2022-10-13T14:22:58.879Z</time>
      </trkpt>
      <trkpt lat="44.79017" lon="4.26305">
        <ele>1006.8</ele>
        <time>2022-10-13T14:23:08.479Z</time>
      </trkpt>
      <trkpt lat="44.7901" lon="4.26291">
        <ele>1006.43</ele>
        <time>2022-10-13T14:23:17.746Z</time>
      </trkpt>
      <trkpt lat="44.79006" lon="4.26277">
        <ele>1004.42</ele>
        <time>2022-10-13T14:23:26.888Z</time>
      </trkpt>
      <trkpt lat="44.79" lon="4.26263">
        <ele>1003.28</ele>
        <time>2022-10-13T14:23:36.805Z</time>
      </trkpt>
      <trkpt lat="44.78997" lon="4.26249">
        <ele>1000.63</ele>
        <time>2022-10-13T14:23:46.903Z</time>
      </trkpt>
      <trkpt lat="44.78988" lon="4.26246">
        <ele>1002.39</ele>
        <time>2022-10-13T14:23:55.982Z</time>
      </trkpt>
      <trkpt lat="44.78982" lon="4.26236">
        <ele>1000.93</ele>
        <time>2022-10-13T14:24:05.840Z</time>
      </trkpt>
      <trkpt lat="44.78989" lon="4.26227">
        <ele>996.94</ele>
        <time>2022-10-13T14:24:43.747Z</time>
      </trkpt>
      <trkpt lat="44.78991" lon="4.2623">
        <ele>997.16</ele>
        <time>2022-10-13T14:26:41.000Z</time>
      </trkpt>
    </trkseg>
  </trk>
</gpx>